GFSCGP_250_spd_000.txt.gz
Wind_Speed
9 11 13 12 11 12 13 15 17 17 17 16 17 18 20 24 26 27 27 33 38 40 42 43 44 45 45 45 48 50 54 55 57 56 58 60 57 57 58 53 50 55 53 58
6 8 7 7 10 13 12 12 13 13 14 15 17 17 18 20 22 24 26 31 35 39 42 44 42 43 44 43 45 50 54 55 57 60 60 64 65 64 65 65 64 62 65 67
2 3 5 6 6 7 7 10 9 12 13 15 14 14 18 18 18 20 23 30 34 37 39 41 43 44 41 43 46 49 53 53 55 58 63 62 65 69 70 72 74 70 71 70
6 6 6 6 10 10 6 11 11 9 9 12 14 14 13 16 20 27 31 30 34 36 39 41 45 47 49 50 54 56 56 57 57 57 63 70 69 69 74 78 82 84 80 82
11 10 12 11 12 14 14 14 12 9 13 19 20 21 14 16 22 26 32 37 40 43 46 50 51 54 55 55 57 57 60 61 63 65 67 69 76 77 82 88 91 93 93 93
12 13 15 18 20 18 20 19 18 19 22 21 28 28 29 26 18 29 35 36 40 46 48 52 58 60 61 60 58 61 63 65 69 71 75 79 78 85 90 96 100 100 101 99
14 17 18 21 24 25 23 21 22 23 24 27 22 27 34 35 35 39 41 42 44 49 52 57 58 62 60 60 62 65 66 69 72 77 82 82 85 89 96 102 103 102 99 99
18 11 17 19 23 24 24 20 21 20 21 25 33 36 42 36 36 39 37 41 47 48 52 52 57 57 58 61 66 71 73 73 78 79 81 84 89 94 100 107 107 105 104 104
17 15 17 19 22 23 23 27 24 23 28 29 35 39 48 46 44 43 47 47 49 55 58 61 63 65 66 69 72 77 81 84 85 87 89 92 98 102 105 110 110 109 108 106
18 20 19 17 21 22 27 29 32 31 33 30 37 37 50 45 51 57 60 62 63 64 65 68 70 71 74 76 79 81 83 85 90 91 94 100 105 108 112 117 115 114 110 111
21 22 23 23 23 25 27 32 33 37 39 34 30 35 50 49 56 61 64 65 65 66 71 75 77 77 80 79 82 85 85 88 92 96 99 106 111 116 120 123 119 119 114 110
27 22 28 27 30 31 33 37 39 37 34 40 37 44 54 60 59 60 62 65 69 73 79 82 83 85 87 86 85 85 88 92 96 99 104 110 116 121 126 126 119 117 111 106
33 32 29 34 32 34 45 53 51 44 40 42 41 48 59 64 64 68 70 70 77 81 84 86 88 88 91 94 93 94 95 96 99 104 112 116 123 128 131 128 114 112 107 100
38 39 36 38 45 46 45 52 58 55 50 48 54 46 58 62 66 70 75 76 81 85 88 89 91 93 96 99 98 99 101 103 110 115 118 119 129 134 133 119 112 108 102 93
39 45 46 50 47 42 42 48 54 58 61 59 56 62 64 69 73 75 81 83 85 85 90 95 97 99 102 102 103 106 105 113 118 123 125 130 133 140 124 114 108 103 97 90
34 36 37 39 45 44 44 52 56 60 63 65 65 67 76 76 81 84 84 85 86 90 95 98 99 103 105 106 105 107 111 118 122 127 132 136 134 134 113 108 104 99 93 88
37 37 37 39 47 50 54 61 64 64 67 70 70 72 75 79 81 84 87 90 91 97 99 99 102 105 107 109 112 117 122 126 131 135 137 136 135 115 108 106 100 94 89 83
44 48 49 48 51 50 57 69 72 68 71 74 74 77 80 81 86 91 94 95 97 103 104 106 108 109 113 118 120 125 130 136 137 140 142 138 119 111 107 101 94 90 84 77
56 56 57 56 58 59 64 75 75 74 73 79 81 84 86 89 87 91 100 102 106 111 112 113 115 117 119 124 128 134 138 140 141 138 136 124 114 107 100 93 89 85 77 73
61 63 63 64 62 62 71 76 79 82 81 85 90 93 95 97 99 99 106 109 111 115 117 120 122 129 131 132 136 140 140 140 136 131 128 114 107 99 92 88 84 77 72 70
60 62 66 70 74 71 80 81 82 85 83 88 94 98 99 101 107 111 112 114 117 120 125 130 133 136 137 139 142 142 137 131 124 119 109 108 98 91 88 83 77 73 70 69
69 72 76 77 80 78 83 86 89 93 92 97 97 101 105 107 111 116 121 125 127 128 133 136 139 140 140 135 129 127 124 117 110 104 102 96 89 86 82 77 73 70 68 66
76 82 81 85 89 89 89 94 95 100 103 103 107 111 116 121 124 127 130 132 134 136 134 131 129 127 123 121 121 117 111 104 102 98 93 87 84 82 77 71 69 67 67 63
81 89 88 88 92 96 96 99 105 107 110 113 116 118 120 123 125 129 130 131 132 128 124 121 118 118 117 112 106 100 100 99 91 89 85 83 80 76 71 68 65 64 62 60
91 96 101 96 98 102 103 111 114 117 116 115 117 121 124 126 128 128 128 125 120 117 117 114 110 106 102 97 97 96 92 88 86 83 82 78 74 69 67 66 63 62 58 55
98 105 107 102 104 111 108 109 109 114 116 119 122 126 126 127 123 120 118 114 112 108 103 100 99 98 97 95 91 90 88 86 84 82 77 72 68 66 65 63 63 57 56 50

GFSCGP_250_spd_003.txt.gz
Wind_Speed
6 9 8 8 8 6 8 8 6 7 8 9 9 9 11 12 12 15 18 22 21 24 25 27 31 33 35 38 38 34 36 38 41 44 44 47 47 52 54 55 56 56 61 65
5 5 4 4 3 5 3 2 3 7 7 9 10 8 6 7 10 16 21 22 25 26 28 28 30 33 38 40 41 41 41 42 44 49 52 55 54 57 59 60 60 60 66 69
8 6 4 4 5 3 3 3 10 12 7 6 9 8 14 17 17 14 18 21 25 29 31 33 38 37 40 43 45 46 42 46 48 50 56 59 60 62 65 65 64 65 69 75
11 10 8 7 8 9 9 12 15 11 11 14 18 18 12 14 15 18 21 26 30 34 38 41 39 41 44 46 49 52 54 58 59 60 64 64 66 66 67 71 73 75 79 84
14 18 15 12 13 13 13 14 15 14 14 15 19 19 10 13 13 14 20 29 29 35 44 47 46 47 48 49 54 56 59 66 70 70 68 67 67 70 73 75 78 82 88 89
18 17 16 20 21 22 20 22 16 17 22 19 22 27 32 21 22 19 20 23 27 37 43 50 52 53 54 54 60 66 66 66 69 71 73 73 73 76 78 81 82 92 96 97
16 18 20 17 18 16 21 21 22 23 21 26 23 32 36 38 41 38 35 35 41 45 49 49 52 53 50 58 66 68 68 69 74 76 75 78 79 81 81 82 89 99 105 106
17 16 20 19 20 21 22 24 22 23 27 31 36 38 43 43 43 43 42 44 48 54 54 52 52 56 59 63 66 69 72 74 78 83 86 88 88 89 90 90 95 102 106 114
18 16 18 20 18 21 24 25 27 28 31 33 35 46 51 46 48 47 45 48 50 55 54 57 60 63 67 72 76 78 80 84 83 86 90 93 96 96 99 97 101 107 115 119
21 20 20 20 22 25 28 28 32 34 35 36 38 45 51 52 52 55 54 53 63 68 69 72 74 76 78 82 83 83 88 90 86 87 94 99 101 102 104 107 110 115 123 125
24 26 25 28 26 29 29 33 31 35 38 42 37 43 50 47 50 55 59 58 65 69 72 76 81 83 84 83 85 88 91 95 94 95 99 105 107 107 113 115 117 123 126 128
28 31 38 35 33 34 37 43 44 39 37 43 38 45 56 58 60 62 66 70 73 76 81 83 85 86 87 89 90 94 99 102 101 103 106 109 112 113 118 121 126 131 133 129
40 40 42 42 39 40 44 53 56 48 45 46 44 48 57 61 62 65 70 74 78 79 82 87 88 89 92 93 97 101 105 109 111 111 110 112 115 121 124 127 131 132 129 115
41 43 40 43 42 38 40 44 48 50 48 47 58 54 64 68 71 74 76 77 78 80 86 89 95 98 99 101 105 109 112 116 118 119 119 120 123 126 129 134 132 122 112 105
27 31 29 36 33 35 37 43 48 53 59 59 59 67 69 71 73 75 78 80 84 87 91 95 97 99 104 109 114 117 119 120 124 128 129 130 132 131 126 121 114 108 105 99
29 30 32 39 44 44 47 55 56 58 60 62 63 65 70 74 79 83 86 86 90 95 97 99 102 106 111 115 118 121 124 127 131 132 130 128 121 117 113 109 105 98 92 88
39 37 36 39 45 47 51 57 56 56 61 64 68 71 73 78 84 86 88 90 94 98 102 104 109 113 118 124 128 131 131 130 127 128 125 122 118 114 107 99 93 92 86 82
45 47 48 48 51 50 59 62 62 62 67 71 77 77 81 84 85 91 96 101 104 108 110 114 120 124 126 130 131 128 126 121 120 120 117 112 106 98 92 91 88 83 79 77
50 50 50 50 48 50 63 64 66 68 74 80 82 86 88 92 93 96 104 106 109 114 121 120 122 126 127 129 126 120 117 116 113 109 104 97 91 89 84 80 80 79 77 77
54 56 59 61 59 60 70 70 75 78 77 83 87 91 95 99 102 102 107 110 112 116 120 123 124 125 123 121 117 115 111 106 101 96 96 91 84 79 80 80 79 78 77 72
60 63 65 67 68 70 77 78 83 86 86 88 96 100 101 105 109 110 108 110 118 122 121 119 120 120 114 110 106 103 99 96 92 87 85 82 79 80 79 79 78 76 71 65
66 70 71 72 76 81 86 86 92 92 91 102 104 107 108 110 108 111 118 122 125 122 119 119 117 112 106 103 100 95 92 93 90 86 83 82 82 81 79 78 74 69 62 60
74 77 79 82 81 86 88 92 95 100 106 111 111 111 110 109 116 121 123 127 125 124 121 114 108 103 103 100 96 95 94 90 89 86 85 82 81 80 77 73 67 61 58 58
78 83 85 87 87 85 91 95 104 108 113 113 113 115 116 119 124 126 135 128 125 121 113 106 101 98 98 97 95 94 94 92 90 87 85 82 78 76 73 66 60 57 55 55
83 88 88 86 92 92 96 103 106 109 117 120 116 118 124 129 132 136 134 128 126 118 107 100 98 96 95 95 95 95 94 91 89 85 81 78 74 70 66 62 58 55 51 53
90 95 97 93 97 104 103 108 115 120 127 126 123 122 126 133 134 130 126 126 119 105 98 97 97 96 95 95 94 93 92 89 84 81 77 74 69 65 61 57 57 52 50 50

GFSCGP_250_spd_006.txt.gz
Wind_Speed
4 6 3 1 4 5 8 11 12 10 8 7 7 7 5 6 5 9 12 12 12 13 20 22 25 29 30 31 33 32 36 38 39 40 43 47 49 51 49 46 46 47 50 54
8 7 6 7 9 9 11 11 10 10 10 12 10 12 11 11 9 13 12 12 17 21 26 26 30 33 35 37 40 40 40 43 42 44 47 49 51 53 54 55 55 56 59 59
11 11 10 9 10 9 12 13 13 15 15 13 17 16 18 22 21 20 27 23 25 29 30 34 39 42 45 45 47 47 47 47 46 50 52 54 57 62 65 65 66 66 65 68
12 14 13 11 11 13 13 16 21 21 21 21 24 25 19 15 20 24 23 26 34 36 37 39 44 49 52 52 53 54 55 59 60 63 66 63 64 69 70 68 68 70 72 73
15 13 14 17 16 18 20 22 21 23 25 25 24 27 25 20 26 24 22 28 35 36 38 39 46 51 53 55 58 62 65 67 68 68 71 72 72 76 76 77 78 80 81 83
17 18 17 15 15 19 20 18 20 21 25 29 29 31 29 27 20 24 33 36 34 37 43 45 51 54 56 58 63 67 69 68 71 71 71 76 78 77 79 81 83 85 88 91
20 20 20 17 19 19 19 23 24 23 27 29 28 34 33 36 34 33 32 37 39 45 50 52 56 57 62 66 68 70 72 72 72 73 77 80 83 85 88 90 93 97 97 97
22 22 22 20 18 19 20 23 26 27 26 31 37 41 44 44 45 45 46 46 48 53 56 57 60 64 68 70 72 75 75 76 77 81 85 87 91 96 99 102 104 106 109 108
21 20 21 20 22 23 23 26 26 28 28 29 37 46 51 50 48 47 49 51 54 60 63 67 70 72 74 76 77 79 82 85 89 91 92 95 99 103 107 109 111 113 115 118
23 21 22 26 25 27 31 33 30 29 28 30 36 51 56 49 48 50 52 55 59 63 68 71 72 74 76 79 82 86 90 92 93 95 98 101 105 110 115 118 121 123 123 123
26 27 26 25 27 34 38 38 37 40 44 46 42 44 49 47 49 51 55 60 65 68 70 73 77 81 82 84 87 91 96 100 103 104 107 111 116 121 124 126 125 123 120 116
29 32 32 31 34 41 49 49 43 39 37 39 35 41 49 52 53 56 60 63 67 70 74 78 84 87 89 92 97 101 104 106 109 113 118 122 125 127 129 126 126 123 117 111
32 37 39 38 43 44 51 50 37 34 37 41 44 46 54 55 57 62 64 70 72 75 80 85 88 91 95 98 101 106 109 109 115 121 127 125 124 125 126 126 119 114 109 106
28 33 37 38 36 30 37 41 42 43 46 46 52 50 58 59 61 64 71 78 81 83 86 90 94 94 99 104 106 105 108 115 122 125 125 123 122 121 116 108 105 104 102 97
23 24 26 31 34 36 43 45 50 53 56 56 58 60 61 64 69 74 79 80 83 90 93 96 99 100 104 109 108 113 118 122 123 120 119 117 115 108 104 100 98 97 94 92
31 32 34 39 42 44 47 48 49 51 53 56 59 64 68 71 75 77 80 82 91 99 101 103 106 110 110 111 116 117 121 119 117 118 115 109 105 101 99 94 87 84 80 78
35 34 38 44 47 50 52 52 55 58 64 65 67 70 74 78 79 85 88 89 100 104 107 108 107 110 113 116 120 122 116 114 112 110 106 102 99 97 95 93 88 83 81 79
41 41 42 43 45 46 62 57 59 63 70 73 73 76 81 83 82 88 95 98 102 111 115 114 115 118 120 122 121 115 113 108 103 98 98 97 96 94 91 87 85 83 81 79
44 46 47 51 50 52 67 63 67 68 70 76 78 81 83 86 86 92 98 104 111 114 118 123 125 123 124 125 119 114 109 103 97 94 94 95 95 94 90 87 84 82 80 79
52 54 56 60 61 61 71 73 74 73 75 79 82 83 86 90 94 98 106 107 112 119 122 129 129 126 126 121 113 112 102 98 95 94 96 96 94 91 86 82 78 77 73 72
57 61 64 66 68 71 77 79 82 82 81 82 83 88 95 100 107 111 112 113 121 127 129 136 132 130 129 120 116 108 100 97 97 97 97 95 92 88 83 77 73 71 69 65
66 68 70 72 74 78 80 85 86 87 85 90 93 100 104 110 115 118 120 123 130 132 139 136 132 133 126 119 111 104 102 100 99 98 95 94 90 84 78 74 70 67 63 59
69 72 74 78 77 85 89 90 91 97 99 99 105 110 114 117 121 125 131 135 138 139 139 132 131 128 120 112 106 104 102 102 100 97 94 90 84 79 73 70 66 62 58 54
74 78 80 83 87 90 93 94 97 100 105 108 114 117 119 124 129 135 139 140 142 139 135 133 127 119 110 106 106 104 101 100 97 94 89 84 80 75 70 65 60 54 50 48
81 84 88 92 94 93 97 98 101 107 113 117 119 122 126 130 133 138 140 140 136 134 133 124 118 114 109 105 101 99 96 92 90 85 81 76 72 69 63 58 54 49 45 45
89 93 98 97 101 101 98 103 106 113 115 118 125 132 135 135 137 139 137 134 135 131 120 117 111 109 106 102 98 95 91 88 82 78 73 70 66 60 56 52 49 45 42 42

GFSCGP_250_spd_009.txt.gz
Wind_Speed
8 9 10 9 12 14 14 14 13 15 14 15 16 18 18 17 19 17 18 22 24 26 28 34 36 33 35 38 40 42 41 39 40 43 47 52 56 57 58 58 53 53 56 57
11 12 12 9 9 8 10 14 15 14 15 19 20 20 18 20 24 24 26 29 28 29 30 37 42 41 40 43 45 48 49 47 47 49 53 58 62 61 62 62 60 60 62 64
13 15 13 13 12 13 15 18 20 22 20 23 24 25 21 26 29 32 34 34 37 38 34 40 43 47 50 53 54 55 57 59 61 62 62 62 64 64 66 67 69 70 71 71
14 16 18 16 17 20 20 21 24 26 28 30 29 29 29 33 34 31 32 35 39 42 41 48 48 49 52 56 58 60 62 65 67 66 67 67 68 69 70 73 76 79 81 81
14 15 16 18 21 22 22 23 27 28 29 29 31 32 32 34 37 36 34 38 34 42 49 49 51 52 55 56 58 61 65 69 70 71 70 71 73 76 78 80 83 86 88 91
20 17 16 16 20 23 24 23 23 22 22 24 28 30 30 31 33 35 38 40 38 45 47 50 52 52 55 59 63 65 67 67 70 72 75 77 79 82 86 90 92 95 97 99
26 21 19 17 20 21 23 22 21 24 27 28 30 30 32 33 35 34 40 43 43 45 48 50 53 56 59 63 65 66 67 72 76 78 81 85 89 93 97 99 101 103 105 106
27 27 22 21 20 20 20 23 25 25 29 33 35 37 41 36 34 42 39 37 42 47 51 53 56 60 63 66 69 72 76 81 83 86 90 94 97 102 105 110 112 113 112 112
25 26 24 23 22 21 21 22 24 27 31 35 43 49 48 48 47 40 37 44 48 52 54 57 61 64 68 73 76 80 84 88 92 93 96 100 102 106 110 113 115 116 115 112
24 26 26 25 24 26 26 26 30 34 37 41 47 53 47 44 39 44 48 51 54 58 61 63 67 72 79 82 84 87 92 95 97 99 102 105 108 112 116 119 121 119 113 109
25 27 28 29 31 32 33 35 38 43 46 46 34 39 45 46 48 52 55 58 59 61 65 70 75 81 85 86 89 92 96 96 98 103 109 113 118 119 119 121 119 116 112 106
25 29 29 31 34 37 38 41 44 40 36 37 36 42 46 50 53 57 59 61 65 69 74 79 83 85 86 89 92 98 102 106 111 114 118 122 121 120 121 117 111 110 102 96
17 22 27 31 36 41 42 39 34 34 39 42 45 48 56 53 55 58 62 67 71 75 79 80 82 86 90 95 101 106 108 112 117 120 122 123 119 120 113 110 106 102 95 92
20 21 21 22 24 30 36 37 40 43 46 46 52 48 56 59 63 67 70 72 74 78 78 81 85 91 98 105 109 111 115 119 122 124 127 125 120 113 106 104 99 97 93 92
26 28 29 32 33 36 42 44 49 49 49 47 52 57 61 65 69 72 75 75 77 79 82 89 96 100 107 112 115 119 125 128 131 133 130 123 117 107 102 97 96 95 94 93
31 30 32 38 37 40 47 46 47 50 53 55 59 63 69 73 75 76 79 81 81 83 90 97 104 109 113 117 122 127 131 132 131 127 122 115 106 102 97 93 91 90 89 87
34 32 36 42 44 46 50 48 51 55 59 60 64 69 72 77 78 79 82 87 91 95 99 107 113 117 123 128 129 130 130 131 123 119 113 106 101 97 94 93 91 89 89 88
41 40 44 45 45 48 61 54 57 60 64 69 70 73 79 82 82 87 90 92 97 103 107 110 117 121 129 133 132 132 133 125 121 111 104 98 96 95 94 92 89 87 85 82
43 46 47 49 49 51 66 63 66 66 67 74 74 82 86 89 87 91 96 99 105 110 113 119 124 132 135 141 139 131 125 122 116 109 104 99 97 95 92 88 85 83 80 75
48 50 53 55 57 60 70 70 70 74 73 78 83 88 93 94 94 95 100 105 112 117 122 126 131 135 143 141 134 130 125 117 111 107 104 100 94 89 86 83 80 76 71 67
55 56 59 62 66 67 72 74 78 80 80 83 90 95 97 99 104 106 112 116 120 125 129 135 140 142 143 139 132 127 119 114 111 108 101 96 91 85 82 78 72 67 63 61
59 61 64 67 73 77 80 79 82 85 87 92 96 100 103 108 112 117 121 122 125 129 133 140 142 145 141 136 128 121 117 114 108 102 97 91 86 82 76 70 66 62 58 56
63 70 71 78 77 83 83 84 88 92 93 98 102 106 113 117 118 121 123 128 133 137 141 145 146 142 134 127 121 116 114 107 100 94 88 84 79 73 69 65 62 56 53 51
68 78 76 79 81 85 87 92 95 97 100 104 106 112 117 120 124 128 132 135 139 142 145 143 139 133 126 121 116 113 106 98 91 87 82 75 71 68 64 59 55 53 50 47
75 78 81 81 84 89 96 99 97 101 106 109 115 121 126 130 134 140 143 143 144 145 145 140 132 124 119 116 111 104 95 90 85 79 73 70 66 62 58 55 52 49 46 44
84 88 91 89 95 99 97 101 107 109 114 119 122 129 131 135 139 144 145 143 143 142 135 128 121 117 114 107 99 93 89 84 78 73 69 65 61 58 54 51 49 45 43 42

GFSCGP_250_spd_012.txt.gz
Wind_Speed
11 12 12 13 11 10 13 15 16 20 18 22 19 19 22 23 25 26 27 32 35 34 39 39 44 44 44 47 46 47 48 50 53 54 55 56 57 60 62 62 62 62 63 63
12 11 13 12 12 13 15 17 16 16 20 21 22 25 24 27 28 28 31 35 37 39 41 42 44 46 47 51 55 53 53 55 56 59 59 58 57 58 61 65 68 68 67 70
13 15 16 15 15 14 14 14 15 18 23 25 25 29 31 31 34 36 38 40 41 41 42 47 47 46 50 54 57 58 58 60 61 58 58 61 64 65 68 72 74 77 80 82
15 15 18 19 19 18 17 19 20 23 25 28 31 32 32 32 35 36 36 36 36 40 46 49 51 51 53 54 55 57 60 59 61 62 64 66 70 72 75 78 81 84 87 90
22 18 17 20 23 22 22 24 25 27 29 31 28 25 27 28 31 32 32 34 40 43 49 57 55 52 53 54 56 57 59 62 66 70 73 74 77 80 83 88 90 92 95 98
25 23 18 18 22 22 21 22 27 29 28 25 25 26 26 28 29 30 32 36 39 47 53 52 49 51 53 56 59 62 66 70 74 78 82 84 87 91 93 96 98 101 102 104
28 27 23 20 21 23 24 23 22 21 20 21 24 27 30 35 35 36 41 44 47 50 51 49 52 55 58 60 62 66 71 76 80 83 86 89 92 94 99 102 104 105 107 110
26 28 27 26 24 23 25 25 22 20 19 22 27 37 36 40 38 40 40 40 40 43 48 53 55 58 61 64 68 72 76 81 84 87 89 94 98 102 105 108 110 113 115 115
22 25 26 27 27 25 24 24 23 22 24 30 39 47 42 41 39 39 42 43 47 52 54 57 59 62 66 71 76 79 82 85 88 90 94 99 105 108 112 116 118 118 116 116
19 23 26 25 27 26 26 27 27 28 31 37 44 55 49 36 41 46 49 53 53 54 58 63 67 70 73 77 81 85 85 87 91 98 101 106 111 114 116 116 116 114 111 110
14 18 24 26 28 27 29 30 31 34 39 41 34 49 45 49 52 54 54 55 59 62 66 71 74 78 81 83 86 87 89 97 102 104 110 114 120 121 121 118 114 110 108 106
12 13 19 26 30 32 34 36 37 39 40 40 36 45 49 50 49 51 54 58 63 68 72 77 80 80 80 83 86 90 98 103 107 114 118 121 126 127 127 122 119 116 108 103
16 13 12 16 20 23 26 27 28 31 35 40 43 44 46 45 51 56 61 63 65 70 76 76 78 81 85 90 95 100 106 111 116 120 124 126 130 134 129 123 116 109 102 99
25 25 24 26 30 31 33 33 34 36 39 40 45 42 52 57 59 62 65 64 69 77 80 83 86 90 94 98 103 109 113 117 122 127 130 133 137 136 123 116 107 101 99 97
34 34 31 33 33 34 36 37 39 40 42 41 46 53 58 60 62 66 72 73 79 83 85 87 91 97 103 107 111 115 121 125 130 134 137 136 134 120 113 105 100 98 97 94
32 32 33 36 35 38 43 44 44 44 48 51 53 58 62 65 68 72 76 79 83 87 89 94 99 104 107 113 118 124 131 135 137 136 136 132 121 111 103 102 99 95 92 87
36 34 34 39 41 45 50 50 45 48 55 58 59 63 67 72 74 79 81 84 88 93 98 102 109 114 120 123 126 132 138 140 137 133 129 119 108 105 104 102 97 93 87 82
38 37 36 37 42 44 57 50 50 53 59 66 68 72 74 75 79 85 89 91 96 100 104 109 116 121 126 131 139 143 142 136 132 125 118 111 106 105 102 97 91 85 80 76
43 44 42 44 45 44 59 56 56 58 62 71 74 78 81 85 87 91 95 99 104 103 110 119 123 126 135 140 148 142 133 127 119 116 111 109 106 103 97 91 85 79 74 69
51 50 50 50 51 50 61 61 62 63 67 72 77 82 88 94 95 96 99 103 105 110 120 126 128 140 147 147 143 133 123 119 114 111 110 108 101 96 91 86 80 74 69 66
51 52 54 57 56 56 61 64 68 71 74 78 82 89 93 97 101 104 108 110 115 121 126 132 138 150 150 141 133 124 117 112 111 110 106 99 93 89 83 79 73 69 66 61
56 56 62 60 61 63 67 70 76 80 80 87 90 94 100 103 107 110 113 116 123 125 131 138 146 150 143 134 125 118 114 112 110 103 95 89 85 80 76 72 68 64 59 56
61 68 64 64 66 72 74 77 84 87 89 93 99 102 107 112 113 115 122 129 130 133 136 144 151 149 131 122 118 114 114 111 103 94 89 84 80 74 70 65 61 59 56 54
67 70 68 68 73 78 83 87 91 94 99 104 108 109 113 116 124 128 131 133 135 139 147 152 146 130 121 115 112 110 108 100 93 88 83 78 74 70 64 60 56 54 53 52
72 74 76 77 81 84 89 93 98 103 106 108 112 115 121 124 128 132 135 138 140 146 154 143 129 121 115 110 110 105 97 91 87 82 77 74 70 65 62 58 55 53 51 50
81 83 85 86 93 96 97 99 102 105 109 113 119 123 130 136 134 136 138 141 147 152 140 127 120 113 110 108 103 96 91 87 82 78 73 68 65 62 58 56 56 51 49 48

GFSCGP_250_spd_015.txt.gz
Wind_Speed
20 18 15 10 10 10 12 13 16 18 16 17 19 21 23 23 24 24 26 27 30 33 35 38 40 41 42 43 45 45 48 47 49 49 50 52 55 57 58 59 61 62 67 66
11 13 11 12 11 8 10 13 16 17 17 20 23 25 28 29 32 32 33 33 32 34 37 40 41 41 43 47 46 49 48 51 52 52 55 58 60 63 64 64 66 67 69 70
13 11 10 11 11 10 11 13 15 17 18 16 18 23 27 31 31 29 29 32 36 39 40 42 43 43 46 47 47 48 50 54 57 59 60 62 64 66 68 69 71 72 74 78
13 12 12 12 15 17 18 18 19 21 22 22 25 27 31 26 26 26 27 32 38 41 42 43 45 50 52 55 52 56 58 59 61 63 66 69 71 73 75 75 76 79 84 86
18 17 16 18 19 22 22 21 23 25 24 26 28 27 24 24 24 27 33 39 43 43 44 49 52 52 53 51 56 57 59 62 65 69 72 75 77 78 79 82 85 88 89 92
21 22 22 23 22 23 21 21 22 23 23 23 21 21 22 25 25 31 36 41 45 47 43 43 43 47 53 55 57 59 63 68 71 75 78 80 82 83 85 90 92 94 99 101
22 24 27 27 27 25 23 22 21 22 24 21 19 20 25 29 32 35 40 40 38 39 42 45 48 49 51 56 61 66 70 74 77 79 80 81 83 87 95 99 101 102 106 109
18 21 22 27 26 28 25 25 23 21 20 21 23 25 31 37 38 40 38 38 42 44 46 47 50 55 58 62 65 70 74 77 78 80 85 91 95 98 102 107 112 115 118 118
15 18 20 20 23 26 29 28 25 23 22 26 31 32 37 39 37 38 43 46 47 46 47 52 55 60 63 65 69 72 74 78 81 86 94 98 103 107 110 115 124 128 125 122
13 14 16 18 20 22 25 26 25 24 25 28 37 43 37 35 37 42 46 45 46 50 54 57 60 63 66 72 78 82 82 84 89 96 101 105 109 116 126 127 132 132 126 120
13 14 13 14 16 18 21 23 25 29 32 34 36 51 39 40 44 45 45 47 52 56 58 61 66 70 75 79 82 82 86 91 96 102 107 111 122 130 134 135 132 126 118 115
13 14 13 13 13 16 18 22 25 25 25 30 31 41 42 44 43 46 49 54 57 59 62 66 72 76 81 81 86 90 93 97 103 107 112 122 128 135 138 131 123 115 111 109
21 21 21 21 22 23 26 27 27 27 29 33 35 40 43 41 46 48 52 55 60 64 67 71 78 83 86 89 93 96 100 103 109 113 120 128 135 143 136 126 116 112 105 99
28 27 29 31 30 29 30 27 27 29 31 33 43 37 44 46 51 57 60 63 67 70 73 79 82 86 90 94 98 101 105 111 116 121 125 133 139 138 123 117 112 103 99 98
29 30 30 29 29 30 32 34 34 33 37 39 40 43 48 52 58 62 66 69 72 75 79 83 89 93 97 99 101 106 113 118 124 128 136 142 128 119 113 108 104 103 100 97
31 30 32 35 32 34 38 37 38 39 41 42 45 50 55 58 62 68 71 73 78 83 86 90 97 101 102 106 109 113 119 126 130 135 137 129 118 111 103 99 99 98 93 88
36 31 29 34 36 40 45 42 43 45 48 50 53 58 61 65 69 74 77 82 86 92 97 99 103 108 111 112 117 120 127 130 133 134 126 116 108 103 99 95 91 88 85 80
38 37 34 38 38 42 48 43 46 48 55 55 58 61 66 71 75 80 86 89 94 98 102 106 111 114 118 123 124 127 130 132 128 126 116 107 105 101 97 92 87 82 76 73
42 40 39 39 39 43 51 49 51 55 57 60 64 69 74 77 82 89 92 95 99 103 107 114 116 121 125 126 131 131 132 125 120 111 108 105 102 99 93 88 82 77 73 69
46 45 44 43 43 47 52 53 58 61 63 70 73 74 77 84 87 92 97 103 106 112 117 120 125 127 132 136 134 133 125 118 108 105 105 102 98 93 87 83 78 73 70 66
48 47 47 47 50 55 59 62 66 69 72 74 76 81 87 93 98 103 106 110 117 121 124 128 133 137 138 136 130 122 115 107 104 102 100 94 88 84 80 76 72 69 65 62
52 49 51 54 61 64 66 68 73 76 74 80 86 91 96 99 102 109 114 119 124 126 130 138 136 137 133 124 117 111 104 103 103 101 94 88 83 79 74 70 66 63 60 59
56 57 58 60 66 70 72 76 78 80 84 87 94 97 101 107 113 116 119 127 130 134 138 136 133 133 121 113 107 103 102 102 99 93 88 84 80 74 70 66 63 60 57 53
63 65 64 65 72 75 79 81 85 88 92 96 103 109 112 117 118 121 129 134 136 135 131 127 122 113 107 105 105 103 100 96 92 86 83 79 74 71 67 62 59 55 53 50
70 70 71 74 79 80 85 88 92 96 103 106 110 114 116 118 124 130 132 133 129 125 120 113 106 103 104 103 103 101 96 91 86 83 78 74 71 67 63 60 55 52 50 48
75 77 79 80 84 86 89 95 100 105 107 115 115 118 125 127 129 129 130 122 119 112 105 101 101 101 101 101 100 95 88 85 82 79 74 70 66 62 59 57 56 49 47 46

GFSCGP_250_spd_018.txt.gz
Wind_Speed
15 14 16 16 17 16 15 15 16 16 15 15 18 20 22 25 28 30 33 35 35 33 34 34 37 39 40 39 39 39 43 46 43 44 48 51 52 54 56 60 63 66 68 70
17 19 16 16 18 16 16 14 15 15 15 20 21 23 28 29 28 30 31 29 29 31 34 37 39 40 40 41 43 46 45 44 46 51 53 55 58 60 64 68 70 71 72 72
18 16 15 16 16 16 16 13 13 15 16 18 22 21 22 24 27 28 25 27 28 30 36 39 44 45 47 46 41 42 46 50 52 53 56 60 64 67 69 71 72 72 73 76
17 18 18 17 18 19 19 17 17 19 21 20 21 22 25 27 26 25 25 24 28 36 40 44 46 41 39 41 45 48 50 51 54 58 60 62 65 68 70 70 72 76 80 83
17 20 21 22 23 21 21 21 22 23 23 24 25 27 29 25 24 23 24 29 35 40 42 41 37 43 44 47 47 48 52 56 57 61 64 68 72 73 73 76 79 83 87 88
18 21 22 26 26 24 22 23 24 25 26 25 25 25 25 25 26 26 27 35 41 41 39 41 44 46 47 48 51 54 58 61 65 69 72 77 78 79 81 87 90 92 95 97
15 20 23 22 24 28 28 24 25 26 27 27 27 27 27 28 29 30 34 42 41 38 42 46 46 47 49 52 56 61 64 67 71 77 81 82 84 87 90 93 97 100 102 106
12 14 15 19 20 23 27 28 28 28 28 28 30 29 30 32 33 37 41 42 41 43 46 44 46 51 54 58 61 64 67 72 75 78 80 84 87 90 94 97 101 106 112 118
11 12 12 13 16 17 18 23 27 30 29 28 27 29 31 32 35 39 41 41 44 48 47 49 54 56 58 61 65 68 72 75 79 83 87 92 95 99 103 106 108 113 120 125
10 12 12 13 11 10 13 17 21 24 25 27 32 34 37 36 34 38 41 45 46 46 48 54 59 59 63 66 68 73 77 84 88 93 96 99 102 107 109 112 116 122 128 132
7 9 13 13 12 11 12 12 15 20 24 27 33 42 32 32 35 40 44 44 47 51 55 58 61 65 69 71 76 83 88 92 95 99 102 105 109 113 117 121 125 130 135 135
13 14 15 16 17 18 20 20 21 22 24 29 31 38 37 35 40 43 45 48 53 57 60 65 68 72 75 80 85 91 95 99 103 107 110 112 115 121 125 130 135 137 134 131
20 22 20 21 23 23 22 24 24 24 26 29 33 38 42 43 48 47 50 54 60 63 67 72 75 78 82 86 91 95 99 104 108 113 115 119 123 129 133 139 139 135 129 122
24 26 26 24 26 26 26 26 25 26 28 30 37 39 43 45 47 52 56 61 65 68 71 75 79 84 88 93 98 101 106 110 114 118 121 125 133 137 139 137 131 123 116 109
27 29 32 32 32 34 32 30 30 32 34 35 38 42 43 48 53 57 63 67 70 74 77 81 86 92 95 100 104 107 113 119 122 125 130 135 140 135 131 123 115 108 104 103
29 31 36 39 35 35 34 31 35 37 37 38 41 45 51 53 57 62 67 70 72 74 81 88 93 96 101 106 109 115 121 127 132 136 139 134 129 123 114 106 103 102 100 96
35 37 37 40 39 42 39 40 42 42 43 44 47 52 57 59 64 69 71 75 79 85 89 94 97 101 107 111 118 125 130 136 138 132 125 121 114 104 101 100 98 95 90 84
40 40 39 38 38 45 40 41 42 46 49 51 56 59 62 66 71 75 75 81 86 92 97 101 105 111 117 122 124 133 135 132 124 118 113 105 100 99 98 95 92 86 82 78
44 43 39 39 38 46 44 45 47 48 56 60 62 66 70 75 78 83 85 89 95 100 106 110 115 117 123 131 133 133 125 117 110 104 99 97 97 95 92 88 83 79 76 72
46 42 41 41 44 44 43 47 50 53 58 62 68 72 76 79 80 85 91 97 103 108 111 113 121 128 131 132 128 116 110 104 101 99 97 96 94 90 84 80 77 73 70 67
48 45 46 45 42 46 48 52 55 59 63 68 72 75 79 84 89 92 97 104 110 112 118 125 126 127 129 119 111 107 105 102 100 98 97 94 89 83 80 76 71 67 64 62
48 48 49 48 52 52 55 59 62 65 69 73 75 80 84 90 95 102 106 110 116 121 125 126 124 121 114 110 107 106 103 101 100 98 93 88 83 78 75 71 67 62 61 60
52 53 54 54 61 59 62 66 69 71 75 79 83 86 94 100 102 104 112 118 125 129 126 121 116 110 108 107 105 102 102 99 96 92 87 82 78 74 71 66 62 60 59 56
58 59 57 58 64 66 69 71 76 79 84 85 91 98 104 105 109 115 122 126 124 123 116 111 107 106 107 106 104 101 99 95 90 85 81 76 73 69 66 62 59 58 55 52
65 63 63 65 69 71 75 79 85 87 89 94 100 105 108 111 116 121 125 122 119 113 108 106 107 106 104 102 100 96 93 87 83 80 76 74 69 66 63 60 59 54 50 49
67 67 67 69 73 77 81 84 87 91 95 100 105 110 114 119 121 123 122 119 116 108 104 106 106 104 102 99 94 91 86 82 78 75 72 69 66 64 61 59 55 52 47 46

GFSCGP_250_spd_021.txt.gz
Wind_Speed
16 17 18 17 15 16 17 18 16 17 17 19 19 19 21 22 24 26 29 33 35 35 35 34 34 35 37 41 45 45 46 44 41 42 47 50 49 51 54 58 61 62 64 67
15 15 15 16 16 17 17 17 16 17 17 18 20 22 25 28 29 31 33 32 34 32 31 32 34 38 42 47 44 40 41 45 48 50 50 52 55 59 63 66 69 69 73 75
16 16 17 18 18 18 18 18 20 19 20 23 25 25 29 30 30 29 30 33 30 30 30 33 38 41 45 41 41 45 47 49 50 52 54 58 61 64 66 70 72 75 77 76
17 19 22 22 22 21 21 23 24 24 24 23 25 27 31 30 32 31 32 30 30 31 32 37 41 43 41 43 47 50 50 51 53 57 60 63 65 68 71 70 72 76 79 82
13 17 21 23 24 25 25 26 27 27 27 28 28 32 23 32 33 31 30 31 32 35 37 42 46 44 45 50 51 51 52 56 59 62 66 68 68 74 73 79 81 86 88 90
14 16 18 21 24 27 29 29 30 31 34 33 31 35 24 31 29 30 33 35 37 39 43 47 50 47 49 53 52 53 58 62 63 67 69 72 73 78 80 85 91 94 98 101
11 12 13 14 18 23 26 30 32 33 31 32 33 35 30 32 32 33 34 37 40 43 47 49 49 49 53 53 55 61 65 67 68 72 74 78 83 86 92 95 99 102 104 109
5 8 10 11 12 15 19 21 27 32 34 34 36 36 34 32 33 35 37 41 43 47 48 49 50 53 53 56 60 65 68 72 74 77 81 86 91 95 98 102 105 109 112 116
6 6 8 9 9 11 15 16 17 20 26 32 37 38 33 36 37 39 42 46 44 45 49 51 52 53 59 63 67 72 75 79 82 86 89 93 98 102 105 109 113 118 123 128
4 7 10 12 12 11 12 12 15 18 21 25 29 35 30 36 36 37 39 42 43 47 51 54 56 61 67 71 74 77 78 83 88 93 97 101 103 109 113 116 120 125 130 134
8 10 13 15 15 16 17 18 20 20 22 23 28 35 33 33 35 39 42 46 49 55 58 58 61 68 72 76 78 81 84 89 95 99 103 106 111 116 121 128 132 135 139 140
11 13 15 18 20 20 20 22 23 26 29 32 33 39 37 38 37 42 46 50 54 55 59 63 67 70 73 76 80 85 90 97 102 105 108 113 120 125 131 136 137 139 139 138
16 18 20 22 24 26 26 25 26 27 29 32 34 39 37 41 44 48 49 53 54 58 61 67 71 76 80 84 87 92 98 103 108 114 119 124 130 134 135 136 136 133 125 119
21 24 25 27 28 27 27 29 32 33 35 34 38 38 44 45 45 49 52 55 60 63 68 73 76 80 84 88 93 99 104 110 115 121 127 132 134 132 130 127 121 119 114 110
24 26 29 31 34 37 34 33 35 36 38 37 43 45 46 46 50 52 54 59 64 68 73 78 82 86 91 95 102 108 115 121 126 132 134 135 128 123 119 118 114 112 108 106
27 30 34 39 39 42 43 41 39 39 39 40 43 46 49 49 52 57 59 66 70 74 77 82 86 91 96 102 109 116 124 132 137 137 130 121 116 113 113 112 108 106 106 103
33 34 35 39 42 47 44 42 42 41 41 45 46 47 49 53 57 62 65 72 74 77 82 87 95 101 107 112 120 122 130 136 128 121 114 110 110 110 109 107 106 104 99 94
40 39 40 42 43 49 44 43 45 48 44 44 45 48 53 58 63 68 71 75 78 83 88 96 103 109 114 121 126 129 132 126 120 115 107 108 108 106 104 103 100 95 89 84
44 44 44 46 45 47 46 45 45 43 45 49 51 54 59 63 68 75 76 81 85 90 98 104 111 115 122 128 131 131 127 121 116 112 111 109 105 104 101 95 89 84 80 76
49 49 50 47 49 47 46 42 47 46 49 53 58 63 66 69 72 78 85 88 93 101 106 109 115 122 126 131 130 126 119 115 111 107 105 105 102 97 95 87 81 77 73 69
51 53 53 53 52 51 48 50 52 54 56 58 64 69 73 78 81 82 88 95 100 105 111 116 123 127 132 130 124 118 112 112 109 107 103 100 96 89 84 79 73 70 66 64
54 56 57 58 60 55 52 53 54 59 61 65 69 74 78 80 85 91 97 101 108 114 121 127 130 131 128 124 119 114 111 110 106 103 99 95 91 83 76 71 68 65 63 62
60 61 62 63 65 61 59 59 61 63 67 72 75 77 82 88 94 100 106 110 118 124 127 128 128 128 126 120 116 111 107 105 102 97 93 87 81 76 70 66 65 63 62 59
69 65 67 66 67 65 64 67 67 70 75 78 82 87 92 96 101 107 112 120 123 124 126 128 129 126 121 116 111 105 102 100 94 88 83 79 73 69 66 64 62 59 58 54
75 73 71 67 67 66 68 71 73 78 80 84 90 95 101 104 110 115 117 122 124 128 129 129 129 122 115 111 106 102 97 90 85 80 76 71 68 65 64 61 59 56 52 50
76 72 69 69 68 71 72 76 80 84 89 93 98 102 106 110 114 119 124 127 130 130 130 129 126 118 109 104 98 93 87 82 77 73 70 67 64 62 61 58 55 53 50 47

GFSCGP_250_spd_024.txt.gz
Wind_Speed
27 28 29 32 32 31 30 33 33 34 34 32 31 29 25 26 25 24 24 28 31 28 33 35 38 34 35 36 41 45 44 44 45 50 51 53 51 51 55 57 58 61 60 64
19 20 21 22 22 23 22 23 23 25 26 28 26 23 24 24 24 27 29 33 32 33 35 38 35 35 36 39 43 44 46 47 52 55 55 55 55 59 62 62 62 65 64 66
16 17 18 19 21 21 22 23 23 25 26 27 28 27 26 26 29 28 32 35 35 36 38 39 39 39 39 43 46 50 51 51 56 57 56 59 63 67 68 69 71 72 73 76
13 15 17 19 20 21 21 22 23 26 27 26 31 29 25 30 31 31 35 36 37 39 41 40 41 43 45 49 53 56 55 55 59 62 64 66 68 71 73 74 76 78 81 85
11 13 15 18 21 22 23 24 27 27 28 28 31 36 26 28 33 38 35 38 39 40 39 40 42 46 50 54 58 59 56 60 62 66 68 70 73 77 78 81 83 88 92 96
11 13 15 17 20 23 25 27 28 29 30 32 35 39 29 31 31 34 38 39 39 41 42 43 45 46 51 58 59 59 63 65 66 68 73 77 81 84 87 90 93 96 100 104
8 7 8 9 12 15 21 24 24 28 30 35 38 42 30 38 35 28 33 39 40 40 42 44 49 53 52 53 58 63 66 69 72 74 77 79 84 87 90 94 99 103 108 112
0 2 4 5 6 7 8 11 15 19 23 26 36 39 30 34 37 35 33 34 40 43 47 50 52 51 54 58 62 63 67 71 74 77 82 85 87 92 95 102 107 112 116 120
5 5 7 9 10 11 12 12 13 14 15 19 25 24 27 30 35 38 38 41 41 44 47 49 51 55 61 63 63 66 69 75 79 83 88 93 97 103 105 110 116 121 128 132
3 5 7 9 12 14 16 18 19 22 23 26 27 27 25 27 31 35 40 41 46 45 48 52 57 59 60 63 67 71 77 83 86 88 92 97 100 105 112 120 127 132 132 134
5 8 10 12 14 17 19 21 23 24 25 27 31 37 32 35 34 38 39 42 46 50 51 55 58 61 65 70 75 79 81 84 89 93 99 105 111 117 125 129 132 131 132 134
9 11 13 15 18 19 20 21 23 28 31 31 34 42 38 41 41 42 45 46 51 51 53 56 61 63 67 72 76 81 85 89 94 100 107 114 121 128 134 132 131 130 130 124
14 16 18 20 23 27 29 30 32 34 36 39 39 41 42 43 43 47 49 49 51 53 56 61 66 71 76 81 86 89 93 99 103 110 118 123 129 132 135 134 133 125 120 119
18 20 22 22 23 27 30 32 34 34 37 42 42 41 45 48 46 48 49 53 54 57 62 68 73 78 81 86 90 95 101 106 113 120 126 131 134 134 134 124 117 115 113 112
19 22 24 26 29 31 36 36 38 39 41 38 43 41 42 45 48 51 50 54 57 62 66 71 77 83 87 91 96 102 107 115 122 129 132 136 131 129 124 114 111 110 109 109
23 26 29 32 34 36 38 41 42 43 44 44 43 45 47 48 48 50 52 57 63 68 73 78 82 85 91 96 103 109 114 122 130 131 131 130 127 124 117 112 109 108 106 104
29 32 35 39 40 41 41 44 46 47 47 45 47 48 47 45 50 53 56 64 68 72 77 82 86 92 97 105 111 118 123 131 135 133 130 127 114 117 112 106 105 104 99 95
36 37 40 43 45 48 43 46 45 48 49 48 47 47 47 50 55 58 61 67 73 79 83 87 92 98 104 110 116 123 131 136 135 132 128 124 113 100 105 100 98 97 90 85
43 46 47 48 48 48 48 46 52 51 56 51 53 53 52 56 58 65 68 73 77 83 89 95 102 107 111 116 125 129 133 134 133 127 123 120 109 104 99 93 87 87 82 78
50 50 51 51 50 50 53 50 52 55 57 55 56 58 59 61 64 71 76 81 87 92 98 104 109 114 121 128 130 134 136 134 129 122 118 109 107 103 95 90 83 78 75 72
51 51 53 52 53 55 56 58 61 62 61 59 60 60 64 67 72 76 82 87 92 98 104 109 115 121 127 131 134 136 138 130 126 118 110 105 101 96 91 84 78 73 70 67
59 59 58 58 60 59 60 63 64 67 65 63 64 66 68 73 78 83 89 94 98 103 110 116 119 127 130 134 136 138 134 124 116 108 104 99 94 88 83 77 73 69 65 63
66 66 63 62 66 67 65 66 68 67 65 64 66 70 74 80 85 90 94 98 104 111 115 120 126 130 133 136 139 136 125 115 106 100 95 89 84 80 73 71 68 65 62 59
65 67 64 60 66 67 68 71 70 68 68 69 73 78 83 86 91 94 99 105 112 115 120 127 128 131 135 138 135 128 117 105 98 92 85 80 76 72 69 66 64 61 58 55
69 68 67 65 68 70 69 70 71 70 71 75 80 85 88 91 94 100 106 111 115 119 127 129 130 132 137 135 129 119 107 98 92 85 79 75 71 69 65 62 61 57 54 52
70 69 68 68 68 70 70 72 73 74 77 80 85 89 91 95 100 106 110 115 120 126 131 130 131 136 137 133 121 108 99 92 85 80 75 71 68 65 62 60 57 55 53 51

GFSCGP_250_spd_027.txt.gz
Wind_Speed
31 32 32 32 33 34 35 35 32 39 38 41 41 38 38 40 37 40 34 32 27 30 33 33 35 38 40 34 35 36 36 37 42 48 54 56 58 61 64 64 63 63 64 67
22 23 22 24 27 28 28 27 29 32 32 33 35 31 34 35 33 33 33 34 32 34 35 36 36 36 39 41 40 42 45 48 51 56 59 60 63 65 68 67 67 68 71 74
19 19 20 20 20 19 22 25 24 28 28 29 32 28 29 34 34 32 31 33 34 36 38 41 38 39 40 44 47 49 51 55 58 61 63 64 66 69 69 71 74 76 77 79
13 13 13 15 15 15 23 17 22 23 27 26 32 29 28 32 36 31 34 34 37 36 40 46 44 42 43 47 51 52 53 57 62 65 64 66 69 69 73 74 78 81 85 87
10 12 14 15 16 17 20 20 21 24 26 26 34 32 25 27 30 32 40 34 36 39 41 41 42 44 47 50 53 55 58 61 61 62 68 71 71 73 77 81 85 87 90 94
11 12 12 13 13 15 17 20 23 23 25 29 33 35 30 27 27 31 38 40 42 43 40 38 41 44 48 53 57 62 63 62 63 65 67 69 74 78 83 88 90 94 98 103
8 8 7 6 7 9 11 13 16 18 21 24 28 30 29 25 24 27 32 34 38 42 40 39 42 45 49 54 57 59 64 67 69 71 74 76 78 83 87 92 96 100 104 111
4 5 5 5 5 5 5 6 7 9 14 20 22 25 29 27 24 21 26 30 36 39 42 40 43 47 50 52 53 57 61 65 69 73 79 85 89 93 97 102 106 110 115 118
9 7 5 4 5 7 9 11 13 16 19 22 18 21 22 29 31 30 29 32 38 43 44 44 47 50 53 56 56 59 65 70 74 80 85 89 94 98 103 109 114 120 122 127
4 2 2 4 7 10 13 15 17 19 23 28 28 25 27 31 35 36 36 37 40 45 44 48 51 54 56 58 61 65 69 75 80 86 91 95 99 104 109 114 120 124 128 133
3 3 4 7 10 13 14 17 19 20 22 26 35 34 32 35 35 38 39 41 43 47 49 50 52 54 57 61 66 72 75 80 86 91 96 101 105 109 116 123 130 130 131 131
8 9 10 12 14 15 16 18 22 27 28 30 33 42 38 38 41 40 40 44 44 48 51 55 57 58 60 66 71 76 80 85 90 95 102 109 114 118 123 132 133 129 125 121
11 11 14 16 19 20 20 24 27 31 37 38 36 40 40 39 42 40 47 47 48 50 52 54 56 60 65 71 77 82 87 92 97 101 108 115 122 124 127 124 129 125 122 124
15 15 15 15 18 21 25 28 31 32 34 39 42 43 43 42 43 48 49 52 53 50 51 57 61 65 72 77 82 88 93 98 104 110 116 122 124 125 119 123 122 122 121 123
16 17 18 20 23 26 30 33 36 38 40 41 44 43 42 53 51 48 49 52 54 56 60 63 66 70 76 81 87 93 99 106 112 118 123 128 128 124 124 118 116 108 101 104
20 23 25 27 31 34 37 38 41 43 44 44 47 50 47 49 51 52 54 55 56 59 62 66 71 77 83 87 93 100 106 114 120 123 128 130 124 129 129 117 109 103 94 93
25 28 31 35 38 41 44 47 48 49 48 48 48 50 53 56 54 55 57 57 59 61 66 71 77 83 88 94 98 104 111 119 125 131 132 130 129 129 122 113 108 101 95 91
31 33 36 41 44 45 45 47 51 51 52 55 56 54 56 59 60 58 58 59 63 67 72 77 84 90 95 100 106 111 117 123 131 135 134 129 127 121 111 106 102 95 89 86
36 38 40 42 43 48 50 50 54 56 58 62 64 64 62 62 63 59 59 61 65 70 77 84 89 94 100 107 111 115 122 130 135 136 130 127 125 120 111 103 97 89 83 79
34 38 43 47 50 53 57 58 59 60 62 64 66 67 68 66 63 64 65 69 74 80 85 89 93 100 106 112 118 122 130 136 137 133 131 130 118 108 102 94 88 82 78 75
43 48 51 53 56 58 60 56 58 60 61 64 66 68 69 67 64 64 68 74 79 84 89 94 99 106 111 118 123 130 135 140 134 129 128 116 108 101 94 86 80 77 74 70
53 57 59 60 61 59 59 60 61 63 63 65 66 67 65 64 66 69 74 79 85 90 95 100 104 110 117 123 129 134 136 135 130 129 114 106 102 94 86 80 76 72 69 65
58 63 65 68 69 65 64 62 64 66 67 66 66 66 66 69 72 77 81 88 92 97 101 105 110 117 121 127 134 136 134 130 128 116 107 100 95 86 79 75 71 68 65 62
64 69 70 69 72 71 68 65 66 69 67 66 68 70 72 76 81 85 91 95 100 103 106 111 117 123 125 133 136 135 133 129 120 108 101 95 87 80 76 71 68 65 61 59
70 74 74 74 80 79 73 69 70 70 69 70 73 76 79 83 88 94 98 102 106 109 113 119 123 128 131 133 132 130 130 123 110 101 95 88 80 76 72 68 65 61 57 55
72 77 78 79 80 75 72 73 74 73 73 75 79 82 87 92 97 101 105 108 112 116 120 122 127 129 126 129 129 127 121 111 101 94 88 81 76 71 68 65 61 57 55 53

GFSCGP_250_spd_033.txt.gz
Wind_Speed
30 29 27 27 30 33 34 38 47 61 60 59 56 58 58 56 58 53 54 48 46 45 45 44 45 46 47 48 37 38 43 54 54 62 68 69 70 68 66 67 68 70 72 73
26 27 26 26 30 33 34 35 34 34 35 38 42 43 42 39 36 40 43 43 43 43 40 40 44 48 48 45 50 51 52 57 59 62 64 65 65 64 66 68 70 72 74 75
24 23 23 23 25 25 26 26 26 25 25 28 29 32 33 34 33 35 38 39 38 35 34 36 42 44 48 50 51 50 52 55 57 59 63 65 66 66 67 71 73 75 77 78
19 16 17 18 20 21 23 24 26 25 25 26 25 26 27 27 29 32 36 37 35 36 37 40 43 46 49 50 49 51 52 53 57 60 61 63 65 66 68 71 74 77 79 82
16 17 20 21 22 22 24 23 24 25 26 23 23 21 25 28 32 34 36 39 39 41 43 46 49 49 50 48 46 50 52 54 56 60 63 64 67 70 73 77 79 82 85 89
17 18 19 19 19 20 21 21 21 21 20 17 15 17 23 24 26 28 29 32 33 33 36 40 44 45 44 41 44 51 54 57 59 60 62 67 71 73 76 79 82 85 90 95
17 17 17 16 14 13 12 11 9 5 3 3 5 6 9 12 16 20 24 29 32 34 36 38 42 44 45 45 48 52 55 58 61 64 67 70 73 76 79 82 86 90 95 101
13 13 11 10 9 7 6 5 3 1 4 7 8 10 12 14 19 24 28 31 34 39 42 45 48 50 51 51 53 56 58 61 64 67 71 73 76 79 83 86 91 97 102 107
10 10 12 10 8 7 5 4 3 5 8 10 13 17 19 20 26 28 31 34 35 37 40 45 48 51 52 53 56 58 60 63 66 69 71 73 78 83 87 90 96 103 108 113
15 14 12 10 7 4 4 5 9 11 13 15 17 19 21 23 28 30 30 33 35 38 40 41 43 45 49 53 56 58 60 62 64 67 71 76 81 86 90 95 101 110 114 120
14 12 10 6 5 7 9 12 14 16 18 18 21 24 28 31 34 35 38 40 41 42 43 46 49 51 52 54 56 59 62 64 67 70 74 79 85 89 96 102 109 116 121 123
13 12 9 9 11 13 14 15 17 19 21 25 26 28 32 35 37 40 41 42 44 46 48 50 52 53 54 57 59 61 64 67 69 73 79 85 90 95 103 109 114 120 125 128
12 11 12 13 16 17 18 17 19 22 27 29 32 33 36 38 41 44 47 48 49 51 52 53 55 56 58 60 61 62 65 68 73 79 85 91 99 105 110 116 122 128 127 123
13 15 16 17 18 18 18 21 23 27 30 32 34 37 41 45 48 51 51 51 52 54 55 56 57 58 59 60 61 63 67 72 79 86 93 101 108 113 118 123 130 125 120 117
16 18 19 21 21 21 22 24 27 30 31 34 39 44 46 50 53 56 57 58 57 57 58 60 59 59 59 61 64 69 75 81 88 95 101 109 114 119 123 129 122 120 117 110
18 20 22 23 23 25 27 29 29 31 35 38 42 47 51 54 56 59 63 60 58 58 60 61 60 60 63 67 73 77 84 90 98 102 109 114 119 125 128 122 120 116 113 110
20 21 23 26 25 27 31 31 31 37 42 44 48 52 55 58 60 64 66 61 59 60 61 62 64 66 70 76 81 87 93 99 104 109 113 118 125 125 122 125 125 117 110 108
22 24 26 27 28 28 30 35 38 43 49 51 55 58 61 60 64 67 65 60 58 61 64 68 71 74 78 82 88 94 100 105 110 114 119 125 129 130 127 126 119 114 110 101
27 27 26 27 29 28 38 42 45 49 52 56 61 63 63 64 66 68 66 61 62 65 69 72 75 80 84 90 96 101 107 112 116 119 127 129 127 123 124 120 117 113 103 94
24 25 26 30 33 37 43 48 51 53 56 62 63 65 67 70 72 71 69 66 69 72 76 79 82 86 92 97 102 108 113 119 123 126 126 124 122 124 121 117 112 104 95 88
26 29 32 35 36 39 49 53 55 58 62 64 66 68 71 73 73 71 70 71 75 79 83 85 89 94 97 102 108 113 119 124 126 125 126 125 125 126 117 114 105 96 88 83
35 35 37 39 43 45 54 55 58 64 65 66 69 72 76 77 76 75 77 78 82 85 87 91 96 100 104 109 114 121 124 126 124 125 126 125 128 122 115 108 98 90 83 77
39 42 43 46 50 54 57 60 65 67 68 69 72 75 79 80 79 80 81 83 86 89 93 98 102 106 110 116 120 127 123 123 123 126 128 127 121 115 108 98 90 83 78 71
45 48 48 53 59 64 65 69 70 68 70 72 77 78 82 82 82 82 83 85 89 94 100 104 109 113 117 122 127 124 124 126 125 128 126 118 114 108 99 91 84 78 72 66
52 57 59 59 65 67 72 73 73 73 74 77 80 83 84 82 83 84 87 90 95 101 105 109 114 121 123 126 127 124 127 126 124 126 119 115 108 99 91 84 78 72 67 63
66 65 65 66 71 73 76 78 77 77 78 82 84 86 84 85 87 90 93 96 101 106 110 116 120 124 129 128 128 127 126 122 123 123 117 108 99 90 83 78 73 68 64 60

GFSCGP_250_spd_036.txt.gz
Wind_Speed
26 26 27 31 33 34 34 34 39 42 45 49 49 51 49 60 64 63 61 67 61 50 50 52 47 47 48 46 44 35 29 40 54 62 69 74 78 80 78 79 80 79 78 76
21 23 25 25 26 27 28 28 28 32 37 42 41 41 47 50 45 46 42 44 45 44 41 40 39 39 35 28 32 36 41 46 55 63 73 76 74 79 78 78 77 77 77 76
22 23 24 24 24 25 24 23 24 26 26 27 30 32 34 35 37 38 40 41 37 34 33 35 38 40 44 47 49 52 54 55 57 63 68 71 73 74 75 76 76 77 78 79
20 21 22 23 22 21 20 20 20 21 22 24 26 29 30 32 34 35 36 37 37 36 34 38 41 45 50 52 54 55 57 58 61 66 68 69 70 71 72 74 77 79 81 82
15 17 18 18 18 18 20 21 21 21 21 21 23 24 31 31 32 32 32 33 36 37 36 35 36 37 38 40 42 45 46 48 55 60 62 66 69 71 73 76 77 77 80 81
16 16 17 16 17 17 17 17 17 17 18 20 23 26 30 27 27 28 27 25 25 27 31 32 34 36 40 42 44 47 50 54 58 61 64 67 69 72 74 77 79 80 81 85
16 17 17 17 17 18 18 18 16 14 13 12 12 12 15 15 17 20 23 26 29 32 34 37 40 41 43 48 49 51 52 55 57 60 63 66 69 72 74 76 79 82 86 90
15 16 16 17 17 16 13 11 11 11 9 9 9 11 14 17 19 23 27 30 33 36 38 41 43 45 46 48 51 53 56 58 59 61 64 67 70 73 76 79 82 85 89 94
15 17 18 15 14 11 11 10 8 6 5 6 9 13 15 18 22 25 28 33 37 40 42 44 47 49 51 52 54 56 58 60 62 65 69 71 73 75 78 81 85 89 95 101
15 15 13 12 11 11 9 7 6 6 9 11 14 16 19 22 25 29 31 35 39 42 45 48 50 52 55 57 59 61 62 63 65 68 70 71 72 74 78 82 89 96 103 108
13 12 12 10 10 8 7 6 9 11 13 15 18 19 22 26 29 33 35 38 41 43 47 50 53 56 57 59 60 61 61 62 64 66 67 69 73 78 84 90 98 104 106 109
15 14 11 9 8 7 9 12 15 16 17 19 20 24 27 29 31 35 38 41 45 47 48 50 51 52 54 54 56 58 59 60 62 64 69 74 79 86 92 98 103 107 107 114
14 13 11 9 9 11 14 17 20 21 21 22 25 28 31 32 35 39 43 45 46 48 52 52 51 50 51 52 53 55 57 60 64 69 75 81 88 95 101 106 113 114 115 117
14 12 10 11 13 16 18 20 21 23 24 28 29 31 33 38 41 44 46 49 51 53 55 53 50 48 50 53 56 58 62 66 73 80 85 91 99 103 108 115 116 118 120 121
13 13 13 15 16 18 21 24 25 27 29 31 32 35 39 42 47 50 51 52 55 59 59 54 51 51 53 56 60 64 68 75 82 88 94 100 106 109 116 118 120 122 122 121
17 18 18 19 20 22 25 27 28 30 31 31 36 41 44 49 54 56 57 56 61 61 60 58 54 55 59 64 68 73 79 86 91 96 102 107 111 118 121 122 122 123 121 119
20 20 21 24 23 24 30 30 31 30 31 36 41 44 48 53 58 60 61 62 65 67 65 63 63 65 69 73 77 82 89 94 98 103 109 113 117 121 124 123 125 122 118 118
24 23 25 28 28 25 33 35 31 31 38 43 45 50 52 59 61 63 65 67 69 71 71 71 70 72 76 80 84 89 94 100 105 109 113 118 122 123 125 125 122 121 117 112
28 28 29 29 31 28 35 36 36 38 42 49 52 54 57 64 67 68 68 71 73 75 77 75 75 78 81 85 89 94 101 106 111 114 119 123 124 124 123 122 121 117 113 105
31 32 31 33 31 29 36 40 40 41 44 53 58 61 64 69 70 73 73 75 77 79 81 80 81 83 86 91 95 101 107 112 116 120 123 125 124 125 122 120 118 110 106 100
32 33 34 34 32 34 41 43 44 46 51 57 62 64 70 71 73 75 76 78 81 83 83 83 85 88 91 96 102 106 112 117 120 125 123 122 122 122 123 119 111 107 102 95
35 34 38 41 42 40 45 47 50 53 59 63 66 71 74 77 79 77 77 81 84 86 86 87 90 94 98 102 107 112 118 122 123 123 121 120 122 120 119 115 111 102 97 91
39 41 43 48 49 48 47 50 54 62 66 68 72 75 79 80 78 78 80 83 88 89 89 91 95 98 103 108 113 119 122 121 120 119 120 121 120 120 115 114 104 98 92 85
47 49 51 52 54 54 52 59 64 68 70 74 77 80 81 82 81 82 85 89 92 92 93 96 99 104 111 116 120 123 120 120 118 120 121 121 121 117 113 105 100 93 86 78
52 55 54 52 55 57 64 69 71 73 75 77 81 83 85 83 83 87 91 93 92 94 97 101 106 112 117 122 124 123 119 119 118 122 121 120 117 112 106 100 93 87 80 73
54 52 52 55 64 66 70 73 75 77 80 84 86 86 85 87 89 93 94 93 95 98 103 108 113 118 124 126 124 120 120 119 119 117 115 116 112 108 101 93 87 80 73 69

GFSCGP_250_spd_039.txt.gz
Wind_Speed
25 21 21 21 27 27 29 28 29 31 32 35 39 52 42 48 46 50 53 56 56 58 61 56 50 50 52 50 49 46 43 38 43 54 60 58 71 71 75 75 83 89 91 92
25 27 25 26 25 25 26 30 32 33 33 32 33 35 35 34 35 43 47 48 46 42 39 41 46 45 44 45 45 45 42 43 43 47 53 58 66 76 78 86 85 89 91 90
25 25 25 26 27 27 28 27 28 28 28 28 29 30 30 32 33 37 40 38 36 35 34 35 38 41 41 43 43 44 47 50 55 57 57 61 63 72 73 75 79 81 81 81
20 21 22 23 23 23 24 24 24 25 26 26 26 29 31 32 32 32 32 31 30 31 32 32 32 31 32 33 35 38 41 45 48 50 53 57 62 64 67 70 73 75 78 81
20 21 22 21 20 20 21 23 24 23 23 25 27 27 30 28 26 26 26 28 28 24 24 25 28 32 35 38 41 44 47 49 51 53 55 58 60 62 64 66 69 72 75 78
20 18 15 17 18 20 20 20 19 21 24 26 24 24 23 22 22 20 17 16 19 22 26 29 32 35 38 41 44 47 50 52 54 56 58 60 62 65 67 69 71 73 77 79
17 17 17 17 17 17 17 18 20 21 18 17 18 16 12 9 10 13 15 18 21 24 28 32 36 40 43 46 49 51 54 57 59 61 63 65 66 67 69 71 73 74 74 76
16 14 12 12 11 11 11 12 13 13 11 9 8 7 8 10 13 16 18 21 25 29 32 35 38 42 45 48 51 54 56 58 60 62 63 64 65 65 66 68 69 72 77 82
13 12 13 12 11 13 13 15 14 12 9 7 8 10 12 14 16 19 23 27 30 32 35 37 41 44 46 49 51 53 55 56 57 59 60 60 61 61 64 69 74 79 84 90
12 13 13 11 13 14 15 14 12 9 8 9 11 12 14 16 19 22 26 29 32 34 38 41 44 46 49 51 52 54 55 54 55 56 57 59 62 65 69 74 80 82 91 94
12 11 12 14 15 15 11 8 6 6 7 11 13 15 17 20 23 26 28 32 35 39 42 45 48 50 53 54 54 54 53 52 53 56 59 61 64 71 77 81 87 94 97 102
12 14 15 15 15 13 9 6 6 8 10 13 16 18 21 24 25 28 31 33 39 41 45 46 49 52 53 53 52 54 55 55 56 59 61 66 74 79 86 92 100 101 102 106
16 16 14 14 12 8 6 8 10 12 14 15 19 22 23 25 27 31 34 38 40 45 48 48 51 53 56 56 54 54 56 59 63 67 70 77 83 88 95 100 104 108 107 109
16 15 14 11 10 10 10 12 15 17 18 20 21 26 24 28 31 35 39 42 46 52 53 53 56 58 60 62 61 62 63 65 69 73 79 84 89 95 102 106 109 110 112 114
15 15 14 12 12 13 14 17 19 20 23 25 27 30 25 32 37 41 44 47 52 56 59 60 62 64 66 67 68 69 69 71 75 79 84 89 96 102 107 109 110 113 115 117
16 16 16 16 15 17 19 24 23 25 28 28 30 32 32 37 41 45 49 53 57 61 63 66 69 70 72 73 75 77 77 78 82 85 91 97 103 109 110 112 115 116 115 119
22 19 17 19 20 20 25 29 27 29 31 32 31 35 38 43 47 52 55 58 62 66 70 73 74 74 75 77 80 83 82 83 87 92 98 104 111 113 114 114 115 115 115 114
21 21 22 23 24 24 32 35 34 33 35 33 36 39 42 48 52 58 62 64 68 71 74 76 77 77 80 82 85 87 85 87 92 98 103 111 114 116 114 117 116 115 115 114
26 26 26 27 30 30 35 39 39 38 38 39 42 44 47 52 57 63 66 69 72 75 78 81 81 82 84 87 89 88 89 93 99 103 110 116 116 117 116 115 116 115 111 107
30 30 30 33 33 34 40 43 42 41 40 45 49 50 53 57 62 67 71 74 77 80 82 84 86 87 89 93 91 90 94 100 104 111 116 119 119 117 114 114 114 112 107 107
30 31 34 36 37 39 42 42 44 46 47 50 52 53 58 63 67 72 75 78 81 85 87 88 91 92 94 94 92 95 100 105 111 116 121 121 118 115 113 114 114 111 107 101
33 35 38 40 42 40 42 45 48 51 54 56 58 61 64 68 73 77 79 82 86 90 92 92 94 96 96 95 97 100 106 111 117 122 125 121 115 112 113 115 112 107 102 97
40 41 43 46 46 45 46 50 55 56 58 59 64 67 70 75 79 82 84 87 91 94 93 94 97 98 96 97 101 106 112 118 122 126 121 115 114 114 115 112 108 104 98 92
44 46 47 47 49 51 53 55 56 58 60 64 67 72 75 79 83 85 89 93 95 94 95 98 99 98 99 102 107 113 119 123 127 121 115 117 116 116 112 107 103 101 94 89
47 47 47 48 52 51 56 58 63 67 69 71 73 76 80 84 87 90 94 95 95 98 100 99 99 100 104 109 114 120 124 127 119 117 115 116 112 111 110 105 102 95 89 84
47 47 48 50 54 58 63 67 70 72 73 75 79 83 86 90 93 95 95 95 98 100 101 100 101 105 110 116 120 124 126 120 116 118 117 112 108 107 104 100 94 88 83 78

GFSCGP_250_spd_042.txt.gz
Wind_Speed
31 28 26 27 29 29 27 23 22 24 25 28 24 26 30 36 39 45 44 42 45 48 53 55 54 52 51 52 52 51 49 44 43 47 50 52 53 60 60 68 77 80 82 83
30 27 24 24 25 27 25 27 29 25 25 25 28 30 33 34 38 43 46 45 50 48 44 43 48 49 47 44 39 38 37 37 41 44 46 52 56 55 66 77 76 81 85 88
30 27 26 25 25 25 27 27 27 28 29 31 34 35 37 40 44 41 46 46 40 38 36 37 36 33 35 37 38 39 38 39 42 44 46 50 52 55 60 63 68 70 72 77
26 28 27 25 25 27 28 28 29 29 30 31 32 33 32 33 32 31 31 31 32 30 29 30 32 31 29 28 32 35 38 42 45 48 51 54 56 58 62 65 69 72 75 77
27 25 25 26 27 27 27 28 28 29 30 30 29 29 28 27 26 27 29 29 27 25 23 20 22 25 28 31 35 38 42 46 49 52 56 58 61 64 66 68 70 72 73 75
21 21 22 21 22 24 24 25 25 25 26 28 25 24 21 24 24 23 20 17 15 17 20 22 26 29 33 35 38 42 45 49 52 55 58 60 62 64 66 66 66 65 65 64
23 24 22 22 20 19 18 20 22 24 23 21 20 20 19 15 10 8 11 14 16 19 23 26 29 31 35 38 41 45 48 51 55 57 59 61 63 64 63 62 61 61 63 68
21 22 20 17 16 17 19 19 20 19 18 20 20 14 10 9 9 11 13 15 19 22 24 27 31 35 38 41 45 48 52 54 56 58 59 59 59 59 59 59 62 64 68 76
19 19 19 20 22 22 21 19 19 18 17 14 10 8 8 10 13 14 16 17 20 24 27 30 35 39 41 43 45 48 50 52 54 56 58 57 56 58 60 64 67 71 77 82
18 19 18 17 17 16 15 14 14 13 13 11 9 9 12 14 15 17 19 21 22 26 29 31 34 38 41 44 48 51 53 54 54 56 58 61 63 64 67 69 72 77 82 88
16 15 15 16 15 15 14 14 14 13 10 11 11 13 15 15 18 20 22 23 25 29 32 34 39 41 45 49 52 56 58 59 60 61 61 63 66 68 70 74 77 84 88 97
14 14 15 16 18 19 19 17 13 12 13 14 15 15 17 20 22 24 24 25 29 33 35 39 44 47 51 55 59 62 63 64 65 66 66 68 69 69 72 77 85 90 96 101
15 18 19 20 19 17 15 14 14 14 16 17 19 19 21 22 26 27 28 31 34 37 40 44 49 53 56 60 63 67 69 70 71 71 71 74 74 75 78 86 90 96 104 106
17 20 19 18 18 19 17 16 17 17 17 20 22 23 23 27 31 32 33 37 39 42 46 49 53 57 61 66 68 72 73 75 76 77 78 79 79 80 85 91 98 103 108 110
20 21 20 20 19 19 18 18 20 20 20 23 25 28 25 28 35 35 38 42 44 47 51 55 59 62 67 71 73 77 80 82 82 83 84 85 85 86 93 98 104 108 114 114
21 22 22 22 21 19 20 23 23 22 24 27 27 33 33 34 36 39 44 46 49 54 59 62 65 69 72 76 78 83 86 86 86 87 89 89 89 92 98 104 110 114 116 113
24 25 24 23 21 20 26 27 25 26 30 31 32 36 39 41 41 44 48 50 54 60 64 67 70 74 78 81 85 88 91 88 90 92 94 92 93 99 106 110 115 118 115 112
26 25 25 26 25 25 32 31 30 31 34 35 38 40 44 46 47 50 52 56 60 64 68 72 76 80 84 87 90 93 93 92 94 97 96 94 99 105 111 115 119 119 116 110
29 28 28 29 31 31 34 36 36 34 39 41 43 45 47 49 51 54 57 61 65 68 73 77 81 86 89 91 94 95 93 95 99 98 96 100 106 112 116 120 123 118 113 109
32 31 32 34 34 34 39 40 39 41 42 47 49 49 50 53 56 59 63 67 71 75 78 81 85 89 92 94 95 95 96 100 101 98 101 106 112 118 121 124 121 112 109 109
32 34 36 37 37 39 40 41 43 45 48 50 52 53 56 59 62 64 66 70 73 76 81 85 89 93 96 96 96 98 101 101 99 102 106 111 117 122 126 124 113 111 110 109
34 35 36 37 39 39 41 43 46 50 52 54 55 57 61 64 66 69 72 75 77 81 85 89 94 97 97 97 99 102 101 101 103 107 112 117 121 125 120 114 112 111 109 106
36 36 38 40 41 42 44 47 50 51 54 56 57 60 63 66 69 74 77 80 83 85 89 94 97 97 98 99 100 99 101 105 110 114 118 122 126 120 112 113 112 110 107 104
40 42 43 44 46 47 50 52 53 53 54 56 59 65 69 70 72 75 79 82 86 91 95 98 100 99 100 101 101 105 108 112 116 119 124 123 115 111 112 110 110 107 102 98
42 43 45 46 48 49 49 49 52 56 60 64 68 71 73 76 79 82 85 89 93 97 98 97 97 99 101 102 105 109 113 117 121 123 118 114 112 113 111 108 105 101 96 90
44 44 46 47 49 51 55 57 61 65 68 71 73 76 79 82 85 88 92 95 97 96 96 98 99 102 104 109 111 116 119 124 123 119 115 114 114 112 106 101 100 98 90 82

GFSCGP_250_spd_045.txt.gz
Wind_Speed
38 34 35 33 35 31 29 27 22 22 24 25 29 27 27 30 32 33 34 34 36 37 43 51 49 46 47 50 55 58 60 61 62 62 59 54 55 54 59 61 67 71 77 77
37 33 31 28 30 33 27 24 24 24 23 28 32 34 34 34 34 36 41 43 43 42 43 44 47 50 55 60 59 55 54 52 49 46 46 47 49 53 57 61 60 67 73 76
35 34 31 28 26 27 26 27 27 26 26 29 31 33 35 35 35 36 39 40 42 43 44 48 49 51 50 45 43 40 39 37 37 39 41 44 48 52 57 60 64 68 71 74
34 35 28 26 27 29 29 31 29 29 26 29 30 30 35 36 36 37 40 42 42 42 42 40 40 39 35 33 29 29 32 36 39 43 47 51 55 59 63 67 70 71 76 77
30 30 26 24 27 29 33 32 30 28 30 32 32 35 37 34 33 34 35 35 35 35 34 31 29 24 23 25 29 32 36 40 43 46 50 55 59 62 64 66 68 69 70 70
32 31 27 26 27 27 28 29 30 32 34 34 33 33 34 28 29 31 31 31 30 27 22 20 20 22 25 29 33 36 39 42 45 48 51 53 55 57 59 59 60 62 62 62
28 27 28 25 26 30 30 30 31 32 31 29 29 27 23 27 27 27 26 22 18 17 17 18 21 24 28 31 35 38 41 43 45 49 51 53 55 56 57 58 59 61 66 68
26 26 27 27 28 29 30 28 25 23 23 22 23 24 24 22 19 17 16 16 16 16 18 20 22 26 29 32 34 36 38 42 47 50 53 55 57 58 60 59 61 64 65 66
27 27 27 27 26 24 21 20 20 21 22 23 21 20 18 17 15 15 16 16 17 19 21 21 25 28 31 34 37 39 41 45 48 52 54 58 63 64 64 64 66 68 69 70
23 23 25 24 23 22 22 22 21 21 21 21 19 20 19 16 15 16 17 19 21 23 23 26 29 33 34 38 42 45 47 50 54 60 63 67 70 73 72 72 72 74 76 76
21 24 23 22 22 21 23 24 22 20 20 19 20 17 16 17 18 20 21 23 25 27 28 30 33 36 38 42 46 50 55 60 64 66 70 75 77 79 77 76 78 79 81 81
24 24 23 22 22 23 24 22 19 19 20 19 18 17 18 20 22 25 26 27 30 32 34 36 40 43 46 50 52 57 62 66 70 74 78 80 83 85 81 80 83 85 84 85
23 23 23 23 24 24 21 20 19 20 20 20 21 20 23 25 27 30 30 32 34 38 39 42 45 48 52 56 58 62 68 72 76 80 85 85 88 87 85 86 88 89 89 92
24 24 24 23 20 22 22 23 22 21 22 21 25 22 25 27 30 34 34 37 39 42 43 47 51 55 59 63 66 71 74 78 82 85 88 89 90 89 89 90 94 92 94 98
23 23 23 23 24 25 24 23 22 24 25 25 26 26 29 28 32 36 39 42 44 46 48 52 56 59 64 69 72 76 79 83 85 88 92 93 92 91 92 96 95 96 101 105
22 24 25 26 26 26 24 26 27 27 25 26 30 31 32 35 35 39 42 45 48 49 53 56 60 64 68 71 76 80 83 84 87 92 95 95 93 94 97 97 99 103 107 111
24 27 28 29 28 26 28 30 27 28 30 30 32 36 37 40 43 45 47 50 52 54 57 59 64 70 74 77 81 81 84 88 92 96 97 95 95 98 98 101 105 108 112 118
26 28 29 30 28 27 33 31 32 32 34 34 37 40 41 44 47 49 51 54 55 56 60 63 69 74 77 81 83 85 89 91 96 98 96 96 98 99 102 106 110 114 119 122
28 30 31 31 30 32 35 36 35 35 39 39 43 46 48 49 52 53 55 57 58 62 67 72 76 77 80 83 86 89 91 96 98 96 96 98 99 103 107 110 114 119 122 118
31 32 32 34 34 35 37 39 40 41 43 45 50 51 51 53 54 58 58 60 62 66 72 74 76 79 83 87 89 93 97 99 96 97 99 101 105 108 111 114 119 118 116 113
32 35 37 37 38 39 40 41 43 46 48 50 52 52 55 58 59 60 60 62 67 71 74 76 80 84 88 90 94 98 98 96 98 100 102 106 110 113 116 118 119 117 114 112
36 37 39 39 40 40 43 44 46 48 49 50 52 55 58 59 60 62 63 68 73 76 78 82 86 88 91 95 98 97 96 97 99 103 107 111 115 118 119 117 117 113 113 112
38 39 41 41 41 42 42 44 45 48 51 54 56 59 59 60 60 66 70 74 77 80 84 88 91 93 97 98 97 97 98 101 106 109 113 117 118 117 117 115 113 113 113 108
39 40 41 44 43 44 45 47 50 52 54 56 57 60 61 63 67 71 76 78 81 85 89 90 94 99 99 97 97 99 103 107 112 116 120 121 123 121 116 114 114 112 108 103
42 43 44 45 45 47 45 49 50 51 54 58 59 63 67 72 74 77 81 84 87 89 92 97 99 97 97 98 100 104 108 112 116 119 121 120 114 115 117 115 112 107 103 99
45 44 45 44 45 47 46 50 55 58 61 63 64 70 75 78 80 84 88 89 92 95 98 98 98 99 102 104 108 111 116 118 121 118 116 114 116 116 114 111 106 102 100 95

GFSCGP_250_spd_048.txt.gz
Wind_Speed
28 29 35 33 32 33 35 34 31 23 23 21 21 20 23 21 21 23 27 30 27 29 32 33 40 48 44 48 51 56 61 59 58 61 68 69 63 61 62 61 60 61 64 67
32 36 39 35 31 31 33 31 25 20 21 23 23 26 28 30 34 34 33 34 37 40 43 45 47 50 49 52 55 53 55 57 61 59 56 56 52 49 49 52 55 60 63 67
33 31 30 29 28 31 27 25 24 23 24 24 29 35 35 37 35 32 33 38 40 42 46 50 50 48 48 47 49 51 51 51 49 46 42 42 45 48 50 55 58 61 64 66
37 33 28 31 28 28 24 26 22 21 18 28 32 35 36 39 39 37 41 43 40 40 41 46 47 49 46 45 43 43 39 35 36 38 40 43 45 48 51 53 54 59 62 63
37 29 29 28 22 21 22 24 23 22 25 26 30 30 32 32 31 32 38 40 43 42 40 40 38 38 39 37 32 30 32 35 36 39 41 42 43 44 46 49 52 55 56 58
30 27 24 19 20 21 25 24 26 29 31 34 36 30 29 32 31 26 39 35 34 34 35 36 34 33 27 27 29 30 31 34 36 37 37 39 43 45 50 57 61 65 67 67
27 22 25 23 21 21 24 24 26 30 35 33 29 31 38 28 38 31 39 33 33 33 32 26 24 24 26 27 27 29 30 33 36 38 41 44 48 53 56 61 66 71 73 76
23 24 29 26 22 25 30 28 31 31 32 33 34 37 34 31 30 29 31 31 27 24 24 24 23 26 27 27 29 30 32 37 42 42 47 52 56 59 65 68 74 77 79 81
22 23 30 30 30 28 28 30 32 34 36 35 32 28 30 28 29 28 26 24 24 24 23 23 25 26 29 30 34 37 38 43 47 51 54 58 61 66 71 75 77 81 84 84
24 27 32 29 33 33 33 33 32 30 30 28 26 28 25 27 25 24 24 24 23 24 25 26 29 31 32 36 38 45 46 48 54 59 61 63 68 73 77 79 83 86 89 87
28 32 30 33 33 30 30 30 29 28 29 28 28 24 25 22 24 25 24 24 26 27 29 31 32 36 39 38 43 50 54 54 58 63 66 69 75 80 84 83 87 90 92 89
26 25 28 27 27 30 31 31 29 29 27 27 28 24 23 24 24 24 26 28 29 32 35 36 39 40 45 48 47 51 57 61 65 69 72 77 82 85 85 90 90 94 94 91
31 31 28 27 32 31 30 27 26 26 27 28 24 24 23 24 24 27 30 32 35 36 39 41 45 46 47 50 54 55 62 68 73 76 79 82 83 85 89 92 95 97 93 91
29 29 30 30 32 26 30 29 28 26 27 25 23 22 23 25 26 31 35 37 37 39 43 43 46 50 52 54 58 61 64 70 76 79 83 84 85 89 91 95 98 94 93 95
31 32 29 29 29 31 28 27 26 26 27 22 27 22 27 28 28 34 38 39 44 46 46 51 51 54 56 57 61 65 69 74 80 82 83 86 90 92 96 98 96 94 96 100
30 29 28 30 29 29 26 27 28 28 27 24 26 26 33 31 35 38 40 44 45 48 51 54 58 59 59 61 65 72 76 79 80 84 88 91 92 99 98 98 95 97 101 106
30 31 29 29 29 28 29 31 29 27 28 28 29 33 35 37 39 45 47 48 51 55 56 57 59 62 63 64 70 75 79 79 84 89 92 94 98 100 100 98 99 103 108 112
31 28 28 31 30 30 34 31 30 31 33 32 32 37 41 42 46 49 49 53 57 57 60 61 63 65 66 72 76 79 82 84 89 93 95 100 102 100 99 101 104 109 112 114
31 29 29 30 31 34 34 33 35 35 37 35 39 43 45 47 51 51 55 58 59 61 62 65 65 68 72 77 81 85 88 91 92 95 100 101 100 99 102 105 110 114 115 116
34 31 30 33 33 35 35 37 38 39 39 40 45 47 49 52 54 57 58 58 60 63 65 65 69 73 77 80 85 89 92 94 97 102 102 102 102 104 107 112 116 117 118 116
35 33 33 34 33 36 36 41 41 42 44 45 48 49 53 56 56 58 59 60 64 65 67 70 73 77 82 85 90 93 96 100 104 104 103 103 105 109 114 117 118 120 118 115
37 36 36 35 35 36 40 40 44 45 47 49 51 53 53 56 58 58 63 63 65 67 73 76 79 83 87 91 95 97 101 107 105 102 103 106 111 115 119 118 117 114 114 115
39 40 40 38 37 39 40 42 46 49 49 49 51 54 56 57 58 58 63 67 71 74 77 81 86 90 92 95 97 102 108 105 103 104 108 113 118 120 119 120 118 115 115 113
40 42 42 43 41 40 42 43 49 48 50 52 52 55 55 58 62 66 69 72 76 81 85 89 93 95 96 97 103 106 104 104 106 110 115 120 122 123 121 116 115 115 112 110
41 44 42 44 42 43 41 46 51 49 50 50 51 57 62 66 70 73 77 80 83 87 91 93 96 96 97 105 107 105 106 108 112 117 122 123 121 118 116 115 114 112 107 103
45 45 46 45 47 48 44 49 52 51 52 56 61 66 70 73 76 79 83 87 89 92 95 96 96 99 107 108 107 107 110 115 120 122 120 120 118 116 114 110 108 107 102 96

GFSCGP_250_spd_051.txt.gz
Wind_Speed
12 20 28 33 41 34 31 31 30 29 31 30 27 28 26 22 22 21 23 28 26 26 28 26 24 30 33 38 41 47 49 50 52 58 63 67 67 67 68 71 67 64 61 61
16 25 30 30 32 34 32 32 30 26 28 27 23 22 18 17 21 27 25 26 28 28 34 35 28 35 37 40 40 52 58 64 64 62 63 63 62 60 59 54 56 55 55 53
19 21 26 31 29 30 25 25 28 27 26 26 24 23 24 28 27 25 29 31 33 33 35 38 38 40 49 50 51 54 54 53 54 56 57 54 54 51 50 49 49 45 43 45
19 20 25 30 28 24 21 20 25 28 25 23 22 24 29 32 35 35 35 38 37 38 41 43 47 43 44 46 46 48 48 51 50 50 48 44 45 44 43 42 41 44 47 51
19 20 18 25 24 21 19 22 22 26 26 25 28 29 30 31 33 30 37 39 42 40 38 40 43 43 40 39 40 41 43 45 41 41 42 43 42 39 40 42 45 53 55 59
18 21 24 21 19 18 16 18 21 25 23 28 29 24 22 23 28 29 35 34 35 37 35 37 37 37 35 37 37 38 38 40 41 42 42 41 40 42 44 48 53 55 58 62
19 20 24 19 19 19 24 22 20 26 30 32 27 29 25 31 29 30 35 35 34 31 36 34 35 34 32 31 32 34 36 40 40 39 42 44 45 48 52 56 61 64 68 72
16 16 25 24 26 27 29 28 28 30 31 32 32 28 24 29 28 30 36 35 31 33 33 33 27 29 31 34 35 36 35 38 42 45 46 49 54 56 58 60 63 69 73 77
18 21 25 24 29 30 30 24 26 25 26 26 31 28 32 34 33 32 31 31 32 34 30 25 27 32 33 34 36 38 38 42 45 50 54 57 59 62 63 69 74 78 82 83
23 26 29 28 29 31 34 30 28 29 31 32 34 32 31 33 32 29 31 32 30 27 26 30 32 32 34 37 39 41 43 44 48 53 59 60 64 68 72 75 79 82 83 86
29 30 31 24 22 31 35 35 35 32 32 32 30 27 30 34 29 29 29 27 26 27 31 32 32 34 36 40 45 49 49 50 53 56 60 64 66 70 75 78 81 83 87 91
34 30 35 36 32 31 33 36 37 30 27 29 31 29 32 33 32 30 25 26 30 32 33 35 35 35 38 41 44 47 51 54 56 59 62 67 70 74 79 81 83 87 91 94
35 33 33 31 30 31 29 28 27 27 30 32 34 35 32 33 30 24 26 30 32 34 36 38 39 40 41 43 46 50 54 56 59 61 65 71 75 79 82 85 89 92 93 98
34 33 28 30 30 27 27 29 29 31 32 36 32 36 29 31 22 25 31 33 36 37 39 40 41 44 45 48 52 56 58 61 63 66 71 75 79 82 86 89 91 95 100 102
29 30 29 30 31 31 32 30 31 31 33 36 35 32 26 26 25 28 33 38 42 41 45 43 45 50 53 55 57 60 62 65 67 71 75 79 82 85 90 92 96 103 105 102
29 30 29 34 35 32 30 32 33 32 34 33 30 27 31 27 29 31 37 40 40 45 48 50 51 55 58 61 61 64 66 70 73 75 79 83 87 91 96 97 103 108 103 101
30 31 31 33 32 30 32 32 30 31 31 29 29 28 32 35 35 37 42 45 48 50 53 57 59 62 64 64 66 68 70 72 75 79 85 90 94 96 98 104 108 104 103 104
31 32 34 34 31 31 33 31 31 32 30 29 31 33 37 38 41 42 43 48 50 52 57 61 64 65 64 68 71 71 73 75 78 84 91 95 97 97 102 108 107 106 106 111
33 36 35 33 32 31 30 33 33 32 31 33 36 38 39 43 44 46 48 51 54 57 61 63 62 65 69 70 74 78 80 83 87 91 95 97 97 102 109 109 106 108 113 118
36 37 35 34 32 30 32 34 36 33 34 39 42 43 44 47 48 50 51 54 57 59 60 63 65 68 71 75 79 84 87 90 93 98 98 99 102 110 112 108 111 115 120 122
37 37 38 37 34 34 32 37 36 38 38 42 43 45 47 49 51 53 54 54 58 61 61 63 67 72 77 81 85 89 93 96 99 100 101 104 111 114 109 111 117 120 123 121
37 37 41 40 38 35 35 36 39 40 41 42 44 46 49 52 53 53 55 57 60 62 64 68 72 77 82 85 89 93 97 99 102 102 106 112 112 110 115 119 122 125 121 117
38 41 43 40 40 38 35 37 46 42 42 44 48 51 52 54 55 53 56 62 65 68 71 75 79 83 86 88 91 95 99 101 103 108 112 109 113 117 121 124 123 120 118 114
42 43 46 43 41 38 40 44 46 46 45 47 51 52 54 57 58 61 62 65 69 72 77 82 86 88 90 92 96 100 101 105 110 112 109 114 117 122 123 122 119 115 114 113
45 45 47 45 41 42 44 47 49 50 48 50 53 56 58 61 63 64 67 71 75 80 84 88 90 92 95 98 101 103 107 111 113 112 115 120 123 123 123 119 117 114 113 110
44 48 48 46 44 45 46 47 50 51 52 55 58 60 61 64 67 70 74 78 82 86 89 92 94 96 99 102 104 108 113 113 113 116 122 125 123 121 116 114 109 109 109 107

GFSCGP_250_spd_054.txt.gz
Wind_Speed
27 21 13 17 23 26 29 28 26 24 28 24 33 33 36 35 32 29 33 31 30 26 29 28 31 33 34 37 55 57 45 49 49 51 56 54 58 62 64 70 74 74 74 75
25 24 16 14 21 24 27 21 21 20 23 23 23 22 22 28 29 32 33 34 37 31 32 30 31 32 32 32 33 36 40 46 49 50 55 61 66 69 71 72 72 67 65 62
21 17 12 14 18 25 17 20 21 20 20 21 21 23 25 23 27 27 31 34 39 28 29 29 34 34 37 36 39 43 47 53 54 51 53 54 57 59 62 64 60 58 56 58
18 17 14 14 19 28 19 19 21 20 21 21 25 28 30 28 25 24 29 29 31 34 34 31 34 38 41 40 42 47 50 53 53 54 54 57 59 58 56 55 54 53 55 55
17 14 17 15 23 21 23 20 19 20 21 26 29 30 33 32 25 27 29 31 35 37 35 34 38 42 43 44 45 44 44 45 48 48 49 49 49 50 52 53 54 53 55 58
21 14 15 14 14 22 21 18 19 20 24 29 26 28 29 33 34 34 34 34 37 38 40 37 36 39 42 42 41 42 40 38 44 44 44 46 50 51 52 53 56 58 61 64
20 17 11 14 16 19 19 17 18 23 27 27 28 26 24 25 27 29 27 27 30 31 35 37 39 36 35 35 37 35 36 37 40 43 47 50 51 51 53 56 59 61 63 66
19 17 10 13 19 20 23 23 21 20 22 29 27 26 24 28 30 31 26 25 30 33 36 38 36 34 34 29 32 34 38 41 44 45 48 51 52 54 58 61 62 64 69 72
24 18 14 17 26 28 27 27 24 26 25 24 24 26 30 29 29 31 33 35 30 30 33 34 34 30 30 31 34 39 41 43 43 46 49 53 55 56 60 63 67 70 72 74
31 24 19 22 25 27 27 30 30 27 27 28 25 27 32 32 33 35 33 32 32 32 32 32 30 31 33 36 39 40 41 43 46 48 52 54 57 59 62 66 69 73 77 78
29 30 28 28 27 21 26 29 31 28 32 34 33 33 36 34 30 28 31 32 32 31 30 29 31 33 37 40 40 40 41 45 48 51 54 57 59 62 67 70 73 76 80 83
38 34 32 34 30 24 29 32 35 36 34 34 33 33 32 28 27 27 31 32 32 32 29 29 32 36 37 40 41 42 46 49 52 55 57 61 64 68 71 74 75 76 80 86
47 37 35 38 36 32 33 29 28 27 28 30 30 31 24 29 31 30 29 30 31 30 29 30 33 35 38 40 43 48 50 54 57 61 63 65 68 72 73 72 75 81 87 91
42 35 32 35 34 34 28 26 25 25 28 32 32 31 29 26 29 29 26 27 31 32 30 33 37 39 42 44 48 51 55 58 61 63 65 69 72 73 75 78 82 87 91 95
39 35 30 30 30 27 28 27 29 29 32 33 34 33 31 27 25 22 25 31 36 33 33 37 39 43 47 49 52 56 59 60 61 65 68 71 73 76 79 83 88 92 96 99
44 37 28 28 30 29 26 32 36 29 32 33 34 34 29 24 22 27 31 33 35 37 40 42 45 49 52 55 57 59 60 63 67 68 71 75 78 81 86 90 93 97 100 102
46 37 31 30 30 27 29 37 35 34 30 33 32 31 28 25 28 31 33 36 39 41 43 47 49 50 53 55 59 61 64 66 69 72 76 81 84 87 91 96 98 100 103 109
44 37 33 34 32 29 38 36 35 31 29 31 29 29 31 30 31 33 37 40 43 46 49 52 53 55 57 59 61 64 65 69 74 78 82 85 87 90 95 99 102 106 111 110
38 40 36 34 34 33 36 35 35 32 29 30 30 32 34 35 37 38 41 45 48 51 53 56 59 60 61 62 64 67 71 75 80 84 88 90 93 98 102 104 107 112 110 110
39 42 39 35 35 32 39 35 37 34 31 33 35 36 38 39 41 44 46 49 51 54 56 57 59 62 65 68 71 74 78 82 87 91 94 95 99 102 105 107 112 111 111 117
39 42 41 38 36 36 38 37 36 37 38 36 37 40 42 43 44 47 50 52 53 54 56 59 63 67 70 73 77 80 85 89 93 95 97 101 103 106 108 113 114 112 117 120
41 42 43 40 38 35 39 39 40 41 40 40 40 42 43 43 47 50 52 55 57 59 61 63 67 71 74 78 82 86 90 94 95 97 101 103 106 109 112 115 114 118 122 123
42 43 46 43 39 38 40 42 43 45 44 44 44 45 44 47 49 52 55 57 59 61 64 68 72 74 77 82 86 91 95 95 99 101 102 106 109 112 116 115 118 123 125 122
41 42 49 43 42 42 43 45 45 45 48 50 50 50 51 52 53 56 57 59 62 65 68 71 75 78 83 87 91 94 95 98 101 103 107 109 112 116 116 119 124 125 122 119
46 46 49 47 47 45 44 46 47 48 49 51 53 55 56 57 58 59 61 64 66 69 72 75 79 83 87 91 93 95 99 101 104 108 111 115 117 117 120 125 128 123 120 116
48 49 52 51 50 49 47 47 48 50 51 53 55 57 59 60 61 63 66 68 71 74 77 81 85 88 91 93 96 100 102 105 108 111 116 117 118 121 126 127 121 120 119 114

GFSCGP_250_spd_057.txt.gz
Wind_Speed
40 30 29 23 14 11 9 17 17 19 22 28 34 36 33 34 30 34 38 43 35 28 37 35 34 30 34 35 43 46 48 52 53 53 54 56 54 59 61 62 59 63 66 69
37 28 28 20 13 9 11 17 20 24 23 19 15 34 32 28 33 30 27 29 34 32 32 33 31 32 33 35 35 37 39 42 50 52 52 54 52 53 56 60 61 64 64 63
35 27 23 20 11 9 7 15 14 15 17 19 17 23 25 23 29 34 30 31 35 38 38 40 37 35 33 32 33 40 40 41 43 47 49 53 57 59 61 61 59 59 59 60
34 25 21 18 13 6 13 14 10 13 16 16 15 18 21 22 26 33 34 32 40 41 43 41 40 37 39 44 44 41 42 43 45 51 55 56 58 58 54 54 55 55 58 62
35 22 20 14 12 8 17 12 11 14 16 18 16 18 24 27 28 29 27 29 32 38 39 38 42 46 46 47 41 41 44 45 47 49 51 51 50 49 49 50 52 56 62 66
35 23 18 16 8 7 13 16 15 16 19 20 21 22 25 28 31 34 34 34 36 37 39 42 43 42 42 43 42 43 44 44 42 39 41 43 46 47 49 53 57 61 66 69
37 28 18 18 11 7 12 14 16 16 16 19 21 26 25 31 33 34 33 35 37 37 38 40 38 37 36 39 42 38 36 33 33 34 39 45 48 50 53 56 59 62 64 64
40 34 19 20 19 12 13 16 15 16 16 15 19 24 25 28 30 30 32 33 31 32 35 35 34 37 38 36 33 26 30 31 34 38 46 50 52 55 56 60 61 61 64 66
42 41 26 22 22 21 17 19 18 22 21 18 18 24 30 29 28 30 29 33 33 34 36 39 37 36 34 33 31 28 31 34 41 48 53 54 54 57 58 59 61 64 66 70
45 43 31 37 27 25 20 20 21 20 24 23 22 24 27 27 28 29 30 33 37 38 36 34 35 34 34 32 29 31 36 44 50 51 52 52 55 56 58 61 64 68 69 74
47 44 44 45 30 30 27 26 24 20 22 26 26 28 30 32 32 35 34 35 33 32 33 33 32 32 30 30 31 36 41 45 48 48 50 52 54 57 60 63 67 70 73 70
48 46 46 43 34 32 31 27 26 27 31 29 25 29 30 31 33 33 30 31 32 32 34 35 34 34 30 33 36 40 42 45 46 50 52 56 56 61 63 65 68 68 71 75
51 50 50 42 38 30 33 31 31 34 33 33 27 30 23 23 26 28 31 31 34 35 37 36 34 30 33 37 39 43 44 47 50 53 56 60 64 66 67 67 68 72 75 80
53 53 56 46 43 31 30 33 33 33 28 25 25 24 22 22 27 32 33 32 36 38 37 29 28 31 36 38 37 44 46 52 56 58 62 65 65 67 67 70 75 80 84 88
57 58 62 48 48 33 34 30 30 27 25 22 24 23 26 28 29 31 34 35 37 38 29 26 30 34 38 41 43 48 51 54 58 61 64 66 67 67 71 77 82 86 89 92
51 55 61 57 45 32 33 29 27 26 23 22 25 28 28 32 32 32 32 31 31 31 32 33 35 38 43 45 47 51 56 59 62 64 66 68 69 73 77 83 87 91 92 95
53 59 61 58 51 32 30 36 30 29 28 23 27 30 31 30 28 29 27 28 31 33 35 38 41 43 46 48 52 56 59 61 63 67 70 72 75 79 83 88 92 93 95 99
56 57 63 55 48 27 39 37 33 31 29 30 31 33 31 29 28 25 28 31 34 37 39 42 44 47 50 53 55 57 60 63 67 71 74 77 80 84 88 93 92 96 100 102
49 49 57 59 44 31 36 41 36 34 30 34 35 33 30 30 30 30 32 34 37 40 42 45 48 51 54 55 58 62 65 68 72 75 78 81 85 89 92 94 98 102 103 107
51 59 65 52 36 32 41 40 40 36 33 39 34 33 32 32 33 35 35 37 40 43 46 49 52 54 56 59 61 64 67 72 75 78 81 86 90 92 95 99 102 104 107 109
56 60 64 56 49 37 42 44 40 38 43 38 36 36 36 37 38 39 40 41 44 47 50 52 54 57 59 61 65 68 72 75 78 82 86 90 93 96 99 103 105 108 110 112
58 66 62 60 47 36 45 45 45 45 42 41 38 38 41 42 42 44 45 47 49 51 54 56 58 60 63 66 69 73 75 79 82 87 91 94 96 100 103 106 108 111 111 111
60 62 61 58 47 39 45 47 46 46 44 43 42 42 44 46 47 49 50 52 54 57 59 60 62 65 67 70 74 76 79 83 88 92 95 96 99 102 106 107 110 110 112 117
61 60 59 50 39 40 43 47 49 48 47 46 46 46 47 48 50 52 55 57 59 61 62 64 66 69 72 75 78 81 85 89 93 96 96 99 102 106 108 110 109 111 117 121
62 63 56 46 49 51 46 48 50 52 51 50 49 50 51 51 52 54 56 58 60 62 64 67 70 73 75 78 82 87 91 94 95 97 100 103 106 108 109 110 113 118 121 125
59 56 55 47 49 46 48 51 52 54 55 55 55 55 54 54 54 56 58 60 62 64 67 70 73 76 79 84 88 90 92 94 97 101 103 107 108 109 110 113 116 122 125 123

GFSCGP_250_spd_060.txt.gz
Wind_Speed
63 60 39 30 26 16 10 8 7 12 11 15 20 25 31 28 29 28 30 36 34 29 29 30 26 27 28 30 32 35 38 44 43 45 49 52 55 62 58 63 61 64 65 66
59 61 37 27 26 19 10 5 1 8 8 17 17 24 26 26 24 26 32 33 33 34 24 26 31 36 35 33 31 32 36 40 48 46 49 44 47 57 63 56 63 68 66 65
53 56 36 24 19 20 10 5 7 7 10 10 14 19 26 26 27 29 31 31 32 29 28 29 29 31 39 31 32 38 36 36 38 38 43 47 50 48 58 64 62 60 64 65
49 54 39 24 18 13 6 2 5 9 9 11 14 13 26 31 24 28 31 28 29 27 29 33 35 36 37 41 39 38 38 38 40 44 47 49 52 50 53 57 60 60 62 60
49 52 42 22 17 12 5 8 7 4 6 9 10 12 14 24 26 23 28 31 34 35 40 38 40 43 44 44 45 42 44 49 51 51 48 52 54 54 53 54 56 54 54 55
48 46 45 22 17 13 7 8 14 12 8 9 13 14 15 19 22 24 25 29 32 37 38 40 42 45 47 49 48 46 46 46 46 47 48 46 44 48 50 49 49 53 58 60
46 44 41 26 19 16 11 7 7 10 10 10 15 16 17 19 21 25 28 32 36 39 38 39 39 37 38 38 38 38 38 40 42 37 34 36 40 46 49 49 54 60 62 64
45 46 41 31 29 18 14 11 10 10 9 9 12 15 13 19 23 23 25 30 33 34 38 40 39 34 36 37 38 38 41 38 34 31 33 39 42 51 53 57 62 66 64 66
45 44 41 39 31 25 17 17 17 14 13 16 18 20 23 17 21 25 28 30 32 35 37 36 38 38 37 39 41 39 35 31 30 33 39 44 49 52 57 63 63 63 63 67
45 46 42 41 35 32 24 18 18 19 19 20 21 24 23 20 22 26 32 35 34 35 37 38 40 42 42 40 36 35 36 31 34 40 43 47 53 57 59 61 62 64 67 69
44 45 43 43 42 40 35 25 21 22 27 25 23 28 29 29 28 28 31 33 35 37 38 40 38 36 35 34 36 36 35 33 37 42 45 50 54 54 58 61 64 67 67 69
43 43 41 43 44 45 38 33 25 21 27 27 26 31 29 31 32 33 33 35 37 37 35 35 36 36 34 34 35 35 35 34 40 45 50 53 54 57 60 62 64 67 70 74
42 39 41 45 48 42 41 37 23 24 28 32 33 35 29 27 29 32 33 33 33 33 35 37 37 35 33 32 32 30 31 35 39 47 51 51 56 61 63 64 68 71 74 76
44 41 40 43 49 46 44 43 26 23 26 30 36 35 31 25 28 30 33 34 34 36 35 36 36 32 30 30 29 32 36 41 44 48 52 56 60 63 68 70 74 75 77 80
45 41 41 44 45 48 49 43 29 24 25 26 34 29 32 29 30 32 30 32 35 37 39 38 32 29 29 29 32 36 41 46 50 51 56 59 62 67 73 77 78 80 81 83
46 41 45 44 48 49 51 51 34 26 26 26 26 29 32 33 34 33 32 33 36 37 36 34 32 28 30 33 37 41 46 50 53 57 59 63 67 71 74 77 80 82 83 85
48 46 44 46 48 49 49 51 33 30 26 25 27 33 33 33 32 31 34 36 35 33 33 33 33 34 36 39 43 47 50 54 58 61 64 68 72 73 76 79 80 82 86 89
52 47 47 48 48 51 50 51 39 30 30 29 32 37 37 33 32 32 35 34 33 32 33 35 37 40 43 45 48 51 54 58 61 64 67 69 71 75 77 79 82 86 90 95
50 51 51 50 47 47 43 51 53 41 36 37 38 35 33 34 36 36 35 35 35 34 35 38 42 45 47 49 52 56 59 60 63 65 68 71 75 77 79 82 87 91 95 97
51 48 51 51 51 43 50 51 51 42 32 46 38 36 36 38 38 37 37 36 37 38 40 42 45 47 50 53 56 58 61 63 66 69 72 74 77 79 82 87 92 95 97 100
50 51 53 56 51 45 51 53 53 50 41 41 38 39 40 40 41 40 39 40 41 42 44 45 48 50 53 56 59 61 64 66 68 71 74 76 79 83 88 92 94 96 99 101
52 56 57 52 49 48 54 49 53 50 36 39 41 41 45 45 44 43 43 43 45 46 49 51 53 55 58 61 63 65 66 69 71 74 76 80 84 87 89 92 96 99 101 104
55 56 54 54 49 52 55 56 56 46 38 37 42 43 44 47 48 47 47 47 48 49 52 54 57 59 61 62 64 66 69 72 74 76 80 83 86 89 92 95 100 102 105 106
60 58 58 54 53 56 59 55 57 45 45 42 42 47 47 47 50 51 51 51 52 53 56 58 59 60 62 65 68 70 72 74 77 80 84 87 90 93 97 102 102 105 107 106
56 55 55 55 54 58 63 59 52 48 46 46 42 46 50 51 51 54 56 57 58 58 58 59 61 64 67 69 70 72 75 78 81 86 90 92 95 98 102 104 106 107 108 113
54 53 56 55 60 62 61 57 56 44 44 48 50 50 52 55 58 58 60 62 62 63 63 64 65 68 70 73 76 78 81 85 89 92 93 95 99 102 105 107 105 108 112 113

GFSCGP_250_spd_063.txt.gz
Wind_Speed
49 52 55 52 40 25 16 11 1 5 10 14 17 16 21 20 22 23 31 24 28 27 23 22 31 28 24 22 20 22 25 28 30 32 35 37 40 40 44 52 54 60 63 63
44 48 52 54 37 26 15 9 5 5 7 11 16 14 22 21 23 25 26 21 23 26 32 28 26 29 32 27 27 28 29 30 33 34 41 40 48 50 47 44 45 46 51 54
43 45 49 49 35 25 16 11 10 4 3 10 11 14 24 21 21 21 25 33 23 24 25 23 24 23 21 27 30 32 31 31 36 38 42 43 43 46 46 47 49 52 56 59
39 41 46 50 32 24 11 7 7 10 3 8 11 16 16 22 23 22 23 26 29 29 28 27 31 28 31 29 29 32 37 38 39 41 45 45 45 50 54 54 55 56 55 58
39 40 40 44 41 25 16 6 2 5 4 5 6 11 10 19 24 26 21 30 31 28 29 29 29 31 32 34 37 37 42 44 45 45 48 48 50 49 50 52 54 53 52 53
38 37 37 40 39 31 20 12 4 4 8 8 9 11 11 12 20 29 31 32 32 35 35 35 36 38 39 38 40 42 43 43 45 47 47 45 44 42 45 48 46 45 48 52
36 34 34 36 39 35 24 13 8 6 6 8 11 12 13 19 19 21 24 27 27 27 27 30 32 36 38 38 35 34 35 38 39 40 41 43 43 39 39 42 43 47 52 56
32 32 32 35 37 33 30 18 10 12 9 9 11 16 11 16 18 23 26 27 28 27 28 28 28 29 31 33 34 34 33 35 39 40 42 42 40 37 39 43 47 55 58 60
32 31 32 34 35 34 39 25 16 14 14 15 13 19 19 15 19 19 24 26 25 26 25 25 29 31 32 34 36 38 38 39 40 40 40 38 40 40 45 52 56 57 61 64
32 33 32 33 35 35 40 27 24 16 20 20 19 20 23 23 24 21 26 28 30 30 32 31 33 32 34 37 38 41 43 40 37 37 37 37 39 48 53 55 57 61 63 64
33 34 33 32 36 39 35 33 31 27 19 24 25 28 27 26 25 28 29 30 31 33 34 36 36 38 39 39 40 37 36 37 36 35 37 38 42 47 53 57 62 63 66 66
36 32 35 33 36 37 36 37 33 31 25 22 29 37 30 28 27 30 33 35 38 39 40 40 41 41 40 36 34 36 37 37 38 36 34 39 44 50 56 60 61 63 67 72
35 35 35 35 37 37 37 35 31 34 29 28 28 36 31 31 33 34 33 35 38 39 40 42 40 37 36 36 36 37 38 39 36 34 38 41 47 53 56 60 65 69 73 74
36 37 39 40 38 38 41 35 38 35 35 26 31 33 33 35 34 31 31 32 31 34 37 40 38 38 38 37 36 39 40 36 35 39 43 47 51 56 60 63 66 70 74 78
39 38 40 41 41 42 43 34 41 39 36 29 33 30 34 35 32 29 32 33 34 37 39 40 40 37 38 39 37 35 34 37 40 45 48 50 55 59 62 64 68 70 75 80
42 43 43 43 42 44 39 33 41 45 37 37 31 33 36 33 32 31 30 33 36 36 35 36 38 38 39 38 35 38 41 43 45 48 51 54 58 61 64 66 70 74 79 81
47 46 45 45 45 43 38 45 40 47 42 36 27 33 35 37 34 32 32 33 35 37 38 38 38 37 38 37 37 39 42 46 49 51 54 58 61 64 67 71 74 76 80 82
52 50 51 49 47 42 47 40 48 46 45 37 32 32 37 35 34 36 38 39 37 38 39 39 39 39 39 40 41 44 47 50 52 55 59 62 65 68 71 73 75 79 81 83
56 54 51 49 47 40 40 47 46 47 46 40 38 37 29 35 38 40 40 41 40 40 41 39 39 41 43 44 46 49 52 55 57 60 62 65 67 70 73 75 78 80 82 85
57 57 54 48 47 42 46 45 46 49 45 42 43 41 34 34 38 42 43 42 42 43 44 45 44 42 44 47 50 52 54 57 60 62 64 67 70 73 75 77 79 82 84 87
58 57 52 47 46 42 42 47 51 47 47 47 43 41 38 36 40 41 43 44 45 45 47 48 49 50 50 51 53 56 58 60 63 66 68 70 72 75 77 78 81 84 88 91
54 49 49 49 48 43 51 51 48 51 52 48 44 42 40 37 38 45 46 46 47 48 49 52 53 54 54 55 56 59 61 63 66 67 69 72 75 77 79 82 87 90 92 92
48 51 50 52 53 55 52 52 51 51 51 50 49 47 43 43 44 43 48 49 49 50 52 53 55 58 58 59 61 62 64 65 68 70 73 76 78 80 83 87 92 93 93 98
52 52 53 58 56 56 56 54 54 57 52 49 51 51 48 47 49 47 45 47 52 53 54 56 58 59 62 65 67 69 70 71 73 75 78 80 83 85 89 92 94 94 100 105
56 57 57 57 55 58 59 59 59 58 52 49 53 54 52 52 49 50 50 48 50 54 57 60 62 64 66 68 69 71 74 76 79 82 84 86 88 91 93 95 96 102 106 107
57 56 59 58 63 63 58 61 60 59 56 55 56 57 56 54 50 49 53 57 57 58 59 62 65 68 70 72 74 77 80 82 84 85 86 88 90 93 94 97 103 108 108 107

GFSCGP_250_spd_069.txt.gz
Wind_Speed
35 37 34 39 41 44 46 34 27 17 8 5 9 8 10 8 13 18 22 20 17 20 18 19 21 27 36 37 45 45 49 46 43 43 54 50 46 51 59 64 63 60 61 60
33 33 34 37 39 40 41 41 25 14 10 5 11 7 8 12 15 16 16 20 23 24 24 20 28 25 32 32 34 35 43 43 40 40 36 37 38 38 40 43 49 52 51 55
32 32 33 37 37 37 37 38 29 21 9 8 8 12 12 6 14 18 25 24 21 17 25 30 29 29 33 27 28 29 29 32 35 33 36 36 38 42 41 42 44 46 47 49
31 32 33 35 35 34 34 33 33 19 9 5 7 3 8 5 11 19 30 30 31 26 25 23 35 35 33 35 35 33 35 34 37 39 37 40 39 38 40 44 47 50 52 53
30 31 32 34 34 32 31 32 28 17 16 2 5 7 7 7 9 17 26 33 33 34 35 33 36 35 41 39 33 32 32 31 33 35 36 37 43 44 46 47 50 54 57 60
30 32 30 32 33 30 27 28 28 24 14 17 10 9 9 12 14 16 18 35 38 34 33 36 33 36 39 39 35 37 41 43 42 45 45 45 48 50 53 52 56 58 59 58
30 32 32 33 32 28 26 25 23 25 24 14 16 14 15 16 17 18 22 25 32 37 39 37 39 41 41 40 40 41 44 45 48 48 48 51 54 57 56 53 53 52 53 55
35 33 33 33 33 27 26 23 24 22 21 18 16 17 17 19 20 23 25 27 31 39 39 37 38 39 42 42 45 48 48 47 51 50 54 53 49 46 45 50 51 53 55 58
37 35 33 34 33 27 27 23 23 21 22 25 22 16 18 22 22 22 24 28 33 35 38 44 45 45 45 44 45 46 46 46 47 46 44 44 45 46 48 52 54 57 58 57
37 36 34 33 32 29 27 26 23 22 23 25 22 25 16 25 28 28 27 28 29 29 31 36 40 42 42 42 42 42 41 43 42 45 43 45 49 50 52 54 55 55 54 55
41 40 35 34 36 31 29 27 23 24 25 26 28 29 27 16 21 34 34 31 29 33 35 33 33 33 36 38 40 41 42 43 44 45 47 49 51 53 52 52 52 55 55 57
44 42 37 37 37 31 30 30 27 23 25 26 27 32 31 30 23 24 32 38 36 35 33 35 36 39 40 41 43 44 45 47 47 47 49 49 48 50 51 52 53 54 56 61
48 39 38 38 36 36 35 30 29 27 25 28 27 30 34 31 33 30 26 32 35 39 39 39 39 41 42 43 42 41 43 44 44 43 47 48 52 53 54 55 56 57 59 61
50 44 41 39 43 39 36 35 32 30 29 29 32 30 32 27 34 32 30 24 28 34 38 41 43 44 42 43 39 36 38 41 43 45 47 50 52 53 53 57 58 57 58 60
52 47 43 43 44 43 40 37 34 33 32 33 35 34 34 27 34 33 30 28 27 32 33 34 36 39 41 42 39 40 40 41 44 45 45 45 47 50 51 53 54 56 56 59
56 49 46 48 48 46 42 41 39 36 37 37 37 38 36 28 34 33 33 32 31 33 34 37 38 38 42 43 40 42 42 43 45 45 47 46 50 52 53 54 57 59 61 65
60 53 51 49 52 48 44 44 41 40 40 39 39 41 39 32 36 36 34 35 35 32 35 43 42 41 40 42 43 45 45 44 43 45 46 49 49 50 53 56 59 63 66 69
64 57 58 55 54 48 44 47 44 44 42 42 43 42 40 37 38 40 38 36 40 40 36 37 44 46 46 46 47 48 48 47 47 48 49 50 52 54 57 60 62 66 70 73
70 67 63 57 53 51 49 48 49 46 46 47 44 42 40 41 42 41 41 40 41 40 40 40 41 44 51 51 52 52 52 53 53 53 54 55 56 57 60 64 66 69 72 75
74 70 64 58 53 51 51 53 54 51 42 54 44 40 41 43 43 41 42 43 44 44 43 44 43 44 46 49 54 56 58 58 59 60 61 62 63 65 67 69 71 73 76 79
73 69 63 58 53 52 53 53 58 52 51 52 47 42 43 46 45 45 45 47 46 46 48 50 51 52 50 49 50 51 51 54 56 59 62 64 66 69 72 74 76 78 81 83
73 70 65 61 56 56 56 57 56 54 53 50 49 50 51 50 49 46 49 50 49 48 51 54 54 54 58 56 54 52 57 59 63 65 68 70 72 74 76 79 81 82 82 84
75 70 69 65 59 59 60 60 58 58 57 56 55 55 53 52 52 52 54 54 54 53 54 56 58 62 62 60 53 54 57 61 64 64 64 59 57 61 67 71 75 80 85 89
69 70 67 64 58 59 60 60 60 60 58 58 55 58 53 52 53 56 58 58 58 59 58 60 62 66 64 59 56 58 63 63 58 52 50 54 57 62 68 76 81 81 84 90
69 69 64 62 62 63 61 63 62 60 60 59 59 59 54 55 58 60 62 63 63 60 61 62 64 64 62 60 64 69 72 66 61 60 62 63 67 73 77 82 86 81 84 87
70 68 67 63 66 64 64 66 62 62 62 58 58 59 59 61 63 65 63 65 64 63 64 66 68 64 70 70 74 72 70 70 69 66 69 72 77 82 84 88 91 85 81 83

GFSCGP_250_spd_072.txt.gz
Wind_Speed
41 36 33 36 38 39 42 41 44 39 31 19 2 4 7 11 6 10 16 12 14 19 20 24 28 36 47 50 50 48 47 48 50 53 50 50 57 57 58 57 54 59 60 63
42 35 32 37 38 39 40 38 41 38 24 19 9 11 10 6 8 11 10 8 12 18 25 24 27 29 33 39 45 47 51 50 53 52 49 55 52 54 58 57 53 55 59 61
44 36 32 35 38 38 37 35 38 37 22 21 9 8 11 5 6 15 17 17 12 17 20 21 22 24 28 34 37 40 48 53 55 52 55 54 51 45 48 48 47 45 46 48
40 35 31 34 37 35 36 31 32 37 27 19 17 8 4 6 13 20 25 24 17 17 23 20 19 22 23 24 30 33 41 46 54 53 47 51 50 46 47 49 48 45 46 49
45 36 34 31 37 33 34 29 28 33 25 20 15 15 13 6 11 13 27 27 26 24 21 23 29 29 32 33 30 35 34 38 36 40 39 41 47 47 45 44 46 50 54 57
43 38 34 30 37 34 34 31 27 28 23 23 16 10 13 13 8 11 16 32 30 31 32 27 31 33 37 40 41 41 43 39 37 38 42 44 44 47 48 50 51 57 60 59
45 42 36 32 37 37 33 31 26 26 23 23 23 18 9 16 17 14 14 20 36 38 39 39 34 36 35 39 40 41 42 48 44 46 47 50 52 52 54 56 58 60 63 65
42 37 38 35 35 36 34 32 26 26 22 21 19 23 17 18 17 18 22 23 22 39 42 45 43 46 49 48 45 42 44 47 49 49 50 51 54 57 59 58 59 61 60 62
47 42 41 37 36 35 34 31 27 25 23 17 19 19 17 18 17 24 22 23 24 27 33 47 52 49 50 49 49 50 53 53 53 54 55 57 57 55 54 55 53 51 55 58
50 47 40 40 36 36 34 29 31 26 23 21 17 16 19 20 22 16 18 29 32 33 32 32 37 43 50 52 51 53 52 52 52 53 53 51 51 51 49 50 46 47 57 60
58 48 43 41 36 35 34 34 33 27 26 23 20 20 21 17 20 23 26 22 21 34 38 36 38 37 37 37 37 42 43 43 46 48 50 51 50 50 49 51 53 60 60 61
58 51 46 42 44 38 33 35 32 25 29 26 24 22 23 24 23 25 29 30 25 21 32 38 38 37 37 43 44 42 46 45 45 49 52 54 54 50 51 51 55 57 58 62
57 54 51 46 44 38 36 37 33 30 34 29 27 27 25 25 23 29 29 31 29 27 18 29 40 43 43 42 43 46 46 49 46 38 40 44 45 48 50 55 58 60 64 66
62 56 50 45 45 47 40 35 35 35 36 35 32 30 29 29 25 29 32 31 31 30 31 25 27 33 39 41 43 46 48 45 41 37 40 40 40 47 54 58 58 56 56 57
64 59 52 52 51 45 43 35 40 37 39 38 37 35 33 33 30 33 34 32 31 33 32 34 30 28 35 34 39 41 43 43 40 41 41 41 43 49 54 52 52 54 55 56
68 55 50 52 51 49 45 40 37 40 44 43 40 38 37 36 34 34 34 35 32 35 32 34 32 29 33 35 42 46 45 45 42 40 40 45 50 51 54 56 56 56 56 56
75 69 52 52 57 54 42 42 39 45 43 43 40 42 42 38 38 37 37 35 35 37 38 35 35 32 29 31 34 40 46 48 49 51 52 54 55 57 57 59 60 60 61 62
77 71 61 57 59 49 46 46 45 46 47 45 44 47 45 42 42 42 40 37 37 40 41 41 39 38 38 37 38 38 39 41 46 51 53 54 57 59 61 63 65 66 68 68
81 71 64 59 55 55 49 49 49 50 49 48 48 49 45 47 44 46 43 44 43 44 44 44 43 45 44 44 44 46 48 47 49 49 51 52 54 57 60 63 66 69 70 71
82 77 72 65 57 53 54 55 55 54 46 50 53 51 51 50 46 47 45 50 46 46 49 49 48 49 48 50 51 51 54 54 56 59 53 54 57 60 64 66 68 69 71 71
80 77 75 73 68 60 59 61 63 55 51 60 53 54 51 50 45 45 49 49 50 51 50 51 52 52 53 55 54 55 59 60 61 57 55 55 56 59 63 64 66 67 65 65
79 79 77 71 71 60 58 66 62 59 61 57 55 54 52 50 50 49 52 54 53 52 53 54 57 59 59 60 57 58 59 62 61 57 57 62 67 70 62 60 62 62 65 70
78 78 81 78 71 68 65 65 68 66 60 59 57 57 57 55 54 52 57 57 56 53 55 58 60 62 62 63 60 60 59 64 62 59 63 70 74 68 63 62 65 65 72 77
82 81 79 79 75 75 73 73 69 69 65 63 59 61 60 55 55 56 58 59 58 60 58 61 63 64 65 65 65 64 67 68 63 66 75 76 74 71 69 67 68 71 77 80
85 81 80 76 75 76 74 73 73 70 66 64 60 60 60 60 59 61 61 63 60 62 63 63 67 68 67 68 69 69 72 70 71 78 78 76 73 72 70 70 74 76 80 81
84 80 79 73 75 74 75 73 72 69 68 65 62 64 66 67 67 64 67 65 64 64 66 67 71 72 71 72 73 73 75 76 79 77 76 74 71 70 70 73 78 82 85 89

GFSCGP_250_spd_075.txt.gz
Wind_Speed
43 42 35 37 39 35 33 40 42 42 42 36 22 6 24 21 20 18 23 26 19 16 26 33 44 53 62 59 59 63 59 62 58 58 57 61 62 66 62 64 60 64 67 59
42 50 43 37 38 34 32 41 40 41 40 40 22 19 7 9 28 32 24 14 9 11 19 27 36 45 49 54 53 53 57 55 52 56 56 59 64 62 61 60 61 58 61 65
49 47 45 36 37 35 30 41 37 39 36 34 30 16 14 9 12 15 18 17 11 5 16 21 30 37 41 43 49 52 55 53 57 58 58 57 58 65 60 54 60 60 60 59
48 49 45 37 36 34 31 38 31 37 34 31 29 16 11 11 10 10 16 18 20 15 14 17 20 30 35 36 40 49 49 48 49 46 56 56 62 60 60 60 58 59 58 52
46 52 45 40 40 34 31 34 34 34 32 28 26 21 14 8 8 13 17 23 21 22 21 19 20 20 23 27 36 43 39 37 44 52 55 57 58 61 60 58 51 56 56 55
51 51 45 46 40 34 31 34 36 34 33 27 24 20 19 10 6 9 16 25 25 18 18 26 27 22 25 30 28 29 37 39 39 44 48 48 46 46 51 56 59 57 57 59
60 58 57 50 43 38 30 33 37 35 33 26 16 15 16 15 3 9 11 22 32 30 26 27 32 30 32 36 33 35 37 38 38 41 45 46 48 52 51 52 56 59 60 63
65 61 59 55 44 41 30 33 35 34 31 27 20 14 19 21 20 8 9 16 21 27 39 36 38 37 36 40 39 39 41 45 47 50 50 51 55 56 54 57 60 62 65 68
71 62 64 56 47 42 33 36 31 37 30 28 21 14 15 16 18 19 16 9 8 20 24 29 48 45 45 46 41 40 44 46 49 53 55 54 54 59 59 63 66 66 67 66
77 71 69 51 48 45 35 36 32 36 33 28 25 18 15 15 20 20 21 16 12 15 19 24 29 33 46 50 52 53 51 54 55 53 54 57 57 54 54 52 53 54 55 56
79 70 61 63 45 49 43 36 35 35 35 32 24 22 19 16 16 21 19 21 23 24 23 22 18 29 32 33 40 45 42 39 40 43 39 42 39 38 41 43 46 51 48 56
81 71 68 53 50 52 47 38 35 32 34 33 25 24 23 21 20 20 20 18 22 22 23 25 19 16 28 30 35 36 37 31 37 36 37 45 43 38 18 40 41 49 52 55
76 69 58 52 53 52 48 42 38 36 35 33 32 29 27 25 23 23 25 24 23 24 24 26 24 21 13 21 35 38 39 41 42 43 42 49 37 40 33 39 44 57 58 67
70 59 56 46 52 54 50 48 42 43 34 35 34 33 32 29 26 26 27 30 28 25 27 25 25 23 17 16 18 26 35 41 46 49 49 50 44 48 48 55 60 67 70 74
61 58 56 53 55 56 53 52 47 40 40 32 37 36 35 34 30 27 28 30 31 32 31 28 26 28 29 23 20 20 19 22 33 39 42 43 45 54 56 60 65 67 64 67
63 65 63 61 58 55 55 50 47 42 42 39 37 38 41 39 33 31 32 31 31 33 36 34 32 26 32 37 34 29 30 30 29 29 30 39 46 45 54 59 64 65 66 66
67 74 66 59 62 59 54 47 43 45 45 44 37 38 42 40 38 36 36 38 36 37 38 36 36 35 34 36 37 37 35 33 35 37 37 38 39 39 43 51 56 61 64 66
71 79 70 64 65 64 51 50 47 46 45 45 45 39 40 42 41 40 41 42 39 44 43 39 40 40 39 38 39 39 41 41 40 40 40 41 43 47 49 50 50 54 59 64
77 83 75 67 68 56 55 54 56 53 49 49 50 46 43 42 43 43 45 47 45 43 41 42 43 46 44 44 42 44 48 51 51 50 49 49 49 50 52 51 47 50 57 63
84 84 80 71 68 55 51 58 51 57 51 49 50 49 46 44 42 44 47 51 49 44 44 44 46 50 48 47 47 50 52 55 54 54 53 54 52 54 57 56 51 59 65 69
86 87 82 75 69 70 65 60 57 51 52 55 57 53 49 49 47 47 49 51 50 47 50 50 49 52 53 49 50 52 57 58 58 59 59 59 59 62 63 59 60 69 71 73
86 90 82 78 70 67 70 69 68 54 51 56 56 54 55 55 54 52 51 53 50 50 53 53 54 56 55 56 54 58 60 63 65 64 65 66 65 66 68 68 70 74 72 73
84 86 83 79 69 70 71 73 68 63 62 60 54 56 60 60 57 57 56 55 56 56 57 58 59 60 62 60 57 60 64 66 69 68 69 71 71 73 72 75 76 76 74 70
81 83 85 83 79 76 73 72 68 65 69 68 65 61 60 62 61 61 61 61 58 59 60 62 65 62 65 64 62 64 66 70 74 76 74 76 77 77 79 81 83 78 75 72
82 81 82 82 81 82 76 73 73 72 72 68 68 68 65 65 65 65 66 65 61 62 63 64 67 68 70 67 67 70 71 75 79 81 81 82 83 84 87 89 88 82 80 79
79 75 75 77 81 81 80 77 72 69 67 67 69 69 71 71 71 71 68 68 66 65 68 69 70 71 72 72 73 74 77 79 83 83 86 86 87 91 93 94 87 83 84 84

GFSCGP_250_spd_078.txt.gz
Wind_Speed
42 48 49 41 42 41 42 28 25 30 31 34 40 32 15 28 38 34 33 26 34 30 37 34 33 58 73 76 59 61 62 68 75 77 72 69 69 69 69 62 61 66 66 69
49 46 44 37 36 43 41 30 25 26 32 30 36 30 23 15 30 37 38 40 37 33 27 24 21 32 51 65 61 60 62 63 61 63 70 71 69 67 70 67 67 62 67 70
49 51 43 32 38 45 42 34 25 24 31 29 37 32 30 20 14 28 33 35 30 24 17 17 16 22 35 51 57 55 59 64 65 63 62 63 63 61 59 62 69 68 69 70
48 50 43 38 40 45 34 34 27 24 29 27 33 31 31 23 14 11 21 26 24 21 15 11 11 14 19 29 45 58 64 65 61 61 58 62 61 67 67 64 62 66 67 72
54 55 45 39 42 40 33 33 31 24 27 28 29 27 28 28 18 18 16 23 23 24 15 11 12 11 16 17 27 33 39 53 62 60 62 62 66 68 65 67 68 67 65 65
56 56 48 41 44 42 42 37 40 27 27 30 27 25 25 23 17 18 13 13 25 24 19 19 18 17 20 19 16 18 24 31 38 40 44 45 49 50 53 54 55 58 66 66
61 57 54 50 45 46 48 43 39 35 28 25 28 22 16 19 20 18 17 10 18 26 26 22 22 24 25 23 25 26 27 28 27 29 33 35 39 41 44 45 48 50 53 58
65 58 58 57 55 55 53 51 41 39 28 25 27 18 17 13 13 11 11 16 12 15 32 27 28 27 29 33 29 32 34 34 32 37 41 42 43 43 46 51 50 52 56 61
71 65 67 66 65 62 56 52 49 39 30 26 25 20 22 15 7 13 13 11 10 14 15 22 31 39 40 37 36 36 36 39 39 41 43 44 46 46 51 54 55 59 62 64
77 73 69 68 69 65 62 59 54 40 38 28 26 22 24 19 15 8 6 11 8 4 6 13 19 22 33 39 42 46 43 46 48 48 47 47 49 53 54 55 49 44 40 36
84 80 76 75 75 69 64 58 45 40 40 34 28 25 25 19 16 13 10 10 11 9 14 9 17 21 15 27 31 31 40 50 52 53 57 57 57 55 43 39 35 37 31 29
92 91 81 70 71 67 68 61 49 44 43 40 31 28 27 25 21 17 14 15 14 15 13 13 13 17 19 13 24 32 29 30 38 35 38 42 40 34 36 41 37 26 35 39
103 102 94 89 85 77 73 67 65 50 49 40 33 33 31 24 25 21 16 15 17 18 19 16 15 18 15 15 14 19 30 37 36 39 38 39 42 42 38 39 34 37 49 49
107 105 97 95 83 82 72 63 56 53 46 44 38 40 32 29 27 26 24 19 18 19 20 23 20 20 20 17 15 12 15 18 28 39 43 40 43 44 41 44 44 49 55 61
92 87 83 79 77 82 76 65 56 54 48 44 47 43 37 32 27 29 28 28 23 24 22 22 27 27 24 20 16 16 17 18 20 23 27 30 32 41 43 44 51 57 60 64
81 75 73 73 71 73 63 55 61 55 49 44 49 45 44 37 34 28 30 27 27 26 24 23 25 30 32 32 27 22 18 21 22 24 25 29 33 38 44 47 54 63 68 71
69 69 67 60 64 63 56 55 59 55 47 46 49 47 47 42 39 34 28 31 31 32 31 27 30 29 32 36 37 34 31 29 29 27 26 29 32 33 36 38 42 44 48 53
63 61 62 59 63 64 48 60 57 54 51 48 45 47 47 42 40 39 36 30 36 36 34 33 31 34 32 33 38 39 39 38 37 40 39 39 40 42 42 43 45 47 50 53
64 65 63 59 63 55 63 60 58 58 55 48 46 47 46 46 43 41 42 40 38 39 38 38 35 36 35 35 39 41 39 41 42 43 47 45 47 49 49 51 53 55 57 58
66 54 55 57 64 60 63 61 61 62 55 51 51 49 50 51 45 42 43 43 41 43 42 42 42 43 42 44 45 46 47 48 48 51 49 51 53 56 58 58 61 62 64 66
60 53 58 59 67 67 68 65 66 66 52 56 56 58 62 53 50 47 43 44 46 50 48 48 49 48 47 50 52 51 53 54 53 56 54 57 58 60 62 64 66 67 70 72
58 57 62 69 72 73 71 65 65 62 65 64 64 63 58 53 51 49 49 50 52 55 55 54 54 54 54 55 56 57 58 59 59 61 60 61 63 65 67 70 73 75 76 77
68 69 69 74 73 78 74 72 66 63 60 65 63 62 58 52 44 49 51 53 55 56 56 57 57 57 58 61 62 61 64 65 65 64 65 67 67 70 75 76 78 81 82 84
65 62 62 72 76 81 74 72 69 67 67 65 62 63 62 61 60 58 57 60 59 57 57 59 60 63 64 64 66 66 68 69 69 67 69 72 72 75 78 81 84 86 88 89
66 63 67 71 74 81 77 74 71 66 61 63 66 66 67 68 71 69 66 68 62 63 65 68 68 68 69 67 68 69 70 72 73 72 74 76 78 80 82 85 88 90 92 94
63 63 68 72 78 81 82 77 77 71 70 68 67 69 69 68 67 66 65 66 66 68 71 71 72 73 70 70 74 73 72 73 75 76 78 80 82 85 88 90 94 95 96 100

GFSCGP_250_spd_081.txt.gz
Wind_Speed
54 44 47 43 38 39 40 36 40 47 34 30 32 33 39 38 26 29 47 47 47 52 54 67 58 57 62 60 65 60 63 64 61 59 58 70 64 67 61 61 61 64 69 71
54 46 49 42 40 40 40 32 37 42 32 28 31 34 37 36 32 22 32 47 40 34 33 55 66 58 72 73 61 68 56 61 65 65 63 66 74 74 72 70 72 70 67 68
55 56 49 41 43 44 44 36 30 38 32 28 26 31 38 38 34 29 21 34 47 50 44 37 49 60 60 67 84 77 73 65 63 69 70 72 75 77 76 73 70 67 71 74
55 56 52 42 43 42 47 41 31 27 28 27 25 31 38 35 35 31 23 20 22 24 29 27 28 34 37 43 59 88 80 73 74 65 65 74 80 76 76 73 78 79 73 71
53 59 55 42 49 43 49 45 37 31 30 34 26 33 34 32 33 35 24 15 16 17 21 18 18 15 19 26 34 50 62 70 68 65 66 65 70 72 73 73 74 76 76 77
58 64 57 50 51 47 53 47 40 34 34 36 32 30 32 27 29 33 25 10 13 15 18 18 19 16 15 20 26 33 40 49 53 62 63 64 65 68 72 73 73 72 76 75
64 63 63 57 54 54 53 53 46 37 37 38 32 23 29 24 23 29 25 18 12 14 17 21 19 21 21 21 21 25 31 41 53 54 53 52 57 58 62 57 57 55 55 55
66 63 60 60 57 59 56 57 53 42 45 42 32 26 26 24 21 23 24 21 18 12 12 21 25 23 25 24 26 26 29 32 36 38 39 39 41 44 45 45 45 48 48 49
66 63 64 63 63 64 59 56 55 49 42 39 39 30 25 26 23 22 20 17 19 18 16 14 17 24 33 33 32 32 30 32 34 36 37 36 37 40 43 47 48 49 50 53
67 65 69 70 67 62 62 61 58 53 43 39 49 39 32 25 26 19 17 15 15 16 17 17 14 7 12 24 30 36 38 34 36 37 38 39 42 42 43 48 50 50 51 54
73 69 70 74 69 68 67 64 58 56 46 44 45 43 36 29 28 21 17 17 16 12 13 17 17 18 14 14 15 28 34 37 39 46 49 49 47 47 48 49 46 46 46 47
82 76 70 69 69 64 62 63 63 60 56 48 50 41 36 32 28 29 19 17 16 16 17 16 16 19 21 18 14 10 21 29 29 30 32 32 37 39 37 33 37 40 41 45
89 83 79 77 76 71 74 72 69 65 59 51 47 47 40 37 34 30 26 21 18 17 16 18 20 18 19 22 20 15 11 11 24 29 33 36 41 41 43 42 41 41 37 45
98 94 90 84 84 85 79 70 66 64 59 51 58 63 58 48 40 34 33 27 23 24 21 17 18 20 19 19 20 19 18 15 16 19 22 27 35 44 49 50 49 46 46 49
106 100 96 95 92 94 91 84 77 74 71 74 58 65 59 49 44 41 38 30 29 26 24 20 19 22 21 20 20 21 20 18 15 18 21 24 28 32 33 36 39 40 42 53
91 98 107 104 99 99 99 97 93 78 70 68 65 61 55 53 46 45 40 31 32 29 26 25 24 26 23 22 23 23 25 25 24 22 19 20 23 26 30 31 33 34 39 44
79 78 82 87 97 103 108 95 92 85 77 74 64 51 60 58 46 47 45 42 39 33 29 31 28 30 32 25 27 29 29 28 27 29 27 30 30 31 32 34 35 34 35 38
72 79 70 70 80 88 75 77 76 73 67 62 55 56 59 59 48 45 48 46 47 44 43 37 34 35 35 34 30 29 33 33 33 37 36 35 36 37 39 40 42 42 44 45
72 74 71 74 74 74 73 67 66 62 52 53 53 57 60 56 47 44 49 48 46 43 44 44 44 45 43 37 37 39 38 41 43 43 43 43 46 46 45 45 47 50 49 51
70 74 73 65 65 63 61 64 66 58 48 54 57 63 63 56 46 46 51 46 45 43 44 45 46 44 42 44 43 42 44 44 47 48 50 50 52 52 53 54 54 55 56 58
67 71 68 66 57 58 59 63 62 58 46 60 62 65 65 58 55 51 51 52 46 46 46 45 43 43 48 50 50 51 50 49 49 51 52 54 56 58 58 59 60 62 62 63
67 68 72 65 50 54 59 64 61 54 62 59 65 66 68 61 60 59 58 52 51 47 51 52 48 50 53 55 56 55 54 54 56 57 59 60 61 62 64 64 66 68 69 71
70 74 75 59 52 56 59 62 62 61 65 58 65 67 67 63 64 61 57 55 55 53 52 50 51 54 59 62 61 57 59 61 63 64 65 65 68 67 67 69 71 74 75 76
69 71 69 60 54 60 62 66 64 67 71 67 63 62 65 63 63 61 59 63 63 60 57 56 57 60 65 64 66 67 67 68 68 70 72 72 70 71 71 73 76 78 79 81
66 71 68 62 58 62 63 66 69 73 73 72 64 62 61 64 66 63 62 63 63 67 66 64 64 66 68 70 71 72 71 72 72 78 78 75 75 76 76 79 81 82 84 86
62 67 64 63 56 62 63 65 70 72 73 71 67 65 64 63 62 62 64 65 62 62 65 68 70 72 73 73 73 72 74 74 79 81 80 79 79 79 82 84 85 87 89 91

GFSCGP_250_spd_084.txt.gz
Wind_Speed
55 48 56 59 52 48 43 40 37 36 34 38 39 39 28 29 38 37 38 27 26 38 52 45 51 53 50 43 47 43 53 54 52 53 43 45 42 46 50 54 52 54 57 58
55 50 58 54 50 46 44 42 37 34 33 34 33 35 32 29 33 40 38 37 22 29 41 45 50 47 54 59 55 50 48 51 51 58 56 54 54 50 54 58 64 62 64 65
58 56 57 55 49 42 45 43 40 34 37 31 28 34 34 35 28 39 38 39 23 20 26 43 42 40 44 48 61 63 57 47 55 55 57 62 58 64 61 59 59 68 73 72
59 59 60 58 57 49 46 44 38 32 37 33 29 31 39 40 27 33 36 39 26 21 17 19 24 46 42 37 41 67 67 68 57 57 61 60 60 65 64 70 70 68 66 72
59 64 64 61 59 52 49 43 38 33 36 37 31 29 39 36 31 28 33 33 27 20 15 14 13 17 26 39 43 46 65 65 67 70 70 66 67 65 64 63 64 62 65 63
63 62 61 58 59 52 50 47 43 37 35 37 38 34 35 34 29 26 31 29 29 16 15 13 15 15 16 18 20 25 35 53 64 69 65 68 71 78 69 70 65 66 67 67
64 63 61 57 54 53 51 52 45 41 37 42 41 33 29 28 29 24 27 28 29 20 14 15 12 16 18 21 20 21 21 26 31 39 53 57 60 67 69 67 66 68 68 68
64 60 60 59 58 59 55 53 44 43 40 42 44 42 35 35 32 27 24 28 26 23 19 14 13 13 17 22 25 26 26 24 25 28 32 39 40 47 55 60 55 57 60 58
72 64 65 64 62 58 53 49 51 46 39 39 41 44 45 37 30 29 26 25 21 20 16 17 17 16 19 20 23 28 31 27 29 31 33 34 33 35 37 41 47 48 49 49
71 71 71 70 68 66 58 55 54 47 39 40 43 44 41 37 29 35 29 23 22 19 15 12 13 15 18 18 17 20 26 34 33 32 33 35 37 38 39 41 43 45 46 48
67 65 63 64 61 62 60 55 50 49 43 45 47 43 41 30 31 29 28 23 22 20 17 14 15 16 19 21 20 13 12 26 34 37 38 38 38 39 41 43 42 46 48 52
73 73 71 70 67 65 63 59 58 51 42 43 46 40 40 33 27 26 26 29 25 22 17 15 16 15 21 21 18 18 11 7 23 33 36 36 38 43 46 48 47 47 46 44
84 78 75 70 70 69 67 64 60 52 48 42 50 36 43 38 30 28 28 34 34 28 26 20 22 21 19 20 19 17 15 14 12 11 15 16 18 20 25 27 28 31 34 38
91 88 82 78 73 78 70 68 65 60 54 51 47 45 48 44 41 40 39 37 38 39 31 30 27 27 21 19 19 19 17 16 15 14 14 16 16 17 21 23 25 27 31 34
98 94 93 84 80 84 77 75 74 67 60 57 53 53 51 52 46 45 49 45 48 42 40 35 33 30 27 21 22 21 19 20 19 19 18 19 20 20 22 24 27 31 34 35
78 95 97 90 92 86 89 87 81 70 69 67 64 59 58 59 59 49 48 51 46 48 41 42 39 34 34 27 25 27 26 25 25 24 24 25 26 27 27 28 29 31 35 38
69 73 83 88 103 99 101 91 86 84 79 78 76 70 62 61 60 53 52 46 46 50 45 40 44 44 39 35 30 29 32 32 29 28 29 31 33 34 36 36 37 37 39 40
66 67 71 69 82 89 90 101 100 94 88 84 81 78 73 69 70 62 56 51 50 55 49 46 47 46 42 38 39 38 36 38 37 35 35 35 38 39 39 42 43 45 47 48
66 67 66 67 74 77 74 84 102 106 94 93 90 88 84 78 73 60 56 54 53 64 47 52 52 48 48 49 49 49 47 47 44 41 40 40 40 41 42 43 46 49 50 53
63 64 63 69 68 67 65 74 83 92 88 89 88 86 87 86 74 62 60 62 60 62 56 51 57 55 54 52 52 51 51 50 47 44 45 44 44 44 48 52 53 55 57 59
58 59 63 66 60 61 59 63 67 74 68 73 73 70 74 72 66 64 65 66 64 63 59 50 57 55 53 53 51 50 51 50 50 49 50 49 48 51 55 60 59 62 64 65
53 60 63 62 61 62 58 59 64 65 67 64 65 59 63 65 64 63 67 68 66 65 62 55 53 56 54 56 56 60 59 58 56 56 54 53 56 60 64 68 65 68 72 71
52 56 60 64 61 62 59 60 65 59 63 59 59 61 63 64 63 65 65 69 68 68 66 65 59 63 59 61 59 60 63 63 60 60 59 60 63 66 70 73 72 74 76 76
50 54 58 61 64 63 61 58 53 53 51 54 59 62 63 63 63 65 69 73 70 70 71 69 67 66 67 67 65 67 66 63 63 65 65 68 72 72 74 77 79 82 82 81
50 50 55 60 64 62 61 56 49 50 50 54 59 66 64 63 65 68 70 74 71 71 72 70 69 68 69 71 69 69 69 70 70 70 71 74 76 79 79 82 84 86 89 87
46 44 46 56 62 63 58 56 46 46 49 54 61 65 59 62 66 69 68 70 73 72 69 70 73 73 72 73 71 69 72 75 74 75 76 80 82 82 82 86 90 92 91 91

GFSCGP_250_spd_087.txt.gz
Wind_Speed
58 52 48 60 57 47 41 44 45 41 33 34 29 29 28 30 36 41 31 32 36 34 22 21 34 34 36 35 33 40 45 39 44 47 43 36 37 30 30 38 46 50 46 41
54 46 55 58 56 49 41 42 47 39 31 34 31 31 27 28 34 39 30 32 35 36 24 20 22 32 41 41 38 39 39 31 31 34 50 46 45 41 33 35 39 48 53 55
55 54 57 56 56 51 47 44 44 39 30 32 34 29 30 25 30 38 31 29 34 35 31 23 16 23 32 35 43 42 43 48 40 35 28 37 45 50 48 44 42 45 46 48
57 55 59 58 55 54 48 48 49 41 33 33 30 28 30 27 29 36 30 25 32 34 35 24 12 11 22 33 39 34 32 47 45 47 44 38 38 48 56 52 53 54 52 55
56 63 63 61 61 60 54 53 49 43 34 32 32 30 29 26 25 31 32 22 27 33 37 21 10 5 7 12 22 33 36 31 44 43 50 52 47 46 53 56 53 56 58 59
60 62 63 63 61 57 54 55 51 45 37 32 32 28 28 28 25 28 33 22 23 28 31 20 8 5 8 9 10 13 23 31 40 43 42 47 49 48 51 55 59 63 63 62
62 62 63 56 55 55 52 53 51 48 39 38 31 26 30 32 34 30 31 26 22 24 24 24 16 8 5 9 12 14 14 17 22 25 33 43 50 54 54 54 57 59 57 55
61 62 59 62 59 59 54 54 50 48 42 37 29 27 35 36 35 34 30 29 24 22 21 22 18 18 15 13 12 14 20 22 21 20 19 24 28 32 36 37 43 45 49 49
61 59 61 53 54 55 52 50 54 48 41 36 30 30 35 39 36 35 27 26 28 20 20 21 16 16 15 17 18 17 18 21 26 25 22 19 23 26 29 30 31 33 35 38
61 58 60 60 59 61 61 56 53 49 42 37 32 31 39 41 40 38 26 25 19 22 17 20 16 17 16 14 17 22 20 17 26 29 26 26 28 29 32 33 33 35 37 39
63 55 61 60 58 59 64 60 55 52 46 42 39 31 45 44 43 39 32 23 19 22 20 17 17 14 15 16 17 21 24 18 14 23 27 30 31 31 32 34 35 39 41 41
63 63 68 70 68 66 67 64 63 59 56 52 40 36 44 43 40 47 35 21 17 22 23 22 19 17 17 17 16 16 17 18 14 6 17 25 28 30 33 35 35 38 41 42
69 68 64 65 68 71 66 66 66 61 59 48 47 37 46 55 45 51 38 26 20 19 20 26 27 25 18 22 18 17 16 14 12 11 9 6 9 14 18 18 16 16 17 19
73 72 71 71 70 70 66 66 64 62 57 50 42 46 42 56 53 51 42 36 34 30 28 29 26 30 31 24 23 21 20 17 16 15 14 13 11 10 11 13 16 18 20 22
80 77 82 80 75 74 76 72 72 68 62 54 51 50 48 57 60 54 47 43 40 43 37 36 31 33 35 34 31 26 23 23 20 20 21 22 21 21 20 20 21 24 26 28
85 83 84 87 89 89 84 79 73 68 66 58 56 52 52 54 63 60 55 51 46 48 43 40 37 39 43 39 39 34 31 27 27 26 26 26 28 28 28 28 30 31 32 34
73 82 92 91 92 95 93 87 87 83 76 68 61 58 63 59 62 66 64 59 52 50 51 48 40 43 46 46 43 43 38 37 35 32 33 33 33 34 33 32 33 36 37 38
69 77 80 83 89 90 82 97 91 93 87 80 71 68 67 68 68 67 66 65 57 52 54 55 51 48 51 48 47 49 47 44 42 42 41 37 36 40 41 39 39 39 40 41
68 69 70 69 79 75 74 84 91 95 89 90 83 79 79 76 78 68 73 72 70 62 59 53 56 52 56 53 47 50 50 47 44 44 47 45 45 47 45 45 45 45 47 47
65 66 59 58 65 66 72 75 77 81 87 94 84 86 83 83 81 69 85 80 75 70 71 67 58 58 61 58 53 48 51 50 51 54 53 52 52 52 49 49 49 49 51 54
60 58 56 61 57 56 65 70 72 72 72 81 87 86 88 88 87 87 88 84 79 77 78 77 71 64 63 66 57 52 52 56 58 58 57 58 57 56 56 56 57 57 58 58
54 55 57 58 52 57 66 64 64 65 70 73 76 75 73 79 87 91 91 92 88 80 77 78 76 71 68 69 63 58 59 52 55 57 61 63 63 62 61 63 64 61 63 67
48 48 51 51 51 56 58 58 57 59 65 65 69 69 67 68 72 77 80 87 89 91 82 76 74 75 74 70 71 64 61 62 59 60 68 68 66 68 67 66 67 66 70 73
46 44 48 44 52 53 55 56 56 60 59 64 57 62 60 60 63 66 69 71 71 73 73 77 75 77 77 70 74 72 67 67 65 67 71 71 69 70 72 72 75 74 76 78
46 44 47 43 48 48 51 53 56 59 60 60 57 52 53 54 59 61 63 66 67 68 73 72 73 74 75 74 75 74 73 72 69 71 75 77 76 77 76 76 79 80 82 83
44 43 45 44 44 47 50 53 53 54 57 55 45 44 46 49 55 55 60 62 67 58 50 64 70 68 69 70 75 75 76 76 76 78 78 78 78 79 78 79 81 83 85 87

GFSCGP_250_spd_090.txt.gz
Wind_Speed
54 51 52 57 56 55 50 46 47 52 37 38 39 40 32 31 27 27 29 37 35 25 24 11 8 29 41 43 28 30 32 36 40 41 42 41 43 44 36 35 37 43 46 44
53 49 53 62 57 58 50 46 48 52 38 33 41 38 31 30 28 25 30 35 31 26 22 17 11 13 32 47 45 35 35 31 39 48 44 42 39 38 36 34 34 43 49 49
56 56 58 58 61 56 55 49 49 49 37 31 37 38 32 28 27 25 29 31 31 31 27 29 17 12 17 39 46 50 40 38 37 40 47 49 47 45 40 40 38 38 46 54
58 59 59 57 59 58 51 54 48 46 41 37 36 40 34 27 29 26 24 29 28 32 27 26 29 14 12 20 39 47 49 42 35 36 37 34 33 35 35 42 44 47 48 48
60 66 62 56 59 57 50 53 48 44 42 38 39 39 36 30 29 26 24 30 29 27 29 25 27 16 10 12 19 38 37 40 38 33 41 43 38 37 35 38 41 44 46 48
61 64 63 59 55 56 55 51 50 48 43 37 44 40 40 31 28 28 26 31 29 28 27 20 22 19 9 7 10 14 29 46 43 36 35 43 45 45 46 47 49 52 52 55
62 60 65 61 57 57 59 54 56 54 46 46 48 42 43 32 26 30 29 30 29 26 24 18 18 15 13 5 5 9 14 20 31 38 40 39 43 47 49 52 55 54 56 57
55 59 62 63 60 60 61 58 58 56 46 49 48 35 42 35 30 33 32 29 30 22 22 18 13 17 15 14 10 7 4 14 21 25 30 35 40 42 47 50 49 53 56 58
54 55 56 62 64 62 59 56 59 57 46 48 43 36 43 38 30 34 36 32 31 23 15 18 16 12 14 10 10 10 12 14 15 23 24 22 22 25 29 33 37 37 37 37
55 57 55 59 63 62 59 57 55 52 44 46 47 42 40 40 33 35 37 35 32 28 14 18 22 13 13 11 10 13 15 15 17 17 24 24 22 21 24 25 24 25 29 32
53 57 57 58 62 60 59 57 55 52 46 48 45 43 42 47 38 35 35 36 36 28 20 17 24 18 14 12 10 13 16 16 17 13 16 26 25 24 25 25 27 28 33 36
57 55 56 61 63 63 63 57 58 53 51 52 49 47 44 47 41 41 38 38 39 32 24 21 22 23 19 17 15 14 15 13 15 14 7 11 24 28 30 32 34 36 39 41
56 53 62 61 60 60 63 64 66 63 60 61 57 51 49 48 49 46 46 42 39 46 32 26 24 23 22 23 21 20 18 13 10 13 11 7 5 10 17 22 25 25 25 23
62 61 61 63 67 62 60 56 56 59 54 59 56 56 53 52 54 54 50 51 44 46 40 31 28 23 21 22 26 27 22 21 17 15 14 13 13 12 11 11 13 15 18 19
66 68 69 67 62 65 71 71 70 70 69 67 65 61 59 58 58 58 57 52 48 50 51 45 38 35 34 27 27 32 31 29 27 24 22 20 20 20 21 21 21 22 24 25
77 75 72 71 72 75 68 64 68 74 76 77 76 72 68 65 64 57 60 54 55 56 54 52 47 42 43 38 29 29 35 36 37 33 31 30 29 28 28 28 28 30 31 32
71 77 80 80 76 74 71 77 74 69 65 69 66 62 63 63 60 62 60 57 54 58 61 60 57 49 48 46 42 32 29 36 39 39 38 37 41 39 37 38 36 35 37 38
72 75 77 81 85 81 81 83 82 80 79 76 73 70 69 68 66 63 64 62 57 57 61 63 62 61 55 52 49 45 37 38 36 43 46 46 46 46 46 48 45 42 44 46
71 72 75 77 83 85 87 87 86 89 92 87 84 78 76 71 66 59 66 67 66 62 59 59 64 65 61 54 56 52 50 47 46 46 49 51 52 52 53 54 52 53 54 54
68 69 69 72 75 76 81 88 89 91 91 94 95 92 86 76 72 67 69 69 67 68 64 62 64 65 63 62 61 57 60 55 52 54 58 52 53 53 55 57 58 59 59 59
68 67 66 71 73 75 81 82 84 85 88 91 94 91 87 86 87 83 79 75 73 77 74 71 72 72 71 69 66 65 63 63 63 59 62 61 59 56 57 59 63 65 65 64
61 59 63 63 62 65 73 74 76 77 73 78 76 76 80 83 82 85 89 87 85 84 82 79 77 75 75 74 73 70 70 68 66 67 67 65 62 63 63 64 67 70 70 68
56 55 56 57 58 60 64 63 65 66 66 68 70 67 68 71 73 76 82 86 90 90 90 89 86 85 82 79 77 77 74 75 72 73 73 73 69 68 69 72 71 71 71 71
54 54 56 55 59 58 61 58 57 58 61 61 61 63 65 64 66 66 70 77 87 90 90 91 90 88 86 87 87 86 83 79 80 79 82 79 77 76 76 76 77 76 76 75
52 53 52 52 54 51 57 52 51 54 55 56 57 59 62 63 62 62 61 65 70 77 84 91 93 94 94 91 86 81 78 80 81 83 82 82 82 84 83 83 81 81 82 83
50 48 49 50 48 49 45 46 47 47 49 52 53 56 59 59 57 52 57 61 64 66 69 71 72 74 75 74 73 72 73 76 77 80 80 81 79 84 87 86 85 86 87 89

GFSCGP_250_spd_093.txt.gz
Wind_Speed
74 67 51 54 52 57 59 56 51 50 49 39 46 45 41 35 36 34 32 28 29 30 30 31 29 25 33 43 36 33 35 35 37 36 47 45 43 41 38 46 45 44 41 37
68 60 56 59 57 55 56 56 54 56 49 40 45 46 48 37 35 35 33 27 27 29 30 30 25 20 27 40 44 39 35 38 37 39 39 48 47 45 38 42 40 39 41 42
65 64 61 61 58 55 55 57 56 56 50 43 44 44 50 39 36 33 33 28 25 29 29 29 26 15 19 29 45 46 41 37 38 41 45 42 43 48 40 42 44 41 41 43
63 68 63 62 58 58 55 55 61 60 53 46 44 42 46 39 33 33 33 29 25 29 25 28 24 23 9 11 32 49 51 40 39 41 42 47 48 46 45 42 41 39 40 39
58 66 63 61 58 59 55 58 54 59 57 50 44 40 48 38 35 36 32 30 26 29 23 24 27 22 16 9 14 37 54 52 43 42 44 45 50 49 49 46 42 44 45 44
64 68 67 62 65 59 58 57 54 59 59 47 45 44 48 41 34 37 33 32 28 28 23 22 27 20 18 10 12 15 37 49 52 47 48 47 46 46 53 52 47 46 46 51
70 70 70 68 67 62 61 58 56 55 57 47 44 42 47 42 38 39 35 32 30 28 23 19 18 19 14 11 8 10 16 37 46 54 58 49 47 51 49 47 49 49 49 50
66 68 71 70 68 65 65 63 53 54 55 50 46 44 45 45 42 40 37 35 34 28 25 24 16 17 16 9 4 6 1 13 28 44 51 54 54 52 53 52 53 54 54 58
64 66 61 66 69 65 64 61 59 55 52 50 48 48 47 49 47 40 39 34 35 35 28 26 16 16 19 13 12 8 7 5 5 11 33 47 53 52 50 56 60 61 62 63
65 63 61 62 63 62 60 64 63 59 57 56 53 50 51 55 53 43 41 37 35 36 35 29 25 22 19 19 12 10 12 11 10 10 16 33 37 43 50 55 59 65 68 71
64 60 59 58 57 60 61 60 63 60 54 53 55 53 54 55 58 47 44 40 35 35 36 32 35 22 19 22 18 15 14 15 16 11 10 18 29 35 35 38 47 58 63 60
63 61 62 61 55 60 58 59 62 64 59 55 55 54 50 58 56 52 49 47 41 38 38 38 35 27 25 21 24 21 18 17 19 22 10 6 4 16 25 27 26 29 31 35
64 62 60 59 59 58 54 52 56 61 60 56 57 53 53 60 61 56 55 50 44 42 38 39 36 37 27 23 25 28 24 21 20 23 22 13 8 6 10 21 30 35 38 40
66 61 61 60 62 58 57 57 60 56 58 61 58 59 56 62 62 59 56 52 51 43 43 41 37 43 37 29 27 24 21 25 26 26 25 21 15 12 12 13 14 15 18 23
68 65 68 66 62 60 64 65 65 60 61 61 61 58 62 64 66 63 60 56 51 50 49 45 44 40 42 37 33 26 26 28 25 25 30 28 25 22 21 22 21 22 23 24
69 69 66 67 66 68 62 64 62 64 65 68 64 67 68 66 66 63 60 56 53 52 52 49 47 46 47 44 40 37 43 34 30 31 26 28 31 33 32 31 30 30 31 33
73 69 66 65 68 64 59 70 62 63 65 69 73 73 72 67 66 68 67 63 60 58 55 54 52 48 53 49 50 50 47 39 41 35 31 31 30 35 37 38 41 41 41 40
74 72 69 67 69 69 70 70 68 70 72 68 68 69 71 74 74 71 69 70 71 65 60 60 59 56 52 52 49 53 52 48 47 48 45 35 36 40 40 45 48 48 48 50
74 73 72 72 71 71 75 75 73 71 71 71 77 76 75 76 78 77 78 81 75 76 66 66 61 57 56 53 55 56 54 55 59 56 51 50 47 43 45 50 52 55 55 56
72 73 72 72 74 80 80 78 78 77 81 82 78 78 80 82 84 85 82 75 67 67 68 68 65 62 58 58 57 59 61 62 59 60 57 55 56 56 55 54 53 55 60 59
73 73 73 74 73 74 78 82 84 85 87 86 85 86 84 80 76 73 73 71 64 71 75 74 72 68 63 64 64 62 62 65 64 63 63 63 60 62 65 61 59 62 63 67
72 71 71 72 70 71 74 77 79 82 86 90 89 88 86 84 85 84 83 78 78 77 79 79 75 68 67 66 66 67 68 66 66 67 69 69 69 67 67 70 65 71 72 73
69 69 68 67 67 68 73 77 80 82 83 84 82 81 84 86 85 84 89 93 91 87 85 85 83 77 71 71 71 72 72 73 73 71 73 73 74 73 74 73 73 75 73 79
63 62 60 61 64 67 69 73 76 77 78 75 74 74 74 74 76 79 81 84 88 91 94 89 87 87 86 84 82 80 79 78 79 79 81 82 80 81 81 80 79 81 81 82
58 56 60 60 62 58 61 61 59 61 61 59 60 61 62 63 65 69 72 73 72 74 77 84 91 97 98 96 92 89 87 87 87 87 88 87 87 88 86 84 82 81 79 81
57 58 57 60 53 54 54 55 56 54 52 51 51 54 54 54 56 58 63 57 56 61 65 66 68 74 81 87 94 95 93 92 91 89 88 86 85 83 80 76 73 72 72 78

GFSCGP_250_spd_096.txt.gz
Wind_Speed
94 95 87 86 85 80 67 61 59 55 54 52 47 44 51 43 36 41 39 39 33 33 33 30 28 28 25 21 30 37 34 39 40 54 54 53 52 54 52 46 44 46 40 36
98 95 92 89 86 75 67 62 61 56 54 57 52 45 43 42 40 39 42 40 32 34 31 30 30 30 24 27 22 42 41 36 43 53 54 58 57 51 50 52 48 50 45 39
97 94 93 82 70 67 63 55 64 55 55 60 57 47 46 43 37 36 43 40 33 31 30 31 28 27 23 25 22 43 42 42 41 44 51 56 53 52 54 48 43 43 44 39
92 87 81 76 70 68 55 62 65 57 54 54 57 51 51 46 40 34 38 39 35 30 29 31 27 25 19 24 22 27 50 44 46 44 47 54 58 57 52 53 47 42 46 49
84 83 78 70 65 59 52 67 66 57 54 54 53 52 47 50 43 37 37 40 34 32 28 31 25 25 19 19 17 26 46 54 46 47 45 50 50 52 59 52 52 50 46 48
82 81 78 71 58 55 57 67 65 60 58 50 50 52 45 47 49 38 34 41 35 31 30 31 25 22 17 16 18 15 29 52 54 48 51 53 54 55 54 57 55 53 49 49
83 79 76 63 57 56 61 69 66 62 58 45 51 53 47 49 50 42 35 41 37 32 32 30 25 21 17 14 17 17 12 31 54 49 49 51 56 52 55 55 55 56 56 54
80 69 63 56 53 57 62 69 68 63 57 49 52 46 46 52 48 40 34 41 38 33 33 32 25 22 18 15 14 12 10 10 26 51 52 54 52 54 56 58 59 59 60 57
71 61 60 54 54 58 61 66 65 64 58 51 49 47 50 50 46 37 39 40 38 35 34 34 28 25 20 18 13 14 6 3 3 17 43 49 52 54 53 54 57 58 57 57
64 58 55 52 58 61 63 67 68 63 60 54 48 50 49 50 45 45 44 39 40 36 37 32 31 31 27 23 21 15 13 7 5 7 11 21 48 58 57 58 57 58 57 58
59 57 55 56 58 64 66 66 67 67 62 59 52 52 54 48 47 53 51 45 38 44 40 36 33 34 29 27 25 18 16 17 13 10 8 12 22 37 54 59 57 59 61 63
56 56 55 57 59 60 62 62 65 67 65 62 58 54 53 56 56 54 52 46 45 49 47 41 36 33 34 32 28 25 21 21 21 17 15 9 15 13 31 41 49 61 63 62
58 60 59 61 62 62 59 62 59 60 63 60 61 57 59 57 55 58 56 50 47 53 51 46 44 36 33 36 31 31 25 23 27 23 21 19 12 14 9 20 30 36 40 45
62 60 58 62 64 61 61 58 52 55 57 58 57 60 59 58 62 55 52 51 51 51 53 51 47 47 37 37 36 36 33 27 27 22 20 20 20 17 17 16 14 13 16 21
64 62 62 65 61 61 64 59 56 57 59 58 58 63 65 65 54 53 55 54 56 56 56 56 50 49 44 43 40 41 39 33 32 26 24 22 19 23 23 23 21 21 21 22
64 63 63 66 64 60 61 59 59 58 62 62 57 62 67 67 62 58 61 62 59 59 59 60 56 54 52 43 40 39 41 41 38 33 30 35 31 20 21 21 24 29 32 33
64 68 66 67 69 61 56 57 64 60 63 61 60 58 61 65 65 65 65 62 64 66 66 61 58 55 54 57 50 44 43 41 40 40 38 37 37 37 33 33 33 32 31 32
70 70 67 67 65 59 64 63 62 65 61 67 67 65 66 62 59 64 65 71 67 68 69 66 66 59 52 56 57 54 49 51 49 45 47 47 42 43 45 43 42 41 41 41
70 68 67 66 65 63 65 67 64 65 68 66 68 70 68 66 66 66 71 72 74 69 57 59 61 60 58 62 63 63 57 54 57 57 53 50 52 52 53 51 48 50 52 51
72 70 70 68 66 66 68 69 69 74 74 69 68 65 68 73 72 74 72 74 76 72 65 68 71 70 69 68 62 62 59 59 61 61 59 59 58 56 58 57 58 57 54 56
71 71 70 73 71 70 68 64 68 73 74 77 75 72 72 75 75 76 81 83 84 78 75 77 76 72 72 68 67 67 63 64 64 66 64 63 62 61 61 61 62 62 62 64
68 69 71 72 70 71 71 68 69 68 74 76 79 80 82 81 79 79 81 81 81 83 83 83 83 81 78 72 70 66 65 67 64 65 67 67 66 65 67 67 66 65 67 71
64 69 71 71 72 71 71 70 73 73 75 77 80 82 82 83 84 85 89 86 84 86 86 86 84 81 81 75 68 74 73 70 70 69 68 66 67 67 68 69 70 71 72 73
62 65 66 69 70 69 69 69 71 77 78 79 82 83 81 82 82 85 86 88 93 96 96 91 89 84 79 79 78 76 75 74 74 72 72 73 73 73 73 74 75 77 79 82
59 60 63 65 68 68 67 68 67 68 69 73 77 77 77 78 76 75 74 76 79 84 87 90 91 90 88 87 86 84 84 83 81 81 81 79 78 78 79 83 85 86 87 88
54 56 60 65 65 63 66 66 68 67 67 69 67 67 68 71 68 69 70 70 70 72 72 74 77 82 88 93 94 95 93 92 90 91 90 90 92 92 90 90 92 92 92 89

GFSCGP_250_spd_099.txt.gz
Wind_Speed
87 87 82 83 85 86 86 82 80 74 77 80 67 42 39 43 52 41 37 38 41 31 36 26 26 28 33 34 33 29 28 31 34 34 34 45 50 50 60 54 50 58 54 58
85 79 86 90 89 86 82 79 78 78 72 76 58 43 43 42 43 46 40 35 39 30 37 28 25 29 34 33 33 33 26 40 34 40 31 42 52 56 54 53 49 53 47 50
88 83 88 85 84 82 80 82 84 75 68 58 52 44 47 47 41 48 42 38 35 27 32 30 25 29 32 33 32 32 26 31 38 38 36 38 55 53 58 56 59 54 44 47
92 88 95 94 91 92 89 91 88 74 62 52 60 43 50 47 37 46 45 40 36 28 27 32 25 27 29 31 31 30 25 24 45 41 40 39 44 49 53 56 62 58 65 47
87 90 93 92 91 95 88 84 76 63 57 51 53 46 49 49 43 40 53 43 35 30 30 30 25 25 26 27 28 24 21 18 40 43 43 41 41 46 51 51 54 56 50 47
86 87 88 88 91 90 85 82 72 63 53 43 51 52 45 45 46 42 56 48 32 30 32 30 29 23 24 23 25 21 18 17 28 44 43 45 44 45 51 49 50 50 50 49
87 85 86 88 86 83 80 79 68 61 49 43 53 57 43 46 50 49 50 53 43 32 31 31 30 22 21 21 20 20 14 17 18 43 53 46 48 46 49 52 54 53 52 52
93 84 83 80 78 75 75 72 61 56 48 50 56 52 48 51 49 48 54 52 45 39 33 34 28 24 23 20 22 19 15 12 12 16 50 56 48 48 47 51 57 61 61 56
88 82 84 85 76 71 72 60 59 52 51 50 54 56 52 48 49 53 55 47 43 36 35 36 29 26 27 23 21 17 15 11 10 8 17 46 54 51 54 56 60 62 61 63
83 78 82 76 73 59 66 65 54 51 48 48 56 54 51 52 48 50 50 51 44 34 33 36 30 29 28 25 24 22 15 16 10 8 6 11 23 45 53 55 54 58 61 63
78 76 80 69 72 68 64 58 51 49 47 51 58 54 51 52 48 51 48 47 41 36 35 40 33 33 32 29 30 28 23 16 16 13 10 11 18 19 23 46 59 56 57 62
57 65 70 66 62 58 53 51 50 51 46 50 55 53 52 55 50 52 47 51 46 46 37 37 39 35 34 34 29 32 28 23 21 18 18 15 15 16 21 30 45 53 59 60
51 53 57 57 53 53 51 48 53 50 51 49 55 54 56 54 50 51 53 52 51 51 46 43 39 39 39 38 38 28 30 30 28 25 24 20 18 17 13 10 11 26 38 51
51 52 50 50 49 53 47 49 47 47 48 51 50 56 57 56 54 55 56 51 59 48 50 39 42 47 44 44 39 36 32 32 30 28 27 25 25 23 18 13 13 13 14 22
47 47 47 47 50 44 42 45 49 52 53 52 56 57 58 54 56 61 60 60 65 53 52 49 56 47 44 46 45 42 39 35 36 36 32 32 30 24 21 18 21 19 22 21
49 52 49 49 52 44 47 49 49 53 53 52 52 51 57 59 62 69 64 64 61 56 54 48 48 46 44 48 48 45 43 42 42 40 37 36 35 30 26 28 31 30 25 23
45 50 52 53 53 49 48 54 58 58 53 52 51 56 59 62 68 70 64 62 55 53 51 51 46 47 47 47 50 52 48 47 43 43 41 36 39 43 42 36 34 38 36 34
51 55 55 58 56 52 59 57 57 57 58 55 48 55 59 62 64 63 62 59 57 56 58 55 57 52 54 46 48 51 51 55 55 53 47 44 43 38 46 46 42 43 42 45
55 57 55 58 53 57 58 58 57 56 57 58 55 59 61 61 65 64 64 65 65 64 67 64 60 59 57 56 59 56 56 53 56 56 55 56 54 53 53 52 49 50 51 50
50 52 54 57 54 58 56 55 58 60 58 56 60 59 63 64 62 66 71 73 70 68 68 67 65 66 64 60 62 63 63 64 61 56 59 57 58 59 61 62 62 61 58 56
50 52 54 56 57 60 56 59 59 59 58 59 57 63 63 67 68 68 67 67 66 63 63 67 66 66 67 68 65 62 57 57 58 59 57 58 61 61 61 64 66 66 66 66
49 50 52 53 56 62 58 56 58 60 59 60 59 61 67 68 70 74 73 71 69 71 72 73 72 72 72 73 74 71 70 63 59 61 65 65 67 65 65 66 68 69 70 69
50 54 54 53 60 60 57 57 60 57 57 58 62 66 72 72 73 74 78 82 82 81 78 78 77 77 75 74 76 77 76 74 71 69 70 72 72 67 67 72 75 71 71 73
49 51 53 57 60 62 60 59 55 58 58 57 62 72 72 71 77 77 78 81 81 82 83 84 84 84 85 85 84 81 79 79 76 73 70 67 66 69 71 72 72 74 76 78
47 47 50 54 57 60 60 61 62 60 60 62 64 61 65 67 71 77 83 88 88 89 88 87 88 90 89 88 86 84 84 83 82 82 81 80 78 81 81 83 83 82 84 82
42 46 50 53 58 52 59 61 58 60 65 65 59 62 63 67 72 74 73 75 76 76 76 78 82 87 86 88 92 92 89 90 91 90 84 83 83 82 84 83 83 86 87 90

GFSCGP_250_spd_105.txt.gz
Wind_Speed
101 98 87 86 88 85 80 77 76 74 71 76 70 69 70 71 70 66 59 49 49 53 55 48 48 37 36 36 33 29 28 28 28 29 20 21 27 28 35 46 38 35 33 42
106 97 95 93 92 91 86 80 77 77 78 81 77 70 70 72 69 66 62 52 47 53 47 46 44 40 36 39 33 30 27 27 28 28 21 19 31 32 33 47 42 41 35 41
107 101 103 99 97 92 86 81 78 84 88 87 83 75 72 72 72 69 59 55 55 58 53 45 45 42 35 38 31 27 26 25 28 29 23 17 30 36 35 36 39 36 39 38
111 106 104 101 94 97 93 87 86 87 87 86 90 80 75 74 64 63 61 62 63 65 59 46 47 42 30 35 29 27 24 23 28 28 24 20 32 39 37 37 36 35 37 36
101 102 107 104 99 102 95 100 95 90 87 87 81 79 66 66 64 68 69 70 61 55 51 43 44 36 36 32 28 24 22 23 26 27 22 20 31 37 38 40 40 42 37 39
96 100 100 99 95 92 88 91 88 85 82 75 69 70 59 62 67 68 68 60 50 49 45 45 47 40 40 37 32 23 21 21 25 24 20 19 26 38 42 42 44 45 41 44
98 98 96 95 93 91 90 88 88 87 82 69 71 65 58 61 66 63 59 48 46 45 45 49 51 41 38 35 27 25 21 19 24 17 18 17 12 38 42 42 47 48 53 49
97 95 95 96 95 93 91 88 87 86 81 77 73 56 52 55 59 55 49 44 43 45 50 55 49 44 32 33 30 27 22 23 20 16 16 16 10 28 40 43 44 47 53 55
80 80 94 95 94 94 90 93 85 90 83 80 73 62 56 55 54 48 39 39 40 46 57 55 49 47 43 30 30 28 24 26 19 16 14 15 10 7 41 43 43 47 48 56
75 70 76 85 88 84 91 91 96 86 79 77 71 63 55 54 50 38 38 38 42 50 51 52 51 43 47 46 32 30 31 24 23 18 14 13 10 8 10 44 45 43 49 49
69 64 71 72 68 79 86 86 79 77 76 72 65 59 56 55 49 35 38 40 45 57 59 42 44 44 40 41 41 34 30 26 24 22 17 14 13 11 10 14 40 48 45 47
62 61 66 62 66 69 68 68 70 66 63 65 64 60 60 54 44 38 35 41 48 60 59 54 51 48 36 39 39 39 37 34 23 22 22 17 17 16 16 16 18 33 49 50
50 53 59 65 63 62 63 61 59 53 59 57 62 59 61 50 45 39 37 42 50 57 63 61 54 40 36 40 38 39 36 31 31 26 22 24 22 20 19 21 23 24 30 34
50 55 57 60 56 56 55 52 54 53 51 48 53 56 60 55 44 39 42 40 49 57 56 49 44 44 42 42 39 40 39 37 31 30 33 28 28 27 25 25 24 22 25 27
49 51 54 57 54 50 47 47 47 49 47 51 54 52 51 46 42 40 51 46 52 54 51 46 45 43 43 46 42 42 39 37 37 34 35 32 33 32 32 29 29 28 25 25
51 53 53 52 52 47 47 45 46 44 45 49 50 47 47 45 43 49 54 50 55 56 53 51 48 45 48 43 41 34 35 36 38 36 38 39 37 34 32 34 36 35 33 31
52 52 52 55 51 47 46 45 44 44 48 51 49 48 49 49 50 56 55 65 57 53 51 50 53 53 51 50 41 39 31 31 37 42 40 40 37 36 38 36 37 41 38 38
52 52 52 49 48 51 48 45 43 46 47 48 50 54 55 56 59 63 66 64 63 58 59 62 56 55 53 51 48 44 46 44 49 44 41 39 39 40 41 42 44 43 42 41
50 47 47 41 46 48 44 42 43 45 46 48 49 49 53 58 61 66 68 66 65 61 64 64 59 55 55 53 50 54 48 55 53 46 44 45 45 44 45 48 48 50 48 47
45 46 42 41 46 47 42 42 45 47 51 51 51 53 58 61 64 68 66 61 61 64 59 56 60 62 57 46 50 54 51 55 54 55 55 51 49 47 49 50 49 51 49 46
44 41 42 47 50 47 44 45 48 51 55 56 57 57 59 62 65 66 67 69 69 63 60 64 65 65 63 55 54 61 69 70 69 67 61 55 55 53 55 57 58 57 55 58
43 43 48 51 51 51 49 50 50 51 56 57 59 61 63 65 66 67 70 69 68 64 67 70 68 68 70 67 64 64 70 72 75 75 70 64 60 62 62 60 59 58 60 62
43 43 47 50 55 55 48 49 50 52 57 58 61 62 62 63 67 70 70 70 71 75 71 68 71 71 73 71 67 62 67 74 74 72 69 69 69 67 68 67 67 65 65 60
42 43 46 50 52 49 47 48 52 53 56 60 61 60 59 63 67 67 68 70 70 70 76 77 77 73 71 71 71 68 66 66 66 70 73 74 73 74 75 74 73 74 72 71
45 45 46 50 51 53 51 48 51 56 59 62 61 59 58 59 61 64 68 69 69 70 70 71 71 70 68 66 65 66 69 70 71 73 73 74 75 75 76 77 78 79 79 77
46 45 47 50 52 52 51 52 54 58 60 65 63 61 61 60 60 62 64 66 68 70 71 70 72 75 75 73 73 74 74 73 72 72 74 77 80 83 84 84 82 84 84 85

GFSCGP_250_spd_108.txt.gz
Wind_Speed
100 101 95 97 100 96 94 92 87 84 81 78 71 61 65 69 69 66 63 61 62 60 58 56 55 48 41 30 31 34 33 33 31 28 30 27 20 19 27 29 23 22 29 43
102 100 94 93 93 98 96 91 85 86 84 86 83 69 70 70 66 69 69 67 61 61 59 57 59 46 47 41 31 36 33 31 30 29 28 28 24 20 31 31 32 31 34 44
106 97 98 94 92 94 97 96 93 91 92 89 84 71 73 74 71 70 70 69 67 64 63 59 55 48 52 45 27 37 33 32 30 28 27 28 26 20 36 36 39 36 36 38
107 100 101 101 93 92 91 90 92 96 100 93 91 77 74 72 70 70 69 66 65 63 62 56 51 49 52 40 25 35 34 32 30 25 26 27 28 18 39 38 42 46 40 36
95 97 101 101 92 99 89 95 95 94 93 93 89 84 71 73 75 78 74 70 69 59 53 52 51 49 51 39 27 34 34 33 30 26 24 27 28 17 38 40 41 49 48 45
92 95 94 91 94 93 94 94 96 97 95 89 84 83 68 68 76 80 74 66 58 51 47 49 48 42 48 35 29 33 34 33 28 24 23 27 24 19 31 41 42 44 50 46
88 89 90 89 87 88 91 92 92 92 89 80 76 76 63 66 68 66 66 56 52 49 48 49 45 46 43 34 31 33 35 30 26 24 21 26 19 20 26 40 45 41 42 45
87 84 85 82 83 84 85 86 86 83 82 78 77 70 65 61 62 61 52 46 44 44 43 45 42 47 38 35 33 38 37 34 27 24 23 25 20 16 22 43 46 48 43 39
83 76 86 85 83 90 90 86 82 88 83 78 72 67 65 60 62 60 51 44 44 41 37 40 43 45 36 37 35 34 34 31 28 27 25 24 20 16 16 41 42 48 52 45
77 72 76 84 91 88 87 85 90 91 82 74 68 67 65 65 68 55 49 43 40 38 34 38 43 42 35 42 37 34 37 32 31 25 28 25 20 15 10 37 44 41 50 55
68 67 73 77 82 84 88 89 89 87 83 76 73 70 69 70 67 58 55 44 40 30 32 40 44 40 44 49 47 38 33 33 34 27 28 27 23 16 12 14 42 43 42 50
61 62 70 72 74 78 78 81 87 87 82 81 78 75 71 72 71 68 60 45 35 29 35 42 42 43 49 54 51 48 48 35 32 35 33 31 26 21 18 14 18 38 44 46
57 58 67 72 72 74 73 72 72 69 70 71 80 78 75 72 73 64 53 43 33 35 37 42 50 40 44 47 49 44 43 40 38 38 32 29 29 26 23 21 19 18 30 35
55 57 63 66 66 67 63 61 63 62 57 57 62 64 66 68 65 58 51 46 38 37 39 45 54 46 41 43 46 46 39 39 43 42 39 32 29 31 29 27 26 26 26 25
55 53 56 59 57 57 58 59 57 55 50 52 52 56 59 59 59 56 52 46 38 36 40 52 60 52 47 48 51 46 41 39 42 42 42 36 38 33 31 34 33 32 29 30
41 47 52 56 56 54 55 56 56 54 49 49 51 53 57 59 58 57 51 48 41 37 48 59 60 63 57 56 56 49 44 41 41 42 45 42 38 36 37 34 35 34 33 31
39 40 48 53 51 49 52 52 52 47 47 48 53 54 57 59 56 52 52 50 45 41 58 59 49 62 64 66 62 54 50 46 45 39 39 44 43 42 41 41 40 37 37 36
40 40 46 50 49 48 46 42 44 47 48 51 53 53 55 55 52 51 52 53 48 50 60 54 57 65 63 59 57 53 52 47 48 43 39 37 46 46 45 47 46 44 40 38
42 43 46 48 48 40 39 42 46 46 48 49 50 49 48 49 54 57 59 58 55 61 57 61 56 64 61 58 57 55 53 48 49 49 36 40 50 48 47 46 45 50 50 47
44 45 46 47 42 39 39 43 43 42 44 45 46 46 50 56 56 61 62 59 61 70 56 63 61 62 62 61 58 56 57 49 51 52 56 48 53 52 50 46 46 46 46 46
44 45 47 42 39 38 41 43 43 45 44 46 50 54 58 56 54 54 56 59 65 66 63 60 57 59 64 63 62 59 58 57 56 55 52 57 59 56 55 51 53 55 58 57
42 40 41 33 32 37 42 42 44 47 49 49 53 56 55 50 50 53 57 61 71 76 78 73 65 66 65 64 61 58 59 62 62 59 58 64 58 64 66 61 59 57 56 57
43 41 35 34 42 47 44 45 47 50 51 52 53 53 53 54 59 60 61 64 76 76 76 77 75 70 69 69 70 66 63 63 62 68 64 64 69 71 72 73 70 65 62 62
36 41 42 41 45 47 49 49 49 52 52 52 52 51 54 57 61 63 66 65 70 73 78 73 74 72 67 63 62 65 69 66 69 65 71 77 78 79 80 82 82 80 77 70
40 41 42 47 49 50 52 51 52 53 53 52 52 53 56 60 64 68 70 72 68 73 72 68 70 70 73 69 75 71 68 69 71 73 72 73 76 77 80 84 86 85 85 78
41 44 45 47 46 49 51 50 50 55 55 58 52 51 53 62 66 69 71 70 70 68 71 71 73 73 71 70 77 79 78 77 77 79 79 80 77 74 75 78 84 85 85 86

GFSCGP_250_spd_111.txt.gz
Wind_Speed
105 106 93 98 93 95 92 89 88 87 90 88 83 77 75 73 70 66 61 60 57 54 53 53 55 55 55 50 47 39 39 35 34 34 32 29 26 23 22 25 29 32 26 28
107 102 98 102 99 94 93 92 81 83 89 94 91 78 80 76 73 70 69 65 61 59 59 60 59 57 55 53 50 46 36 34 33 32 30 29 28 24 25 23 30 33 28 30
111 94 101 101 103 102 97 90 89 89 92 87 86 78 83 81 78 77 73 70 67 62 57 55 56 54 52 51 51 45 35 37 35 32 30 28 28 25 26 21 32 35 29 29
109 99 103 103 98 97 97 92 90 92 95 88 86 76 80 81 79 77 76 70 68 66 58 56 57 58 56 58 50 46 33 34 37 33 31 29 27 25 25 20 34 36 32 29
100 100 108 108 96 102 96 98 96 95 95 95 86 80 70 75 76 79 75 73 69 64 60 58 60 61 58 54 47 44 32 31 38 34 32 30 28 26 26 22 35 40 39 38
87 98 98 97 100 101 99 98 98 97 95 91 80 79 72 69 70 71 73 70 68 63 60 55 58 58 55 51 44 39 33 33 39 34 32 31 30 25 22 23 37 43 42 41
77 84 89 95 96 97 98 99 99 98 94 84 82 82 69 72 68 67 69 68 65 61 57 56 56 54 51 47 44 40 32 35 40 34 33 30 28 23 21 22 36 45 46 44
76 72 76 81 85 87 93 94 93 88 87 78 80 73 71 70 68 69 70 69 63 55 51 51 50 50 48 49 44 43 33 37 38 33 32 29 26 23 21 23 27 43 46 47
76 70 71 76 79 85 86 92 81 90 85 79 72 68 67 65 66 67 67 60 55 51 47 47 47 52 49 49 47 41 34 40 36 32 31 30 25 23 21 22 24 40 45 47
74 70 68 69 74 81 82 82 88 85 77 70 64 61 61 61 61 60 60 57 52 51 49 48 44 46 48 49 48 38 37 42 37 38 35 33 24 24 22 20 19 49 41 50
63 62 69 69 69 76 79 83 80 80 76 69 62 60 59 59 59 56 56 52 46 49 49 47 41 43 49 48 44 37 41 36 39 35 38 34 28 26 23 19 12 43 43 49
57 53 66 65 69 75 74 76 81 85 72 70 69 68 65 64 63 61 58 54 51 50 49 47 37 44 45 46 39 39 41 37 41 38 41 36 32 28 26 23 16 28 43 50
47 48 62 64 66 69 70 69 70 68 70 67 66 62 67 68 66 65 60 59 55 51 48 46 37 44 46 41 38 43 43 40 37 40 42 39 36 30 32 28 24 18 31 42
46 51 63 64 64 66 66 65 63 62 63 60 62 64 69 70 69 67 69 66 62 57 53 47 39 42 39 38 43 48 46 49 44 41 38 37 39 30 34 33 30 27 25 28
39 49 60 61 61 61 60 60 58 58 57 58 58 59 64 68 73 74 75 72 67 64 57 45 43 46 36 39 45 43 45 50 47 47 45 40 39 37 34 37 36 35 33 33
38 44 48 52 54 54 54 56 57 52 51 49 52 56 58 62 64 66 71 72 64 62 54 48 47 45 42 44 44 49 52 54 54 49 48 47 40 41 39 36 41 39 39 38
35 35 41 45 47 46 49 49 50 49 49 49 48 51 55 59 62 65 67 67 62 59 54 52 48 46 52 59 56 51 54 58 57 52 47 46 43 41 42 40 41 40 43 44
35 35 36 39 42 45 45 44 45 46 48 49 50 51 54 56 59 60 61 59 57 58 56 52 49 45 60 65 58 53 55 56 54 48 46 45 42 44 48 50 48 48 47 45
35 36 37 37 41 42 43 44 45 47 47 45 47 49 52 53 56 55 55 54 55 58 58 54 51 49 66 65 60 59 58 57 57 56 48 48 51 45 46 49 51 48 48 48
34 36 39 40 40 38 39 41 40 37 36 41 45 46 47 51 53 53 54 50 53 58 59 57 57 56 57 72 67 69 62 61 61 57 56 52 51 55 54 45 50 51 51 51
33 39 41 42 39 39 40 40 40 43 40 43 45 47 49 50 51 53 49 48 55 59 61 59 57 56 65 64 67 70 69 62 66 62 59 54 51 54 60 61 59 57 54 56
35 39 41 41 41 40 40 43 42 40 42 45 46 48 48 50 51 49 45 50 55 60 62 61 61 62 66 69 62 65 66 71 64 62 52 59 55 55 57 55 50 54 56 57
35 39 40 41 37 41 43 42 42 44 46 48 48 48 51 53 53 50 49 52 57 59 60 61 60 65 69 74 67 66 60 66 65 59 64 60 54 58 59 59 59 64 65 62
32 31 37 36 36 40 43 43 44 45 47 46 47 48 49 49 48 50 52 55 58 60 62 61 67 70 70 70 67 65 67 62 64 65 69 67 69 65 65 67 66 65 67 68
28 33 37 38 39 42 44 46 46 44 44 44 46 47 46 44 47 51 54 58 60 60 61 63 72 76 66 61 67 68 65 68 71 72 71 70 69 73 71 69 71 70 70 73
30 36 36 39 43 45 47 50 51 48 45 45 47 48 48 45 47 53 57 59 62 62 63 68 73 79 73 70 67 67 70 73 72 71 73 71 70 71 73 76 74 78 80 81

GFSCGP_250_spd_114.txt.gz
Wind_Speed
105 108 103 108 108 100 100 97 94 90 93 90 87 84 80 77 72 68 62 56 51 49 52 53 48 48 48 48 45 47 48 47 42 43 40 39 37 35 31 27 22 24 28 31
104 103 105 111 108 102 103 99 93 95 93 93 86 82 86 83 78 76 71 65 62 60 59 54 52 51 51 53 52 50 49 47 43 47 41 40 37 36 34 28 22 24 29 32
101 91 112 116 112 107 103 97 99 102 103 99 92 81 81 81 82 82 81 77 75 72 68 60 58 55 57 56 53 50 48 48 49 49 40 39 36 34 33 30 24 24 26 32
95 96 105 113 111 109 105 100 101 100 105 99 97 84 87 80 76 76 76 74 74 75 71 67 62 61 59 56 55 54 52 53 48 49 39 38 36 34 32 30 23 25 25 33
74 90 102 108 98 117 104 109 107 106 103 100 90 92 84 79 78 78 78 75 73 72 72 70 64 63 58 56 57 54 56 50 50 47 39 39 37 37 34 30 27 26 25 35
65 85 85 92 107 111 107 110 111 108 108 100 89 92 90 82 77 77 76 76 74 70 70 67 63 62 58 58 59 58 54 53 49 42 38 38 36 36 34 32 27 26 23 36
70 70 78 79 90 102 109 113 112 109 105 95 93 91 80 81 80 76 76 76 72 68 67 65 60 60 58 60 58 55 54 54 49 43 39 38 38 37 33 31 27 26 21 37
70 68 68 73 79 84 96 102 107 102 100 94 102 92 84 86 83 78 78 77 75 69 66 64 63 61 61 58 56 54 53 52 49 43 38 40 41 37 33 30 26 23 18 37
64 69 69 68 69 82 83 95 81 96 97 91 87 85 86 85 85 81 82 80 74 71 67 64 62 60 58 58 55 54 53 53 49 41 39 42 41 36 36 29 27 18 21 37
57 59 64 65 69 76 81 78 90 92 85 81 81 80 77 76 77 76 76 76 74 70 66 63 62 60 58 55 53 54 53 52 45 40 40 44 42 40 37 32 27 17 23 34
49 50 59 63 67 72 75 74 83 81 79 77 73 70 75 67 67 67 65 66 64 65 64 62 60 57 54 53 53 53 52 49 43 40 43 44 42 41 37 35 27 17 19 35
43 49 54 59 62 64 67 70 73 77 72 69 69 72 67 64 65 62 61 60 59 60 62 59 57 54 53 52 52 53 53 47 41 42 47 47 41 42 39 35 29 18 16 39
36 44 48 50 55 57 63 68 69 68 67 65 67 67 63 64 62 59 55 53 52 54 55 55 53 52 49 50 49 51 52 48 40 44 48 47 42 42 41 37 32 23 16 41
35 42 44 47 52 55 61 64 66 66 64 56 62 63 61 59 63 60 56 54 53 50 48 49 47 48 47 47 45 49 49 41 40 48 48 46 43 45 44 41 35 28 26 27
31 35 41 46 49 52 58 60 60 62 62 60 55 61 60 65 64 63 64 62 60 58 55 52 52 48 47 46 39 47 46 40 43 46 48 47 42 44 44 41 37 34 33 30
28 31 34 38 46 50 54 57 58 56 53 54 56 55 59 61 62 68 69 68 68 66 64 60 55 55 50 44 40 48 44 43 51 49 46 43 44 43 41 43 42 36 38 37
25 28 29 30 38 45 47 50 51 51 47 50 53 52 56 55 58 65 69 69 68 66 66 63 64 61 57 43 43 50 42 45 55 55 49 47 45 44 39 37 40 38 39 43
23 26 27 27 34 39 43 43 43 44 43 44 47 47 53 54 57 59 62 64 68 69 67 64 62 57 56 45 48 46 41 34 53 51 52 52 50 48 45 46 42 42 43 43
23 25 28 28 32 36 39 42 41 39 39 45 48 49 54 54 56 59 61 61 61 59 61 61 64 63 59 49 55 48 55 51 61 54 58 58 56 53 48 45 48 50 47 46
24 26 28 30 32 36 38 38 38 40 44 44 44 48 51 51 52 53 53 50 50 50 52 56 61 61 59 53 59 54 62 60 66 63 62 60 55 53 52 53 52 49 49 51
22 28 30 32 33 33 34 37 39 42 43 39 42 46 46 47 48 46 47 48 48 48 48 53 58 61 60 58 63 59 54 60 64 64 62 58 52 55 53 51 54 53 56 53
24 27 31 33 32 32 35 37 39 40 39 39 40 43 44 47 46 49 45 46 45 46 48 50 55 60 60 63 66 72 68 58 63 60 59 61 58 56 62 56 57 55 55 57
29 27 32 35 36 35 37 38 39 40 41 42 45 49 46 46 47 48 47 46 46 46 47 47 52 55 59 65 65 73 78 71 62 62 68 65 66 66 60 62 60 62 59 60
27 25 30 36 39 39 42 43 43 46 49 53 50 48 46 47 48 49 47 41 41 43 45 46 51 55 62 66 64 68 80 81 72 64 70 74 64 66 67 67 63 58 58 60
23 27 29 36 42 45 46 47 47 49 51 50 48 47 48 48 49 45 48 41 41 44 46 48 51 56 62 65 67 69 69 85 83 72 67 77 71 68 71 69 67 66 64 64
27 30 34 38 41 45 47 49 50 50 50 48 48 48 48 47 48 48 44 41 42 45 47 49 52 56 63 66 68 67 74 76 80 84 76 74 80 82 80 77 74 73 75 73

GFSCGP_250_spd_117.txt.gz
Wind_Speed
67 68 61 84 95 93 100 99 101 99 99 102 95 87 84 86 85 80 79 78 77 76 72 67 65 61 59 60 63 57 48 46 47 48 45 44 42 41 37 30 35 35 31 26
68 57 68 83 84 88 97 96 95 101 104 108 100 91 86 85 79 76 75 74 72 67 65 59 57 55 58 59 60 55 47 44 49 48 48 47 44 43 38 31 35 38 34 26
69 52 78 79 81 81 85 91 92 104 110 111 102 98 94 89 81 77 75 76 72 72 68 61 56 54 53 54 54 55 52 48 50 51 49 50 49 45 42 33 35 41 35 28
57 65 74 80 80 81 87 82 93 103 107 111 105 98 98 90 89 83 78 78 79 80 77 73 72 70 65 64 61 62 60 51 52 52 49 50 53 49 46 36 34 40 37 29
54 63 72 72 71 88 78 86 94 99 104 105 106 100 93 95 91 87 85 82 81 78 80 80 81 76 73 72 67 64 61 56 53 52 51 52 55 54 47 39 37 39 37 32
64 68 70 65 72 83 80 91 89 95 100 108 103 101 93 96 91 88 86 88 86 81 79 79 75 71 69 64 68 66 65 58 55 51 51 54 56 53 45 41 40 38 36 36
64 70 73 67 70 74 74 84 90 95 97 91 83 104 93 94 90 86 82 84 86 83 80 75 73 71 70 65 63 64 63 60 57 53 53 54 56 50 44 41 41 43 37 35
57 66 63 71 62 65 72 77 82 86 85 80 89 105 89 94 92 89 85 86 84 84 80 77 72 70 68 65 62 63 61 61 59 57 54 54 55 49 43 40 41 41 39 36
51 58 60 63 63 61 66 77 70 75 82 91 91 81 86 91 92 92 87 86 83 83 81 77 72 71 70 68 62 63 61 63 60 57 55 55 53 48 43 41 42 41 39 36
48 52 50 56 59 62 62 66 69 75 79 80 84 78 74 81 87 92 92 86 84 83 81 79 76 73 71 70 68 61 60 63 60 57 57 56 52 48 42 43 44 42 39 35
43 45 44 52 54 58 60 64 66 70 70 74 78 84 78 81 81 80 78 76 77 76 79 79 78 78 75 69 64 62 61 60 60 58 58 55 52 45 42 45 45 43 39 33
37 38 40 46 47 54 60 59 64 65 64 64 64 71 88 93 83 80 76 79 81 78 74 72 73 71 68 66 62 62 64 62 60 58 57 54 45 40 43 45 46 42 40 32
33 33 34 34 43 52 54 55 57 57 62 59 63 66 72 77 72 73 74 70 73 73 71 72 68 65 62 62 63 64 63 60 58 56 56 52 42 38 44 46 43 43 42 33
30 32 28 31 38 44 48 52 54 56 59 56 57 59 65 72 68 62 78 63 64 65 63 58 59 57 57 60 62 62 62 57 54 55 56 50 41 40 46 45 44 42 40 35
28 27 25 30 36 44 44 47 50 54 54 57 58 59 63 59 58 62 65 62 59 56 57 53 53 53 57 61 61 62 60 56 54 53 53 44 41 42 47 45 41 42 43 36
24 24 24 27 33 40 42 46 50 50 52 51 52 56 60 49 56 59 60 57 54 58 57 52 50 50 51 55 57 58 56 52 51 53 49 40 40 45 48 47 40 41 44 40
23 21 21 25 31 36 41 46 47 47 47 45 46 52 50 33 38 46 55 60 66 63 60 58 53 51 49 48 47 50 50 51 47 50 41 37 41 45 46 42 42 42 46 44
22 20 21 26 30 35 40 39 41 44 41 39 45 48 47 52 49 70 64 64 69 72 63 63 60 56 55 55 53 53 53 49 45 47 36 43 40 45 46 43 44 44 45 43
22 20 21 23 27 30 32 34 36 34 35 39 41 42 50 53 66 76 65 63 70 73 67 63 64 62 60 61 58 56 54 47 43 43 43 46 48 50 48 46 47 46 44 40
25 23 23 26 29 31 32 33 32 29 29 35 37 43 48 53 56 64 64 65 70 69 62 57 63 65 67 67 65 62 56 47 45 37 45 49 43 52 50 50 49 49 50 48
27 28 27 29 30 30 30 31 33 36 37 35 37 40 45 49 49 53 57 60 62 57 49 48 55 66 67 67 68 66 61 51 48 41 44 48 45 54 55 55 52 53 52 54
29 29 29 31 33 33 33 34 37 41 40 32 32 44 49 47 46 47 44 46 46 46 46 50 53 59 64 66 67 67 61 56 59 59 63 56 59 55 55 66 61 59 53 53
28 30 28 33 35 35 36 39 42 43 46 44 44 45 45 41 43 44 42 42 44 46 48 50 52 53 56 59 61 64 64 62 67 62 58 54 59 69 60 59 68 66 63 55
25 29 31 36 36 38 39 42 43 46 45 48 50 45 44 44 44 41 41 42 44 44 45 45 45 47 49 52 54 57 61 65 69 72 71 63 59 68 72 60 66 61 59 64
25 30 33 36 39 41 42 44 47 48 47 47 44 45 45 44 43 41 42 45 44 45 42 42 43 44 45 46 49 53 58 62 73 78 78 65 62 62 59 64 70 66 69 68
26 28 32 36 41 43 46 47 49 51 51 53 56 49 48 46 46 48 47 47 48 43 41 42 43 44 45 46 49 52 58 62 72 73 79 75 73 77 74 74 73 70 63 73

GFSCGP_250_spd_120.txt.gz
Wind_Speed
91 78 76 78 73 68 73 79 82 80 82 94 92 91 90 88 91 85 81 77 76 78 79 76 74 72 72 69 69 69 64 62 56 51 52 49 45 39 43 43 41 39 37 31
88 79 78 77 65 67 67 71 74 77 83 94 97 96 91 90 88 88 80 75 76 77 76 74 70 71 72 69 67 67 66 57 52 51 55 50 47 43 43 45 45 42 41 36
89 83 81 79 63 62 62 69 65 77 87 97 101 97 90 88 88 87 86 79 77 76 71 70 69 66 63 61 58 57 55 54 53 49 52 48 48 47 44 48 46 46 43 39
87 84 84 75 65 61 64 63 65 78 87 97 98 92 93 88 85 86 87 86 81 80 75 64 63 63 62 58 53 49 52 52 49 47 48 49 51 49 48 50 50 51 46 41
84 83 77 66 62 61 56 57 66 72 79 90 94 93 75 83 83 86 87 91 85 80 75 71 67 70 64 58 54 55 57 55 52 57 56 56 54 51 51 51 52 50 48 43
82 73 71 62 58 59 51 57 65 66 73 84 77 77 64 75 81 84 88 91 91 88 84 76 71 69 69 69 69 69 73 66 62 68 63 56 57 56 53 54 53 53 48 41
72 73 67 58 51 59 53 57 61 64 70 61 65 74 62 75 80 85 90 94 86 82 84 85 84 77 73 70 67 65 69 65 60 62 59 60 58 55 55 55 55 53 48 40
58 64 64 60 52 51 54 55 56 61 60 54 62 75 64 78 84 87 90 86 84 84 87 86 81 79 77 72 75 75 69 62 57 63 60 56 56 55 56 56 56 54 46 39
64 69 62 54 51 49 55 48 49 57 60 52 68 69 74 82 80 81 91 80 82 84 84 81 78 75 78 73 71 70 66 64 60 59 58 54 55 54 56 56 57 52 43 39
69 59 55 51 43 45 46 46 47 49 52 47 62 63 67 77 78 82 85 77 81 88 86 80 76 74 74 73 71 71 68 66 63 60 57 55 56 57 58 58 55 51 43 39
60 49 51 43 40 37 43 45 43 45 53 53 54 64 69 76 81 86 83 79 65 82 74 77 78 76 75 72 71 71 68 68 65 62 60 58 58 58 58 56 54 50 43 39
52 46 44 38 35 34 37 39 39 42 50 50 47 55 80 79 75 77 75 69 67 73 73 72 71 71 69 71 70 68 67 68 66 62 60 58 56 57 55 55 53 48 43 38
46 38 40 35 33 31 33 35 38 40 43 44 47 51 66 81 73 65 60 56 49 64 66 68 69 67 63 67 66 63 64 64 65 62 62 59 58 58 57 55 51 45 42 39
40 36 34 32 31 28 28 33 36 38 35 40 44 51 59 65 72 51 63 58 42 50 60 68 62 63 68 73 69 65 66 61 58 58 59 57 59 58 57 53 47 42 39 41
33 34 30 29 29 29 23 29 33 35 37 40 48 54 62 58 71 63 54 53 72 68 57 58 63 65 66 74 73 71 69 64 58 58 59 58 55 56 54 51 43 41 42 44
30 30 26 28 27 24 26 26 28 32 35 35 44 55 54 49 62 59 53 49 75 83 82 74 66 63 64 66 63 61 58 53 53 54 57 57 54 54 57 52 43 39 46 46
28 27 27 28 26 26 29 27 31 30 36 42 48 57 52 53 57 65 25 35 48 62 63 60 59 52 53 52 50 49 49 51 52 55 55 55 53 55 56 47 43 43 48 49
26 25 26 26 29 32 33 30 29 35 35 40 44 47 51 50 55 55 54 45 59 59 72 82 73 64 57 51 48 51 51 51 53 56 53 54 56 57 50 42 42 45 47 48
25 24 25 29 30 32 31 27 31 33 35 39 42 45 49 54 58 65 64 59 66 75 77 67 71 67 62 57 53 52 50 47 50 55 54 51 50 52 41 42 42 46 45 49
26 23 24 30 30 29 27 26 25 27 31 37 39 42 45 51 58 63 74 72 74 79 84 69 59 56 59 58 60 57 54 51 51 51 50 50 50 38 41 42 41 45 44 49
27 25 25 31 31 30 31 30 30 32 34 38 42 45 48 47 53 60 69 79 81 82 74 60 55 51 55 59 63 63 62 60 55 56 52 49 49 40 41 35 40 46 48 47
27 27 25 30 32 33 34 34 35 36 37 39 39 42 44 48 54 60 63 72 76 78 77 66 52 50 49 58 63 68 67 66 65 61 55 52 43 44 43 37 39 43 46 47
26 26 27 28 33 34 34 35 41 44 43 44 45 48 48 51 56 53 56 57 61 66 64 61 59 53 48 52 63 68 73 73 72 68 60 46 44 52 51 51 49 44 46 55
22 25 27 29 34 37 36 42 47 51 49 47 50 51 55 52 48 48 47 47 48 54 61 61 59 56 54 55 59 64 70 71 72 70 64 57 57 57 59 47 49 53 55 57
25 29 30 30 35 37 39 47 51 51 53 55 53 53 55 54 51 46 45 44 45 48 49 48 49 50 49 50 53 57 60 63 65 63 63 68 70 68 66 61 59 63 59 60
26 28 30 29 37 39 43 50 53 53 53 57 57 54 52 46 44 44 44 41 44 45 45 45 46 45 44 46 48 51 53 54 55 60 65 73 78 76 74 70 68 66 70 69

GFSCGP_250_spd_123.txt.gz
Wind_Speed
105 109 106 101 96 88 81 74 67 58 64 81 81 79 75 76 89 93 95 86 82 78 73 68 71 71 68 63 64 60 57 59 61 58 56 54 53 51 49 52 44 42 40 39
104 100 97 92 89 87 78 73 65 56 59 82 78 80 73 77 82 87 89 91 86 78 73 72 72 69 66 66 65 64 59 61 61 58 54 54 54 50 47 51 48 45 43 42
92 91 89 89 89 90 82 82 74 67 58 77 80 73 69 76 79 85 85 89 86 74 70 68 68 66 64 62 63 58 57 60 57 59 54 55 45 51 48 46 48 47 47 46
86 89 87 89 90 90 83 81 80 68 60 67 76 61 62 73 81 81 80 85 83 76 72 71 72 66 61 61 61 58 59 58 53 54 50 44 43 47 47 46 44 46 50 49
85 86 89 91 89 84 84 78 68 66 62 67 64 60 40 71 78 78 80 82 84 84 81 77 74 67 64 61 57 59 58 56 49 47 47 43 39 42 41 45 48 54 50 53
83 87 94 91 82 78 73 65 62 60 60 57 55 60 38 60 71 79 81 85 88 88 84 80 79 75 68 63 58 57 59 58 51 49 49 45 44 46 49 51 52 54 52 55
85 87 93 94 80 65 66 53 52 50 51 41 51 52 41 57 68 73 77 85 87 87 85 80 74 73 69 65 62 61 59 60 53 51 58 61 60 59 60 51 52 53 53 55
88 79 86 85 76 50 59 48 45 37 38 37 50 37 45 57 64 76 77 78 78 81 79 74 73 72 70 68 67 64 61 54 51 54 58 59 58 55 56 55 51 50 52 53
86 83 81 66 62 49 55 49 40 34 35 31 41 31 51 56 68 72 70 76 75 72 68 66 68 68 70 72 73 70 70 70 68 68 68 65 64 57 53 51 49 50 53 53
81 72 74 67 59 56 48 41 36 30 29 27 35 35 45 56 67 68 68 68 65 60 59 59 56 66 68 69 69 70 69 69 67 66 67 60 59 55 51 51 49 49 53 53
77 70 68 67 61 53 43 35 31 25 24 24 33 41 47 56 62 66 61 66 61 51 55 64 64 64 65 66 67 67 69 67 67 68 66 64 61 57 54 52 52 50 52 55
73 65 65 63 55 46 37 32 25 24 20 26 33 40 44 59 64 65 58 56 46 50 58 60 63 66 55 63 65 65 67 67 71 71 66 62 62 63 56 54 53 50 53 52
67 63 62 55 47 38 32 28 23 19 20 24 33 42 51 60 63 51 30 45 54 58 58 58 57 59 64 69 72 72 66 65 67 64 64 62 59 58 55 56 53 50 49 49
65 62 51 47 40 33 27 25 22 16 20 27 42 54 51 49 60 59 43 43 56 61 60 64 64 54 48 52 58 61 63 64 64 63 62 57 55 56 57 56 53 51 51 49
60 55 44 38 35 28 28 22 22 16 22 34 45 46 48 47 52 53 56 36 40 58 65 67 63 60 60 63 67 64 63 64 66 63 63 64 57 54 52 53 49 51 49 48
53 46 38 33 31 26 27 22 23 22 24 32 40 42 40 40 45 63 50 49 52 55 52 55 55 68 57 49 49 48 51 55 59 64 67 67 64 60 55 50 50 52 49 48
45 40 33 31 27 27 28 24 24 25 29 36 40 39 46 52 51 66 65 61 60 50 54 61 57 53 53 52 51 61 59 60 62 67 64 63 62 63 57 52 50 49 50 48
41 34 28 28 26 27 27 27 27 29 33 38 41 46 48 53 55 61 71 67 57 46 51 56 72 66 72 67 59 56 58 58 59 61 65 69 67 55 48 47 50 50 51 48
34 30 27 27 26 26 28 28 30 30 31 37 39 43 45 54 58 63 75 63 59 55 61 65 66 60 65 79 74 68 65 60 46 48 50 48 46 46 47 50 49 48 48 45
30 27 27 26 29 25 27 28 28 28 30 33 40 43 46 52 59 62 73 80 67 61 64 67 67 58 42 53 70 73 75 60 48 45 48 46 43 47 51 52 49 48 44 40
26 28 27 27 27 23 26 28 27 29 29 31 41 45 48 54 60 65 75 75 76 69 69 68 67 63 55 55 56 60 60 63 65 59 56 49 46 50 52 51 49 48 43 41
28 26 27 26 23 21 27 31 30 35 36 36 38 46 51 56 61 69 84 83 80 75 70 69 74 68 63 59 58 56 56 50 57 61 60 55 51 50 48 46 48 41 43 40
28 26 27 23 21 27 29 32 37 43 43 43 44 47 51 56 65 72 82 93 90 81 81 77 75 72 64 56 59 59 60 60 58 60 64 62 58 55 52 49 49 45 48 41
30 28 26 24 25 29 31 35 44 48 49 49 50 52 55 61 66 71 80 85 89 93 89 86 81 76 65 59 58 56 48 47 49 56 66 66 63 61 56 53 49 49 50 41
28 28 28 26 30 31 32 38 46 52 53 53 55 56 59 59 65 68 70 78 84 86 86 86 86 76 68 63 60 59 61 58 57 59 67 71 69 66 62 57 53 59 56 49
28 30 29 31 34 32 34 40 48 51 56 54 58 61 61 63 64 62 65 65 66 69 70 70 70 65 61 60 62 59 57 56 55 58 64 67 72 71 68 59 58 66 63 58

GFSCGP_250_spd_126.txt.gz
Wind_Speed
84 87 90 92 95 95 98 99 90 81 80 77 75 70 63 72 81 75 74 77 77 77 73 82 84 81 75 64 64 60 60 59 62 61 58 54 53 51 48 50 50 48 42 43
81 84 86 88 89 90 95 91 84 73 74 82 75 68 62 70 77 81 72 72 73 73 75 78 84 81 78 71 65 61 59 57 60 59 57 53 50 49 50 50 51 48 44 44
81 83 86 85 87 90 90 96 90 86 76 79 86 60 60 57 75 76 70 69 71 69 71 77 83 83 80 75 67 60 57 55 59 58 58 50 51 47 46 49 48 45 43 46
82 84 86 89 91 95 90 94 91 88 81 72 80 58 50 59 70 68 65 68 69 68 71 78 83 84 76 75 70 60 57 56 56 57 53 47 44 43 46 46 48 46 46 45
86 86 90 92 94 97 96 90 86 82 74 71 64 56 35 56 57 55 60 67 68 69 72 79 85 87 80 73 69 62 61 55 53 48 44 49 47 45 44 43 43 44 42 39
92 96 95 93 96 98 93 86 79 72 66 61 62 46 42 50 44 50 61 64 64 69 71 78 82 84 82 76 71 61 57 50 44 47 52 55 50 46 43 43 45 40 39 43
97 98 101 100 97 98 93 87 71 56 59 59 46 40 44 49 46 55 54 46 55 66 70 75 78 84 83 77 71 58 56 49 50 53 56 56 53 47 47 47 43 43 45 55
92 94 99 101 99 90 79 76 65 47 41 40 28 36 42 43 45 51 43 45 48 56 64 67 72 74 76 73 71 64 57 57 59 60 57 56 53 50 49 48 50 52 54 56
99 95 101 97 93 86 71 65 56 36 31 28 26 30 36 43 45 42 35 39 38 47 59 64 69 73 74 71 69 68 67 67 66 64 61 58 58 54 55 55 48 52 53 54
103 97 99 92 86 77 64 54 44 35 27 24 28 33 41 44 44 36 31 31 14 20 41 62 68 69 73 71 69 67 69 66 68 67 66 61 58 55 53 54 57 57 53 50
105 100 90 84 75 71 55 48 35 27 19 24 29 32 36 38 36 27 33 40 54 47 38 49 54 63 67 65 72 72 72 70 70 68 67 64 63 63 62 61 58 58 53 48
106 93 80 78 66 65 53 47 37 22 21 26 29 31 32 39 34 36 36 39 56 45 37 48 54 58 63 64 72 68 70 71 70 69 66 66 67 65 61 59 62 58 58 54
91 83 70 74 61 58 53 44 33 18 25 25 26 30 38 41 35 41 31 29 38 45 47 47 55 61 58 58 61 65 66 68 72 71 70 67 65 61 59 59 62 60 59 52
82 75 66 61 59 56 50 40 30 19 26 21 27 32 41 41 36 47 41 31 34 40 46 50 56 53 59 57 56 59 60 63 63 62 62 61 61 60 60 62 63 61 58 53
73 68 62 55 56 52 46 36 27 21 23 19 30 34 40 41 42 52 40 37 42 35 47 54 51 47 51 54 57 60 58 52 52 57 59 58 60 61 61 61 61 56 55 54
67 62 59 54 53 46 39 31 25 22 19 24 30 34 36 42 47 56 51 45 48 54 54 54 57 55 55 58 58 56 54 62 69 72 62 61 64 66 63 62 64 59 55 51
62 57 58 52 48 40 34 29 24 21 23 27 33 35 39 49 50 62 58 57 55 56 59 51 61 62 60 58 57 58 56 55 56 59 58 61 65 64 63 60 60 53 55 53
60 57 53 47 43 35 33 29 23 22 27 30 37 42 42 48 52 71 62 58 57 53 54 58 60 56 58 60 65 67 68 70 64 60 61 58 60 61 59 59 58 57 58 58
58 54 45 42 38 32 29 28 23 22 24 33 37 48 50 53 56 69 80 67 60 62 61 65 60 59 55 60 61 64 70 69 64 53 53 57 55 54 59 64 67 61 57 55
54 43 41 38 34 28 26 26 22 25 24 33 41 47 52 56 61 58 79 79 75 73 62 63 64 67 63 63 60 56 55 57 58 55 55 61 57 50 48 52 57 57 56 52
50 40 37 35 30 23 22 25 24 24 27 27 42 46 53 54 58 65 72 81 78 77 77 71 71 73 67 62 64 61 58 58 61 59 59 57 56 58 53 45 44 43 43 45
46 41 35 31 29 22 23 25 25 26 29 27 40 47 49 55 58 64 70 77 79 80 80 75 68 72 73 63 66 65 66 66 50 68 65 64 64 67 51 49 48 45 45 48
43 38 34 30 26 27 28 28 27 30 32 30 36 44 52 55 58 66 74 81 85 84 81 79 75 74 74 68 68 57 60 63 49 46 55 59 59 55 61 56 55 48 48 47
41 35 31 30 27 29 31 30 31 32 38 37 39 44 52 56 59 66 72 72 78 84 86 87 90 85 77 76 69 65 60 58 54 51 51 55 55 50 48 55 59 57 53 53
35 33 30 30 29 29 32 33 34 34 41 43 43 45 51 59 62 66 72 76 77 79 84 87 86 84 84 79 76 74 69 62 57 55 58 56 56 60 56 57 62 62 61 54
33 32 31 29 30 30 30 33 35 38 46 48 48 47 50 57 62 66 71 76 79 81 82 84 85 87 82 78 78 76 69 63 62 61 61 59 54 50 46 49 60 67 65 60